[[{"header":{"parameterUnit":"m.s-1","parameterCategory":1,"la1":30.6,"la2":29.2853,"lo1":-89.7004,"lo2":-87.6739,"dy":0.0162,"dx":0.0183,"nx":112,"ny":82,"refTime":"2024-02-11T06:00:00:Z","depth":0,"parameterNumber":2,"parameterNumberName":"U-component_of_WINDS"},"data":[0.0,0.0,0.0,0.0,0.0,0.0,0.0,0.0,0.0,0.0,0.0,0.0,0.0,0.0,0.0,0.0,0.0,0.0,0.0,0.0,0.0,0.0,0.0,0.0,0.0,0.0,0.0,0.0,0.0,0.0,0.0,0.0,0.0,0.0,0.0,0.0,0.0,0.0,0.0,0.0,0.0,0.0,0.0,0.0,0.0,0.0,0.0,0.0,0.0,0.0,0.0,0.0,0.0,0.0,0.0,0.0,0.0,0.0,0.0,0.0,0.0,0.0,0.0,0.0,0.0,0.0,0.0,0.0,0.0,0.0,0.0,0.0,0.0,0.0,0.0,0.0,0.0,0.0,0.0,0.0,0.0,0.0,0.0,0.0,0.0,0.0,0.0,0.0,0.0,0.0,-3.7808,-3.8214,-4.05,-4.2241,-4.2946,-4.3153,-4.27,-4.1508,0.0,0.0,0.0,0.0,0.0,0.0,0.0,0.0,0.0,0.0,0.0,0.0,0.0,0.0,0.0,0.0,0.0,0.0,0.0,0.0,0.0,0.0,0.0,0.0,0.0,0.0,0.0,0.0,0.0,0.0,0.0,0.0,0.0,0.0,0.0,0.0,0.0,0.0,0.0,0.0,0.0,0.0,0.0,0.0,0.0,0.0,0.0,0.0,0.0,0.0,0.0,0.0,0.0,0.0,0.0,0.0,0.0,0.0,0.0,0.0,0.0,0.0,0.0,0.0,0.0,0.0,0.0,0.0,0.0,0.0,0.0,0.0,0.0,0.0,0.0,0.0,0.0,0.0,0.0,0.0,0.0,0.0,0.0,0.0,0.0,0.0,0.0,0.0,0.0,0.0,0.0,0.0,0.0,0.0,0.0,0.0,0.0,0.0,0.0,0.0,0.0,0.0,0.0,0.0,-3.7356,-3.9674,-4.1656,-4.2656,-4.2212,-4.2806,-4.2212,-3.9893,0.0,0.0,0.0,0.0,0.0,0.0,0.0,0.0,0.0,0.0,0.0,0.0,0.0,0.0,0.0,0.0,0.0,0.0,0.0,0.0,0.0,0.0,0.0,0.0,0.0,0.0,0.0,0.0,0.0,0.0,0.0,0.0,0.0,0.0,0.0,0.0,0.0,0.0,0.0,0.0,0.0,0.0,0.0,0.0,0.0,0.0,0.0,0.0,0.0,0.0,0.0,0.0,0.0,0.0,0.0,0.0,0.0,0.0,0.0,0.0,0.0,0.0,0.0,0.0,0.0,0.0,0.0,0.0,0.0,0.0,0.0,0.0,0.0,0.0,0.0,0.0,0.0,0.0,0.0,0.0,0.0,0.0,0.0,0.0,0.0,0.0,0.0,0.0,0.0,0.0,0.0,0.0,0.0,0.0,0.0,0.0,0.0,0.0,0.0,0.0,0.0,0.0,0.0,-3.69,-3.8137,-4.1284,-4.248,-4.315,-4.3332,-4.3336,-4.2383,-4.0243,-3.9784,0.0,0.0,0.0,0.0,0.0,0.0,0.0,0.0,0.0,0.0,0.0,0.0,0.0,0.0,0.0,0.0,0.0,0.0,0.0,0.0,0.0,0.0,0.0,0.0,0.0,0.0,0.0,0.0,0.0,0.0,0.0,0.0,0.0,0.0,0.0,0.0,0.0,0.0,0.0,0.0,0.0,0.0,0.0,0.0,0.0,0.0,0.0,0.0,0.0,0.0,0.0,0.0,0.0,0.0,0.0,0.0,0.0,0.0,0.0,0.0,0.0,0.0,0.0,0.0,0.0,0.0,0.0,0.0,0.0,0.0,0.0,0.0,0.0,0.0,0.0,0.0,0.0,0.0,0.0,0.0,0.0,0.0,0.0,0.0,0.0,0.0,0.0,0.0,0.0,0.0,0.0,0.0,0.0,0.0,0.0,0.0,0.0,0.0,0.0,0.0,0.0,0.0,-3.7809,-3.8785,-4.2107,-4.2667,-4.3096,-4.3849,-4.3234,-4.2214,-4.0784,-3.9345,0.0,0.0,0.0,0.0,0.0,0.0,0.0,0.0,0.0,0.0,0.0,0.0,0.0,0.0,0.0,0.0,0.0,0.0,0.0,0.0,0.0,0.0,0.0,0.0,0.0,0.0,0.0,0.0,0.0,0.0,0.0,0.0,0.0,0.0,0.0,0.0,0.0,0.0,0.0,0.0,0.0,0.0,0.0,0.0,0.0,0.0,0.0,0.0,0.0,0.0,0.0,0.0,0.0,0.0,0.0,0.0,0.0,0.0,0.0,0.0,0.0,0.0,0.0,0.0,0.0,0.0,0.0,0.0,0.0,0.0,0.0,0.0,0.0,0.0,0.0,0.0,0.0,0.0,0.0,0.0,0.0,0.0,0.0,0.0,0.0,0.0,0.0,0.0,0.0,0.0,0.0,0.0,0.0,0.0,0.0,0.0,0.0,0.0,0.0,0.0,0.0,0.0,-3.7427,-3.8595,-4.1207,-4.1767,-4.2044,-4.2151,-4.1513,-4.0981,-4.0732,-3.8285,0.0,0.0,0.0,0.0,0.0,0.0,0.0,0.0,0.0,0.0,0.0,0.0,0.0,0.0,0.0,0.0,0.0,0.0,0.0,0.0,0.0,0.0,0.0,0.0,0.0,0.0,0.0,0.0,0.0,0.0,0.0,0.0,0.0,0.0,0.0,0.0,0.0,0.0,0.0,0.0,0.0,0.0,0.0,0.0,0.0,0.0,0.0,0.0,0.0,0.0,0.0,0.0,0.0,0.0,0.0,0.0,0.0,0.0,0.0,0.0,0.0,0.0,0.0,0.0,0.0,0.0,0.0,0.0,0.0,0.0,0.0,0.0,0.0,0.0,0.0,0.0,0.0,0.0,0.0,0.0,0.0,0.0,0.0,0.0,0.0,0.0,0.0,0.0,0.0,0.0,0.0,0.0,0.0,0.0,0.0,0.0,0.0,0.0,0.0,0.0,0.0,0.0,-3.7348,-3.8518,-4.1246,-4.1761,-4.1956,-4.2059,-4.1845,-4.1236,-4.0106,0.0,0.0,0.0,0.0,0.0,0.0,0.0,0.0,0.0,0.0,0.0,0.0,0.0,0.0,0.0,0.0,0.0,0.0,0.0,0.0,0.0,0.0,0.0,0.0,0.0,0.0,0.0,0.0,0.0,0.0,0.0,0.0,0.0,0.0,0.0,0.0,0.0,0.0,0.0,0.0,0.0,0.0,0.0,0.0,0.0,0.0,0.0,0.0,0.0,0.0,0.0,0.0,0.0,0.0,0.0,0.0,0.0,0.0,0.0,0.0,0.0,0.0,0.0,0.0,0.0,0.0,0.0,0.0,0.0,0.0,0.0,0.0,0.0,0.0,0.0,0.0,0.0,0.0,0.0,0.0,0.0,0.0,0.0,0.0,0.0,0.0,0.0,0.0,0.0,0.0,0.0,0.0,0.0,0.0,0.0,0.0,0.0,0.0,0.0,0.0,0.0,0.0,-3.6896,-3.7595,-3.8804,-4.1322,-4.1524,-4.1789,-4.2431,-4.1828,-4.114,-4.0438,0.0,0.0,0.0,0.0,0.0,0.0,0.0,0.0,0.0,0.0,0.0,0.0,0.0,0.0,0.0,0.0,0.0,0.0,0.0,0.0,0.0,0.0,0.0,0.0,0.0,0.0,0.0,0.0,0.0,0.0,0.0,0.0,0.0,0.0,0.0,0.0,0.0,0.0,0.0,0.0,0.0,0.0,0.0,0.0,0.0,0.0,0.0,0.0,0.0,0.0,0.0,0.0,0.0,0.0,0.0,0.0,0.0,0.0,0.0,0.0,0.0,0.0,0.0,0.0,0.0,0.0,0.0,0.0,0.0,0.0,0.0,0.0,0.0,0.0,0.0,0.0,0.0,0.0,0.0,0.0,0.0,0.0,0.0,0.0,0.0,0.0,0.0,0.0,0.0,0.0,0.0,0.0,0.0,0.0,0.0,0.0,0.0,0.0,0.0,0.0,0.0,0.0,-3.6892,-3.8092,-3.9547,-4.1323,-4.1031,-4.1403,-4.3143,-4.1091,-4.0403,0.0,0.0,0.0,0.0,0.0,0.0,0.0,0.0,0.0,0.0,0.0,0.0,0.0,0.0,0.0,0.0,0.0,0.0,0.0,0.0,0.0,0.0,0.0,0.0,0.0,0.0,0.0,0.0,0.0,0.0,0.0,0.0,0.0,0.0,0.0,0.0,0.0,0.0,0.0,0.0,0.0,0.0,0.0,0.0,0.0,0.0,0.0,0.0,0.0,0.0,0.0,0.0,0.0,0.0,0.0,0.0,0.0,0.0,0.0,0.0,0.0,0.0,0.0,0.0,0.0,0.0,0.0,0.0,0.0,0.0,0.0,0.0,0.0,0.0,0.0,0.0,0.0,0.0,0.0,0.0,0.0,0.0,0.0,0.0,0.0,0.0,0.0,0.0,0.0,0.0,0.0,0.0,0.0,0.0,0.0,0.0,0.0,0.0,0.0,0.0,0.0,0.0,0.0,-3.7638,-3.7957,-3.8898,-4.1374,-4.1585,-4.2073,-4.3341,-4.2218,-4.1675,-4.2121,0.0,0.0,0.0,0.0,0.0,0.0,0.0,0.0,0.0,0.0,0.0,0.0,0.0,0.0,0.0,0.0,0.0,0.0,0.0,0.0,0.0,0.0,0.0,0.0,0.0,0.0,0.0,0.0,0.0,0.0,0.0,0.0,0.0,0.0,0.0,0.0,0.0,0.0,0.0,0.0,0.0,0.0,0.0,0.0,0.0,0.0,0.0,0.0,0.0,0.0,0.0,0.0,0.0,0.0,0.0,0.0,0.0,0.0,0.0,0.0,0.0,0.0,0.0,0.0,0.0,0.0,0.0,0.0,0.0,0.0,0.0,0.0,0.0,0.0,0.0,0.0,0.0,0.0,0.0,0.0,0.0,0.0,0.0,0.0,0.0,0.0,0.0,0.0,0.0,0.0,0.0,0.0,0.0,0.0,0.0,0.0,0.0,0.0,0.0,0.0,0.0,0.0,-3.8122,-3.8491,-3.9564,-4.1959,-4.2054,-4.2627,-4.4333,-4.3083,-4.2335,-4.2664,0.0,0.0,0.0,0.0,0.0,0.0,0.0,0.0,0.0,0.0,0.0,0.0,0.0,0.0,0.0,0.0,0.0,0.0,0.0,0.0,0.0,0.0,0.0,0.0,0.0,0.0,0.0,0.0,0.0,0.0,0.0,0.0,0.0,0.0,0.0,0.0,0.0,0.0,0.0,0.0,0.0,0.0,0.0,0.0,0.0,0.0,0.0,0.0,0.0,0.0,0.0,0.0,0.0,0.0,0.0,0.0,0.0,0.0,0.0,0.0,0.0,0.0,0.0,0.0,0.0,0.0,0.0,0.0,0.0,0.0,0.0,0.0,0.0,0.0,0.0,0.0,0.0,0.0,0.0,0.0,0.0,0.0,0.0,0.0,0.0,0.0,0.0,0.0,0.0,0.0,0.0,0.0,0.0,0.0,0.0,0.0,0.0,0.0,0.0,0.0,0.0,0.0,-3.847,-3.9523,-4.0937,-4.2794,-4.256,-4.3259,-4.5797,-4.3811,-4.2713,-4.3358,0.0,0.0,0.0,0.0,0.0,0.0,0.0,0.0,0.0,0.0,0.0,0.0,0.0,0.0,0.0,0.0,0.0,0.0,0.0,0.0,0.0,0.0,0.0,0.0,0.0,0.0,0.0,0.0,0.0,0.0,0.0,0.0,0.0,0.0,0.0,0.0,0.0,0.0,0.0,0.0,0.0,0.0,0.0,0.0,0.0,0.0,0.0,0.0,0.0,0.0,0.0,0.0,0.0,0.0,0.0,0.0,0.0,0.0,0.0,0.0,-3.6731,-3.6285,0.0,0.0,0.0,0.0,0.0,0.0,0.0,0.0,0.0,0.0,0.0,0.0,0.0,0.0,0.0,0.0,0.0,0.0,0.0,0.0,0.0,0.0,0.0,0.0,0.0,0.0,0.0,0.0,0.0,0.0,0.0,0.0,0.0,0.0,0.0,0.0,0.0,0.0,0.0,0.0,-3.9255,-3.9926,-4.0991,-4.2864,-4.3645,-4.4575,-4.5908,-4.4909,-4.4005,-4.343,-4.2393,0.0,0.0,0.0,0.0,0.0,0.0,0.0,0.0,0.0,0.0,0.0,0.0,0.0,0.0,0.0,0.0,0.0,0.0,0.0,0.0,0.0,0.0,0.0,0.0,0.0,0.0,0.0,0.0,0.0,0.0,0.0,0.0,0.0,0.0,0.0,0.0,0.0,0.0,0.0,0.0,0.0,0.0,0.0,0.0,0.0,0.0,0.0,0.0,0.0,0.0,0.0,0.0,0.0,0.0,0.0,0.0,0.0,0.0,0.0,-3.8693,-3.8052,0.0,0.0,0.0,0.0,0.0,0.0,0.0,0.0,0.0,0.0,0.0,0.0,0.0,0.0,0.0,0.0,0.0,0.0,0.0,0.0,0.0,0.0,0.0,0.0,0.0,0.0,0.0,0.0,0.0,0.0,0.0,0.0,0.0,0.0,0.0,0.0,0.0,0.0,0.0,0.0,-4.017,-4.067,-4.1604,-4.3535,-4.4249,-4.4989,-4.5936,-4.4849,-4.4101,-4.4029,-4.2768,0.0,0.0,0.0,0.0,0.0,0.0,0.0,0.0,0.0,0.0,0.0,0.0,0.0,0.0,0.0,0.0,0.0,0.0,0.0,0.0,0.0,0.0,0.0,0.0,0.0,0.0,0.0,0.0,0.0,0.0,0.0,0.0,0.0,0.0,0.0,0.0,0.0,0.0,0.0,0.0,0.0,0.0,0.0,0.0,0.0,0.0,0.0,0.0,0.0,0.0,0.0,0.0,0.0,-4.1783,-4.183,-4.1866,-4.2811,-4.3213,-4.2996,-4.1034,-4.0355,-4.0637,-4.0607,0.0,0.0,0.0,0.0,0.0,0.0,0.0,0.0,0.0,0.0,0.0,0.0,0.0,0.0,0.0,0.0,0.0,0.0,0.0,0.0,0.0,0.0,-3.9377,-4.0126,-4.0765,-4.0857,-3.95,0.0,0.0,0.0,0.0,0.0,0.0,0.0,0.0,0.0,0.0,0.0,-4.1184,-4.1584,-4.2411,-4.4212,-4.4645,-4.5144,-4.5902,-4.4661,-4.4145,-4.4846,-4.3518,-4.2626,0.0,0.0,0.0,0.0,0.0,0.0,0.0,0.0,0.0,0.0,0.0,0.0,0.0,0.0,0.0,0.0,0.0,0.0,0.0,0.0,0.0,0.0,0.0,0.0,0.0,0.0,0.0,0.0,0.0,0.0,0.0,0.0,-3.2222,-3.2134,0.0,0.0,0.0,0.0,0.0,0.0,0.0,0.0,0.0,0.0,0.0,0.0,0.0,-4.0693,-4.0777,-4.1486,-4.1996,-4.2243,-4.3775,-4.4475,-4.4444,-4.5321,-4.5725,-4.5688,-4.5392,0.0,-4.2463,-4.2582,0.0,0.0,0.0,0.0,0.0,0.0,0.0,0.0,0.0,0.0,0.0,0.0,0.0,0.0,0.0,0.0,0.0,0.0,0.0,0.0,0.0,0.0,-4.1795,-4.25,-4.3212,-4.3774,-4.3943,-4.1852,-4.0056,-4.0702,-3.9644,-3.8899,0.0,0.0,0.0,0.0,0.0,0.0,-4.1987,-4.2484,-4.3079,-4.4251,-4.5132,-4.5722,-4.5905,-4.5699,-4.5635,-4.5712,-4.5506,-4.5336,-4.5179,-4.4508,0.0,0.0,0.0,0.0,0.0,0.0,0.0,0.0,0.0,0.0,0.0,0.0,0.0,0.0,0.0,0.0,0.0,0.0,0.0,0.0,0.0,0.0,0.0,0.0,0.0,0.0,0.0,0.0,0.0,-3.1692,-3.3182,-3.3339,-3.4465,-3.5318,0.0,0.0,0.0,0.0,0.0,0.0,0.0,0.0,0.0,-4.0404,-4.1973,-4.2885,-4.2955,-4.3724,-4.4163,-4.4342,-4.5217,-4.5549,-4.5515,-4.6537,-4.6942,-4.6872,-4.7974,-4.737,-4.5574,-4.5221,-4.4488,-4.3621,0.0,0.0,0.0,0.0,-4.2389,-4.2632,-4.2579,-4.2814,-4.3042,-4.2288,0.0,0.0,0.0,0.0,0.0,0.0,0.0,-4.1676,-4.125,-4.1895,-4.2827,-4.3453,-4.4061,-4.472,-4.5328,-4.4233,-4.3061,-4.261,-4.1641,-4.0892,-4.0903,-4.0667,0.0,0.0,0.0,-4.1444,-4.2957,-4.334,-4.3867,-4.4914,-4.5456,-4.5781,-4.5852,-4.5374,-4.5515,-4.6443,-4.6081,-4.5959,-4.6381,-4.561,-4.5147,0.0,0.0,0.0,0.0,0.0,0.0,0.0,0.0,0.0,0.0,0.0,0.0,0.0,0.0,0.0,0.0,0.0,0.0,0.0,0.0,0.0,0.0,0.0,0.0,0.0,0.0,0.0,0.0,-3.242,-3.371,-3.4196,-3.528,-3.6131,0.0,0.0,0.0,0.0,0.0,0.0,-3.977,-4.1323,-4.2154,-4.2192,-4.3604,-4.4481,-4.4634,-4.5474,-4.599,-4.6103,-4.6471,-4.6654,-4.6618,-4.746,-4.7901,-4.8125,-4.9527,-4.9631,-4.8692,-4.7648,-4.6573,-4.5648,-4.5648,-4.5259,-4.4724,-4.4888,-4.514,-4.5397,-4.5685,-4.5862,-4.5802,-4.4737,-4.4623,-4.4651,-4.3349,0.0,0.0,0.0,0.0,-4.2635,-4.2711,-4.3015,-4.3602,-4.4581,-4.4915,-4.5259,-4.6175,-4.6134,-4.555,-4.4344,-4.3379,-4.2595,-4.2063,-4.1711,0.0,-4.2043,-4.221,-4.2773,-4.4083,-4.4265,-4.4648,-4.5649,-4.5876,-4.5902,-4.5773,-4.5542,-4.5966,-4.724,-4.6915,-4.7036,-4.785,-4.7062,-4.654,-4.6348,0.0,0.0,0.0,0.0,0.0,0.0,0.0,0.0,0.0,0.0,0.0,0.0,0.0,0.0,0.0,0.0,0.0,0.0,0.0,0.0,0.0,0.0,0.0,0.0,0.0,0.0,0.0,0.0,0.0,-3.4576,-3.5744,0.0,0.0,0.0,0.0,-3.9438,-4.0228,-4.0775,-4.0891,-4.2388,-4.3286,-4.3483,-4.4402,-4.4875,-4.4988,-4.5952,-4.6593,-4.6752,-4.7752,-4.831,-4.8458,-4.8495,-4.9084,-4.9969,-5.0008,-5.0489,-5.1225,-4.9548,-4.7947,-4.6531,-4.6531,-4.6814,-4.7272,-4.7648,-4.7835,-4.7993,-4.8531,-4.8295,-4.7766,-4.7826,-4.7251,-4.647,-4.6313,-4.512,0.0,0.0,-4.3453,-4.3567,-4.4055,-4.4058,-4.448,-4.6541,-4.6286,-4.5947,-4.7311,-4.7139,-4.6535,-4.5883,-4.449,-4.3529,-4.3758,0.0,-4.165,-4.2672,-4.295,-4.3707,-4.5553,-4.5342,-4.5421,-4.6449,-4.6567,-4.6282,-4.5663,-4.7027,-4.7969,-4.8137,-4.8813,-4.9584,-5.047,-4.9701,-4.8836,-4.8081,-4.7195,0.0,0.0,0.0,0.0,0.0,0.0,0.0,0.0,0.0,0.0,0.0,0.0,0.0,0.0,0.0,0.0,0.0,0.0,0.0,0.0,0.0,0.0,0.0,0.0,0.0,0.0,0.0,0.0,-3.5564,-3.6831,0.0,-3.8825,-3.895,-3.9738,-4.1438,-4.1798,-4.2229,-4.2767,-4.4466,-4.5397,-4.5304,-4.6824,-4.7436,-4.7151,-4.7674,-4.7861,-4.7591,-4.8671,-4.9268,-4.9343,-4.9972,-5.0454,-5.0861,-5.1417,-5.1602,-5.1487,-5.1377,-5.0408,-4.9052,-4.9155,-4.921,-4.9262,-4.9467,-4.9936,-5.0509,-5.0781,-5.0533,-4.987,-4.8948,-4.7656,-4.6504,-4.6968,-4.6692,-4.6139,-4.587,-4.5844,-4.5865,-4.5693,-4.5444,-4.5473,-4.6539,-4.6372,-4.6313,-4.7319,-4.7482,-4.7357,-4.7305,-4.57,-4.4557,-4.5213,-4.4465,-4.4082,-4.5064,-4.5357,-4.5781,-4.6646,-4.6177,-4.6183,-4.722,-4.6844,-4.6658,-4.6988,-4.7604,-4.8199,-4.8739,-4.9104,-4.9662,-5.0545,-4.9221,-4.8375,-4.8143,-4.6271,-4.4623,0.0,0.0,0.0,0.0,0.0,0.0,0.0,0.0,0.0,0.0,0.0,0.0,0.0,0.0,0.0,0.0,0.0,0.0,0.0,0.0,0.0,0.0,0.0,0.0,0.0,-3.4273,-3.5464,-3.6673,-3.7882,-3.8948,-3.9747,-4.0083,-4.0927,-4.2636,-4.3032,-4.3533,-4.4349,-4.5888,-4.6829,-4.7026,-4.836,-4.8971,-4.8708,-4.8784,-4.8799,-4.8753,-4.9288,-4.9703,-5.0076,-5.0745,-5.1229,-5.1601,-5.2233,-5.2419,-5.2308,-5.2828,-5.2306,-5.118,-5.0987,-5.0994,-5.1078,-5.1286,-5.169,-5.2136,-5.1795,-5.166,-5.1364,-4.9822,-4.868,-4.7973,-4.8251,-4.806,-4.7727,-4.7532,-4.722,-4.6952,-4.6773,-4.621,-4.5955,-4.6775,-4.6519,-4.6378,-4.7219,-4.7529,-4.7699,-4.7829,-4.6612,-4.5663,-4.6323,-4.5842,-4.5611,-4.6335,-4.6861,-4.7297,-4.7504,-4.7208,-4.7214,-4.7908,-4.75,-4.7296,-4.7624,-4.7999,-4.8426,-4.9006,-4.9089,-4.9554,-5.0462,-4.9161,-4.8433,-4.851,-4.6078,-4.4307,-4.3231,0.0,0.0,0.0,0.0,0.0,0.0,0.0,0.0,0.0,0.0,0.0,0.0,0.0,0.0,0.0,0.0,0.0,0.0,0.0,0.0,0.0,0.0,0.0,-3.4353,-3.5205,-3.6356,-3.7861,-3.8853,-3.9734,-4.0666,-4.1386,-4.2106,-4.2894,-4.3838,-4.4751,-4.5598,-4.6552,-4.7578,-4.8675,-4.9011,-4.9292,-4.9531,-4.9145,-4.9372,-5.0192,-4.9591,-4.9793,-5.0765,-5.0765,-5.1363,-5.2336,-5.2416,-5.2936,-5.3714,-5.3907,-5.3497,-5.2678,-5.1858,-5.1971,-5.2642,-5.3069,-5.314,-5.2844,-5.1511,-5.1651,-5.2125,-5.0486,-5.0458,-5.0913,-5.0144,-4.9257,-4.8475,-4.8273,-4.743,-4.6727,-4.7272,-4.647,-4.5824,-4.7337,-4.6866,-4.6247,-4.7035,-4.7356,-4.7572,-4.7657,-4.7248,-4.69,-4.7093,-4.6471,-4.6065,-4.6345,-4.7318,0.0,-4.822,-4.8294,-4.8409,-4.8531,-4.8493,-4.818,-4.7541,-4.8226,-4.8745,-4.8905,-4.9005,-4.948,-5.044,-4.9656,-4.9217,-4.9201,-4.687,-4.4877,-4.3298,0.0,0.0,0.0,0.0,0.0,0.0,0.0,0.0,0.0,0.0,0.0,0.0,0.0,0.0,0.0,0.0,0.0,0.0,0.0,0.0,0.0,-3.334,-3.425,-3.4678,-3.6108,-3.7595,-3.9059,-4.0172,-4.1308,-4.2547,-4.2872,-4.3473,-4.4524,-4.5299,-4.5956,-4.6429,-4.7945,-4.8942,-4.9258,-5.0188,-5.0545,-5.0258,-5.0422,-5.0407,-5.0228,-5.0806,-5.1307,-5.1731,-5.2401,-5.2966,-5.3383,-5.3383,-5.3608,-5.3907,-5.3982,-5.3944,-5.3788,-5.2928,-5.2671,-5.286,-5.3103,-5.3515,-5.3784,-5.2799,-5.2606,-5.2564,-5.0936,-5.0522,-5.0498,-4.98,-4.9326,-4.9046,-4.8856,-4.8505,-4.819,-4.8015,-4.7518,-4.7156,-4.7342,-4.7044,-4.6802,-4.7196,-4.7363,-4.7572,-4.7819,-4.772,-4.7696,-4.7858,-4.7315,-4.7168,-4.7866,-4.8338,-4.8729,-4.8926,-4.8496,-4.8438,-4.9093,-4.8115,-4.7871,-4.8994,-4.8737,-4.8882,-4.9657,-4.9796,-4.9983,-5.0259,-4.9592,-4.8413,-4.6733,-4.5417,-4.4283,0.0,0.0,0.0,0.0,0.0,0.0,0.0,0.0,0.0,0.0,0.0,0.0,0.0,0.0,0.0,0.0,0.0,0.0,0.0,0.0,0.0,0.0,-3.515,-3.6032,-3.662,-3.7581,-3.8787,-4.0394,-4.1412,-4.2294,-4.3225,-4.3652,-4.4211,-4.4981,-4.5809,-4.6611,-4.7226,-4.8695,-4.9748,-5.0171,-5.0894,-5.1205,-5.1079,-5.1012,-5.1076,-5.1157,-5.1435,-5.1871,-5.2412,-5.2973,-5.3359,-5.36,-5.3678,-5.3832,-5.3944,-5.4019,-5.4128,-5.4233,0.0,0.0,0.0,0.0,-5.3859,-5.4196,-5.3297,-5.3259,-5.3256,-5.126,-5.0815,-5.0825,-4.9721,-4.9289,-4.916,-4.8993,-4.882,-4.8569,-4.8151,-4.7788,-4.7378,-4.688,-4.6883,-4.6936,-4.6757,-4.706,-4.7443,-4.7615,-4.7741,0.0,-4.7992,-4.7862,-4.7942,-4.8532,-4.8785,-4.8925,-4.9064,-4.8721,-4.8492,-4.8669,-4.7878,-4.7634,-4.8356,-4.7758,0.0,0.0,0.0,-4.9158,-4.9274,-4.9231,0.0,0.0,0.0,-4.4969,-4.384,-4.384,0.0,0.0,-4.2276,-4.2431,0.0,0.0,0.0,0.0,0.0,0.0,0.0,0.0,0.0,0.0,0.0,0.0,0.0,0.0,0.0,0.0,-3.744,-3.8689,-3.9468,-3.9487,-4.0061,-4.1722,-4.2332,-4.2856,-4.3339,-4.4057,-4.4541,-4.4912,-4.5836,-4.6886,-4.785,-4.8885,0.0,0.0,0.0,-5.1505,-5.1858,-5.1335,-5.1524,-5.248,-5.1756,-5.1928,-5.2806,-5.285,-5.3023,-5.3359,-5.3563,-5.3757,-5.3944,-5.4091,-5.4163,-5.4233,-5.4271,-5.4308,-5.4308,-5.4127,-5.4164,-5.4161,-5.3374,0.0,0.0,-5.1673,-5.1307,-5.1499,-5.0065,-4.9342,-4.8959,-4.8967,-4.8643,-4.8229,-4.7875,-4.7542,-4.7096,-4.6327,-4.6632,-4.6864,-4.6283,-4.6677,-4.7223,-4.7276,-4.7493,-4.7699,-4.7793,-4.8035,-4.8344,-4.8569,-4.875,-4.8855,-4.8855,-4.8855,-4.8558,-4.7776,-4.7731,0.0,-4.6881,-4.621,-4.6299,-4.7386,-4.7505,-4.7724,-4.814,-4.87,-4.8029,-4.5873,-4.6561,-4.6235,-4.4757,-4.4718,-4.4383,-4.3683,-4.4287,-4.453,0.0,0.0,0.0,0.0,0.0,0.0,0.0,0.0,0.0,0.0,0.0,0.0,0.0,0.0,0.0,-3.697,-3.8299,-3.9691,-4.1499,-4.214,-4.2264,-4.1874,-4.2261,-4.3115,-4.4549,-4.4984,-4.5318,-4.5637,-4.6657,-4.7417,-4.772,-4.8831,-4.987,-5.0694,-5.1158,-5.1556,-5.1758,-5.1958,-5.2196,-5.248,-5.2391,0.0,-5.2937,-5.3151,-5.3359,-5.3598,-5.3831,-5.3981,-5.4091,-5.42,-5.4273,-5.4271,-5.4308,-5.4308,-5.4308,-5.4127,-5.4092,-5.4019,-5.3758,-5.3833,-5.3869,-5.2675,-5.1966,-5.1519,-5.1183,-5.0038,0.0,-4.9418,-4.8934,-4.8148,-4.7907,-4.7615,-4.7284,-4.7096,-4.7115,-4.7143,-4.6999,-4.7071,-4.7223,-4.7276,-4.7363,-4.7493,-4.7752,-4.8032,-4.8304,-4.8494,-4.8532,-4.8606,-4.8642,-4.8678,-4.8345,-4.7531,-4.7564,-4.7698,-4.774,-4.7147,-4.7212,-4.8266,-4.7871,-4.7976,-4.8945,-4.7816,-4.7012,-4.6656,-4.6205,-4.5843,-4.5578,-4.5568,-4.5504,-4.5324,-4.416,-4.3663,0.0,0.0,0.0,0.0,0.0,0.0,0.0,0.0,0.0,0.0,0.0,-3.4,-3.5156,0.0,-3.7748,-3.9314,-4.0322,-4.1362,-4.2871,-4.3384,-4.352,-4.3392,-4.367,-4.4273,-4.5341,-4.5284,-4.548,-4.6235,-4.6556,-4.7146,-4.8217,-4.891,-4.9707,-5.0659,-5.1123,-5.147,-5.1808,-5.2102,-5.2376,-5.248,-5.248,-5.2845,-5.3478,-5.3207,-5.3456,-5.4189,-5.4017,-5.3981,-5.4163,-5.4306,-5.4343,-5.4308,-5.4235,-5.4164,-5.4091,-5.3643,-5.3682,-5.3944,-5.3497,-5.3683,-5.3906,-5.3086,-5.2526,-5.2041,-5.1078,-5.0082,-4.927,-4.9007,-4.8517,-4.7947,-4.7699,-4.745,-4.7168,-4.6685,-4.6811,-4.6981,-4.6588,-4.6757,-4.7043,-4.7143,-4.7187,-4.732,-4.7621,-4.7866,-4.8145,-4.8304,-4.8381,-4.8381,-4.8306,-4.8344,-4.8126,-4.7316,-4.7422,-4.7482,-4.7303,-4.717,-4.7579,-4.8602,-4.7998,-4.7899,-4.852,-4.7394,-4.6608,-4.6309,-4.5896,-4.575,-4.5781,-4.581,-4.5786,-4.5761,-4.4989,-4.4628,0.0,0.0,0.0,0.0,0.0,0.0,0.0,-3.1021,-3.2106,-3.2958,-3.4332,-3.5872,-3.733,-3.8446,-3.9699,-4.1453,-4.2333,-4.3019,-4.3763,-4.4193,-4.4601,-4.5142,-4.5212,-4.5341,-4.5824,-4.5483,-4.5718,-4.6709,-4.6302,-4.6794,-4.8564,-4.8756,-4.9403,-5.0714,-5.107,-5.1434,-5.1907,-5.215,-5.2448,-5.2733,-5.264,-5.3179,-5.4191,-5.3616,-5.3842,-5.4663,-5.4088,-5.3944,-5.4125,-5.4268,-5.4271,-5.4164,-5.4055,-5.3981,-5.3907,-5.3309,-5.3496,-5.3907,-5.3309,-5.3568,-5.4015,-5.3379,-5.308,-5.2671,-5.1266,-5.0379,-4.9676,-4.8891,-4.8324,-4.7861,-4.745,-4.7471,-4.7312,-4.6302,-4.6686,-4.7043,-4.6167,-4.6504,-4.7002,-4.6952,-4.7196,-4.7402,-4.7486,-4.7699,-4.7984,-4.8148,-4.819,-4.819,-4.8032,-4.8148,-4.7897,-4.7167,-4.7462,-4.7485,-4.6936,-4.7229,-4.7813,-4.8732,-4.8022,-4.7785,-4.8154,-4.7452,-4.6703,-4.5945,-4.5918,-4.5951,-4.5997,-4.6036,-4.6027,-4.6056,-4.6211,-4.6162,-2.2911,-2.391,-2.5227,-2.6339,-2.7763,-2.9048,0.0,-3.1633,-3.3036,-3.2929,-3.5337,-3.7545,-3.7879,-3.9719,-4.1388,-4.2197,-4.3255,-4.4131,-4.452,-4.5302,-4.5857,-4.5929,-4.5262,-4.5114,-4.5995,-4.6452,-4.6802,-4.7058,-4.6663,-4.6929,-4.8099,-4.79,-4.8571,-5.055,-5.1017,-5.1434,-5.1907,-5.215,-5.2737,-5.3566,-5.366,-5.4199,-5.5067,-5.5221,-5.5073,-5.4663,-5.4203,-5.3944,-5.3944,-5.3981,-5.3982,-5.3832,-5.3832,-5.3832,-5.3832,-5.387,-5.3907,-5.3982,-5.3944,-5.4054,-5.4235,-5.4161,-5.3564,-5.297,-5.3385,-5.1825,-4.9934,-5.0248,-4.9168,-4.7911,-4.7699,-4.8114,-4.8271,-4.7295,-4.7689,-4.8012,-4.6766,-4.7145,-4.7595,-4.6966,-4.744,-4.7875,-4.7551,-4.7699,-4.7943,-4.7992,-4.8032,-4.8032,-4.7992,-4.8148,-4.7895,-4.709,-4.7905,-4.8303,-4.7953,-4.8093,-4.8362,-4.8745,-4.8022,-4.8037,-4.9022,-4.8276,-4.753,-4.6778,-4.6793,-4.6771,-4.6771,-4.686,-4.6877,-4.6877,-4.7658,-4.7255,-2.3537,-2.435,-2.5589,-2.7138,-2.8275,-2.9499,-3.1344,-3.2646,-3.3886,-3.5272,-3.6988,-3.8498,-3.9387,-4.0992,-4.2328,-4.2767,-4.3894,-4.4841,-4.5132,-4.5706,-4.5953,-4.5508,-4.5672,-4.6015,-4.6543,-4.6618,-4.6815,-4.7406,-4.6662,-4.6898,-4.8382,-4.8158,-4.869,-5.0307,-5.091,-5.1331,-5.1658,-5.2054,-5.2726,-5.358,-5.3722,-5.4517,-5.5869,-5.5615,-5.522,-5.4781,-5.4088,-5.3794,-5.3832,-5.3717,-5.3717,-5.3794,-5.3754,-5.3754,-5.3757,-5.3386,-5.3572,-5.3944,-5.3533,-5.3753,-5.4271,-5.42,-5.3938,-5.3566,-5.3274,-5.2308,-5.1266,-5.0725,-5.0008,-4.9336,-4.9075,-4.9197,-4.9253,-4.8657,-4.879,-4.8793,-4.8103,-4.8134,-4.8275,-4.8055,-4.8069,-4.8079,-4.7985,-4.7818,-4.7657,-4.7621,-4.7788,-4.7907,-4.7866,-4.7947,-4.7999,-4.7941,-4.8457,-4.8776,-4.8834,-4.8889,-4.9077,-4.9359,-4.8617,-4.8427,-4.8984,-4.8302,-4.7775,-4.753,-4.7088,-4.6855,-4.6835,-4.6425,-4.6513,-4.7063,-4.7442,-4.7526,-2.4062,-2.471,-2.5812,-2.7686,-2.89,-3.0208,-3.2447,-3.3757,-3.503,-3.7016,-3.8215,-3.9377,-4.0529,-4.1852,-4.2891,-4.3502,-4.4489,-4.5278,-4.5573,-4.5706,-4.5603,-4.5132,-4.5603,-4.6099,-4.65,-4.6647,-4.6947,-4.7538,-4.6744,-4.6924,-4.8509,-4.8301,-4.8802,-5.0137,-5.0749,-5.1175,-5.1556,-5.2171,-5.2967,-5.3857,-5.4218,-5.5207,-5.666,-5.6045,-5.5551,-5.5114,-5.4303,-5.4044,-5.4306,-5.3964,-5.4041,-5.4346,-5.4121,-5.4049,-5.4017,-5.3349,-5.346,-5.3981,-5.3456,-5.3527,-5.3899,-5.4088,-5.3977,-5.3716,-5.3125,-5.2716,-5.2153,-5.1283,-5.0707,-5.0314,-5.0009,-5.0101,-5.0118,-4.9543,-4.9508,-4.947,-4.8912,-4.8952,-4.9023,-4.8926,-4.8661,-4.8389,-4.8325,-4.7823,-4.7407,-4.732,-4.7572,-4.7699,-4.7657,-4.7783,-4.8068,-4.8495,-4.8714,-4.8925,-4.9257,-4.9321,-4.9476,-4.975,-4.9257,-4.9074,-4.9272,-4.877,-4.8455,-4.8332,-4.7779,-4.7453,-4.7453,-4.6932,-4.7024,-4.7725,-4.7973,-4.823,-2.3775,-2.4385,-2.5454,-2.7434,-2.9325,-3.1141,-3.2707,-3.4831,-3.6565,-3.6994,-3.8643,-4.0256,-4.0856,-4.2107,-4.3349,-4.4389,-4.4799,-4.5173,-4.5968,-4.5476,-4.5101,-4.5277,-4.4701,-4.4641,-4.5552,-4.6776,-4.737,-4.7267,-4.7012,-4.7237,-4.8161,-4.8029,-4.8626,-5.0045,-5.0474,-5.0964,-5.1708,-5.2609,-5.3598,-5.4639,-5.5692,-5.6552,-5.7351,-5.6932,-5.6389,-5.5711,-5.4991,-5.5059,-5.5675,-5.4991,-5.5143,-5.5771,-5.5118,-5.4865,-5.4871,-5.4205,-5.4018,-5.4091,-5.4235,-5.3709,-5.3184,-5.4008,-5.3568,-5.2901,-5.3721,-5.3199,-5.2299,-5.2106,-5.1271,-5.0314,-5.0177,-5.0579,-5.071,-4.9447,-4.9791,-5.0097,-4.8764,-4.9325,-4.9847,-4.9068,-4.9088,-4.9032,-4.8432,-4.7734,-4.732,-4.732,-4.732,-4.7363,-4.7493,-4.7788,-4.8072,-4.8306,-4.8495,-4.8714,-4.889,-4.916,-4.9415,-4.9692,-4.9797,-4.9974,-5.0259,-5.0245,-4.987,-4.9196,-4.9158,-4.912,-4.912,-4.9081,-4.914,-4.9239,-5.0163,-4.9809,-2.4437,-2.5701,-2.7557,-2.969,-3.1284,-3.2884,-3.4806,-3.5814,-3.6713,-3.806,-3.8265,-3.8616,-3.9524,-4.0234,-4.1015,-4.2076,-4.3288,-4.4378,-4.5332,-4.5642,-4.5489,-4.4941,-4.5105,-4.5236,-4.521,-4.5859,-4.6475,-4.6997,-4.7074,-4.7375,-4.8033,-4.8748,-4.9372,-4.9791,-5.1315,-5.2102,-5.2042,-5.3139,-5.4184,-5.5179,-5.6328,-5.7133,-5.7679,-5.7061,-5.6675,-5.6426,-5.5537,-5.5354,-5.5655,-5.5192,-5.5361,-5.5881,-5.5665,-5.5384,-5.5099,-5.4951,-5.4576,-5.4235,-5.4308,-5.4153,-5.4029,-5.4231,-5.4048,-5.3753,-5.3944,-5.3645,-5.3151,-5.2835,-5.2443,-5.2047,-5.1683,-5.1633,-5.1587,-5.0959,-5.0815,-5.0664,-5.0047,-5.0187,-5.0346,-5.0066,-4.9584,-4.9052,-4.8733,-4.7725,-4.6962,-4.687,-4.7098,-4.7363,-4.745,-4.7699,-4.7907,-4.8226,-4.8419,-4.8605,-4.8855,-4.9131,-4.9289,-4.9476,-4.9692,-4.9862,-5.0012,-5.0063,-5.0024,-4.9792,-4.9328,-4.9045,-4.9022,-4.8597,-4.8698,-4.9255,-4.9663,-4.9963,-2.5734,-2.7241,-2.9221,-3.1772,-3.3206,-3.4449,-3.604,-3.6753,-3.7182,-3.7847,-3.7844,-3.7785,-3.8323,-3.8765,-3.9471,-4.0801,-4.2028,-4.3303,-4.4893,-4.5334,-4.5341,-4.5142,-4.5239,-4.5338,-4.5276,-4.5497,-4.5943,-4.6759,-4.7257,-4.7694,-4.8133,-4.9092,-4.9767,-4.9941,-5.1581,-5.2376,-5.2216,-5.3673,-5.4919,-5.5953,-5.6768,-5.7143,-5.7182,-5.7058,-5.6895,-5.6612,-5.6008,-5.6017,-5.6365,-5.5898,-5.6116,-5.6768,-5.6472,-5.601,-5.5583,-5.5361,-5.4838,-5.4237,-5.4271,-5.4187,-5.3924,-5.4123,-5.3904,-5.3571,-5.3758,-5.3716,-5.3518,-5.3235,-5.2846,-5.2368,-5.1999,-5.1718,-5.1526,-5.118,-5.1051,-5.0964,-5.064,-5.064,-5.0694,-5.0784,-4.9783,-4.8926,-4.8891,-4.7665,-4.6791,-4.6979,-4.7094,-4.7187,-4.7407,-4.7615,-4.7824,-4.8108,-4.8304,-4.8532,-4.8785,-4.8959,-4.916,-4.9352,-4.9506,-4.9721,-4.9879,-4.9933,-4.9986,-5.0127,-4.963,-4.9387,-4.9338,-4.9289,-4.9532,-5.0134,-5.0606,-5.118,-2.7698,-2.885,-3.0491,-3.3752,-3.5046,-3.5776,-3.6523,-3.7494,-3.7791,-3.6682,-3.7223,-3.7784,-3.719,-3.7681,-3.8737,-4.0535,-4.1138,-4.2231,-4.4668,-4.4596,-4.4709,-4.5659,-4.5107,-4.4911,-4.5791,-4.5685,-4.5938,-4.6647,-4.7642,-4.8241,-4.8376,-4.9194,-4.9816,-5.0323,-5.1242,-5.1948,-5.2322,-5.4296,-5.5758,-5.6812,-5.6969,-5.6638,-5.6102,-5.7011,-5.7037,-5.6441,-5.6441,-5.6937,-5.7737,-5.6969,-5.7299,-5.8319,-5.7507,-5.6821,-5.6283,-5.5583,-5.4801,-5.4168,-5.4418,-5.3821,-5.3045,-5.3683,-5.3237,-5.2601,-5.3299,-5.34,-5.3277,-5.323,-5.2395,-5.1515,-5.123,-5.0915,-5.053,-5.0063,-5.0506,-5.0981,-5.0675,-5.0694,-5.0838,-5.0981,-4.9766,-4.8725,-4.8806,-4.7581,-4.6873,-4.7687,-4.7216,-4.6916,-4.7232,-4.7529,-4.7783,-4.7951,-4.819,-4.8382,-4.8569,-4.8785,-4.9027,-4.9289,-4.9384,-4.9596,-4.9906,-4.9906,-4.9959,-5.0089,-5.0127,-5.0063,-5.0063,-5.104,-5.1558,-5.1714,-5.2735,-5.3321,-2.9486,-3.1333,-3.3252,-3.5831,-3.6765,-3.7039,-3.7337,-3.7414,-3.723,-3.6676,-3.6166,-3.5675,-3.5334,-3.646,-3.7653,-3.8322,-4.0548,-4.2788,-4.4346,-4.5144,-4.5661,-4.5821,-4.5559,-4.5653,-4.65,-4.6218,-4.666,-4.8311,-4.8404,-4.8715,-4.9444,-5.0591,-5.1226,-5.1201,-5.295,-5.3927,-5.3873,-5.5454,-5.6385,-5.6653,-5.6812,-5.6861,-5.6899,-5.7266,-5.7279,-5.7146,-5.7146,-5.7352,-5.7631,-5.7412,-5.7721,-5.8223,-5.8002,-5.7587,-5.7175,-5.6871,-5.632,-5.577,-5.5731,-5.4876,-5.3829,-5.3833,-5.3607,-5.3304,-5.3326,-5.3277,-5.3151,-5.2937,-5.2258,-5.1565,-5.1682,-5.0959,-5.0323,-5.0488,-5.0589,-5.0453,-5.0171,-5.0285,-5.0453,-5.0228,-4.909,-4.8032,-4.7681,-4.6786,-4.6449,-4.7392,-4.7121,-4.687,-4.7053,-4.7276,-4.7536,-4.7793,-4.8151,-4.8382,-4.8569,-4.8892,-4.9197,-4.9499,-4.9608,-4.9857,-5.0183,-5.0114,-5.0089,-5.0163,-5.0012,-4.9933,-4.9933,-5.099,-5.1509,-5.1596,-5.2653,-5.3302,-3.1527,-3.3392,-3.5136,-3.7154,-3.7573,-3.7532,-3.7281,-3.7331,-3.6962,-3.5462,-3.5227,-3.4995,-3.3945,-3.5007,-3.6327,-3.7261,-3.9627,-4.2,-4.3843,-4.4985,-4.5713,-4.5966,-4.6325,-4.6749,-4.7206,-4.7387,-4.8071,-4.9563,-4.931,-4.9458,-5.034,-5.1292,-5.1866,-5.2013,-5.3652,-5.4699,-5.534,-5.6078,-5.6546,-5.66,-5.676,-5.6881,-5.7087,-5.7289,-5.7338,-5.7289,-5.7388,-5.7437,-5.7486,-5.7583,-5.781,-5.8133,-5.826,-5.7876,-5.7307,-5.7307,-5.6829,-5.6166,-5.6043,-5.5495,-5.4797,-5.4269,-5.4078,-5.3883,-5.3304,-5.3066,-5.298,-5.2761,-5.2126,-5.1484,-5.1455,-5.0901,-5.0252,-5.0348,-5.0484,-5.0509,-5.0114,-5.0228,-5.0167,-4.9193,-4.8474,-4.7803,-4.7195,-4.6428,-4.6234,-4.7156,-4.6892,-4.6684,-4.6906,-4.7143,-4.7414,-4.7834,-4.8072,-4.8382,-4.8783,-4.8993,-4.9283,-4.9749,-4.9857,-4.9999,-5.0298,-5.0125,-5.0089,-5.0188,-4.9959,-4.9917,-4.9933,-5.1345,-5.2018,-5.2155,-5.3612,-5.4341,-3.3679,-3.5094,-3.6559,-3.7899,-3.7917,-3.7517,-3.6882,-3.7043,-3.6613,-3.3983,-3.4577,-3.4942,-3.303,-3.3706,-3.5202,-3.6926,-3.882,-4.0863,-4.3321,-4.451,-4.538,-4.6198,-4.6981,-4.7541,-4.7637,-4.8706,-4.9668,-5.0497,-5.0163,-5.0343,-5.1098,-5.1727,-5.2336,-5.3083,-5.3922,-5.4944,-5.6328,-5.6383,-5.6437,-5.66,-5.6707,-5.6812,-5.6933,-5.742,-5.7506,-5.7369,-5.747,-5.752,-5.7533,-5.7571,-5.7726,-5.7997,-5.826,-5.7906,-5.7242,-5.7371,-5.6884,-5.6208,-5.6043,-5.6086,-5.6061,-5.4975,-5.4564,-5.4301,-5.3259,-5.287,-5.2717,-5.2627,-5.2037,-5.1321,-5.1023,-5.07,-5.0332,-4.996,-5.0328,-5.071,-5.0263,-5.0228,-4.9777,-4.8176,-4.7885,-4.775,-4.7091,-4.6325,-4.6082,-4.7054,-4.6745,-4.6542,-4.6778,-4.7098,-4.7493,-4.7911,-4.8032,-4.8383,-4.9019,-4.9118,-4.9424,-4.9999,-5.0024,-5.0159,-5.0363,-5.0111,-5.0012,-5.0212,-4.9906,-4.9862,-4.9986,-5.1661,-5.2616,-5.2962,-5.4649,-5.563,-3.5114,-3.6528,-3.7625,-3.8096,-3.7776,-3.728,-3.7111,-3.6109,-3.5096,-3.4535,-3.4174,-3.3689,-3.2669,-3.4026,-3.5714,-3.6858,-3.9456,-4.1814,-4.3479,-4.4812,-4.5809,-4.608,-4.6135,-4.6525,-4.7525,-4.8698,-4.9969,-5.1316,-5.1165,-5.1263,-5.2037,-5.2738,-5.3545,-5.4599,-5.5144,-5.568,-5.6253,-5.6253,-5.6308,-5.6437,-5.6437,-5.6546,-5.6742,-5.7995,-5.8352,-5.8047,-5.8047,-5.8202,-5.8333,-5.7728,-5.7583,-5.7857,-5.7997,-5.806,-5.7994,-5.7913,-5.7839,-5.7773,-5.751,-5.7638,-5.7516,-5.5912,-5.4869,-5.4195,-5.3872,-5.3217,-5.2526,-5.2387,-5.1715,-5.1059,-5.1315,-5.0693,-5.0065,-5.0344,-5.046,-5.0397,-5.0057,-4.9767,-4.9203,-4.7842,-4.7477,-4.7258,-4.7039,-4.6222,-4.603,-4.7156,-4.6892,-4.6637,-4.6952,-4.7143,-4.7407,-4.7741,-4.8231,-4.8676,-4.8915,-4.9333,-4.983,-5.0298,-5.032,-5.0486,-5.0756,-5.0363,-5.0159,-5.0183,-4.9879,-4.9807,-4.9906,-5.1116,-5.2131,-5.2924,-5.4079,-5.5073,-3.5911,-3.7006,-3.7939,-3.8304,-3.7658,-3.6905,-3.7013,-3.5812,-3.4525,-3.3921,-3.3451,-3.2946,-3.2364,-3.3472,-3.4805,-3.5859,-3.8269,-4.0622,-4.2365,-4.3457,-4.4466,-4.551,-4.5887,-4.6433,-4.749,-4.8679,-5.0005,-5.1247,-5.1532,-5.1855,-5.2494,-5.3956,-5.4844,-5.5113,-5.5918,-5.6246,-5.6049,-5.6049,-5.6375,-5.7025,-5.6597,-5.6706,-5.7317,-5.8123,-5.8408,-5.8211,-5.8697,-5.8782,-5.8587,-5.8187,-5.7935,-5.781,-5.795,-5.8042,-5.8088,-5.8088,-5.8042,-5.795,-5.7726,-5.781,-5.7711,-5.6802,-5.5752,-5.47,-5.4109,-5.3271,-5.2434,-5.2376,-5.1993,-5.1634,-5.1551,-5.1118,-5.0699,-5.0515,-5.0228,-4.9884,-4.9825,-4.953,-4.8967,-4.7729,-4.742,-4.7099,-4.6307,-4.5875,-4.584,-4.6545,-4.6597,-4.6637,-4.7043,-4.7371,-4.7752,-4.8035,-4.8384,-4.8813,-4.9295,-4.9655,-5.0062,-5.0486,-5.0527,-5.0625,-5.0846,-5.0385,-5.0159,-5.0206,-4.9879,-4.9807,-4.9933,-5.0964,-5.1978,-5.2947,-5.392,-5.4895,-3.6276,-3.7099,-3.8069,-3.8103,-3.7407,-3.6766,-3.6824,-3.5607,-3.4332,-3.3594,-3.3006,-3.2496,-3.2185,-3.2783,-3.3743,-3.5073,-3.6863,-3.8825,-4.0931,-4.1945,-4.3002,-4.4533,-4.5397,-4.6171,-4.7069,-4.8529,-4.9823,-5.0895,-5.1743,-5.242,-5.2909,-5.4655,-5.5598,-5.5418,-5.6199,-5.6482,-5.6374,-5.5963,-5.6383,-5.7504,-5.7204,-5.7243,-5.7711,-5.8484,-5.87,-5.8358,-5.9275,-5.9398,-5.8987,-5.8587,-5.8154,-5.781,-5.795,-5.7997,-5.7997,-5.8088,-5.7997,-5.781,-5.7583,-5.7583,-5.7583,-5.7437,-5.6551,-5.5377,-5.4464,-5.3432,-5.2604,-5.2365,-5.2198,-5.2005,-5.1556,-5.1402,-5.1158,-5.0453,-4.9884,-4.953,-4.959,-4.9214,-4.8617,-4.7638,-4.7317,-4.6824,-4.5665,-4.5632,-4.5752,-4.6055,-4.6315,-4.6637,-4.7133,-4.7627,-4.8078,-4.8458,-4.8639,-4.9011,-4.9749,-4.9987,-5.0252,-5.0567,-5.0682,-5.072,-5.0756,-5.0342,-5.0135,-5.0197,-4.9879,-4.9807,-4.9933,-5.0938,-5.1953,-5.2985,-5.3874,-5.4809,-3.5948,-3.7157,-3.8246,-3.7008,-3.6989,-3.7177,-3.7046,-3.537,-3.4061,-3.4729,-3.3455,-3.2228,-3.252,-3.2709,-3.342,-3.5321,-3.635,-3.7545,-3.9556,-4.1061,-4.2227,-4.3107,-4.4082,-4.5029,-4.5887,-4.7829,-4.9457,-5.0495,-5.2094,-5.3179,-5.3617,-5.4244,-5.5098,-5.6071,-5.5844,-5.6304,-5.7786,-5.6329,-5.6129,-5.7335,-5.8445,-5.8089,-5.6664,-5.9701,-6.0208,-5.8677,-5.949,-6.007,-6.0362,-5.8377,-5.7655,-5.781,-5.795,-5.7997,-5.7997,-5.7904,-5.781,-5.7726,-5.7486,-5.7486,-5.7583,-5.7437,-5.6855,-5.5982,-5.5134,-5.4134,-5.3086,-5.2366,-5.1858,-5.1505,-5.1193,-5.0999,-5.0694,-5.008,-4.9825,-4.959,-4.929,-4.8599,-4.7886,-4.7329,-4.6669,-4.6117,-4.5823,-4.5854,-4.602,-4.635,-4.659,-4.687,-4.7133,-4.7627,-4.8157,-4.8813,-4.924,-4.9579,-4.9776,-5.0197,-5.0483,-5.0587,-5.0682,-5.0701,-5.0701,-5.032,-5.0087,-5.0114,-4.9862,-4.975,-4.9835,-5.0938,-5.1953,-5.2829,-5.3866,-5.4718,-3.5978,-3.7222,-3.7949,-3.7137,-3.7043,-3.6855,-3.5712,-3.4551,-3.3728,-3.3608,-3.2557,-3.1573,-3.1155,-3.1119,-3.1797,-3.3733,-3.4214,-3.5096,-3.711,-3.8102,-3.9357,-4.1245,-4.2258,-4.3532,-4.5294,-4.6799,-4.8602,-5.0806,-5.2194,-5.3213,-5.3849,-5.5434,-5.6304,-5.621,-5.7017,-5.7588,-5.7851,-5.7132,-5.7193,-5.8224,-5.833,-5.8591,-5.9041,-5.9786,-5.9737,-5.9259,-6.0403,-6.0738,-6.0389,-5.9051,-5.8137,-5.7583,-5.7715,-5.7763,-5.781,-5.7904,-5.781,-5.7631,-5.7534,-5.7437,-5.7338,-5.7188,-5.687,-5.635,-5.5281,-5.4097,-5.2924,-5.2122,-5.1622,-5.1263,-5.0892,-5.0397,-4.9907,-4.9555,-4.9256,-4.9073,-4.9018,-4.8658,-4.8281,-4.7835,-4.7227,-4.6589,-4.6163,-4.6395,-4.6479,-4.6189,-4.6883,-4.7404,-4.7205,-4.8316,-4.927,-4.9728,-4.9671,-4.9731,-5.0025,-5.0329,-5.0521,-5.0525,-5.0644,-5.0606,-5.0423,-5.0135,-4.991,-4.9787,-4.9625,-4.986,-5.0525,-5.1033,-5.2056,-5.3569,-5.3951,-5.4574,-3.5838,-3.6996,-3.7652,-3.6887,-3.665,-3.6248,-3.4996,-3.4309,-3.3849,-3.3366,-3.2167,-3.0974,-3.0298,-3.0163,-3.0695,-3.2261,-3.2692,-3.3378,-3.5053,-3.5927,-3.7215,-3.9507,-4.071,-4.2273,-4.4573,-4.6528,-4.8627,-5.1041,-5.2294,-5.3179,-5.3783,-5.5681,-5.6591,-5.6147,-5.7492,-5.8101,-5.7666,-5.7506,-5.7841,-5.8545,-5.8369,-5.8941,-6.02,-5.987,-5.9811,-6.0,-6.1013,-6.0954,-5.9977,-5.8947,-5.8109,-5.7388,-5.7583,-5.7667,-5.7704,-5.7857,-5.7847,-5.7644,-5.7571,-5.7338,-5.7087,-5.6984,-5.6829,-5.6455,-5.5194,-5.4072,-5.2993,-5.2141,-5.1405,-5.0803,-5.0418,-4.9849,-4.935,-4.9135,-4.8889,-4.8798,-4.8769,-4.8495,-4.8146,-4.7844,-4.7101,-4.652,-4.6378,-4.6741,-4.6933,-4.6525,-4.7272,-4.7807,-4.7471,-4.8852,-4.9893,-5.0076,-5.0342,-5.0589,-5.0937,-5.068,-5.0615,-5.0845,-5.0758,-5.0525,-5.0206,-5.0266,-5.0069,-4.9588,-4.9732,-5.0184,-5.0929,-5.1272,-5.2341,-5.3937,-5.4204,-5.4828,-3.5305,-3.6614,-3.725,-3.5735,-3.5563,-3.5642,-3.5429,-3.4936,-3.4593,-3.494,-3.2665,-3.0591,-3.04,-3.0376,-3.0691,-3.1501,-3.2246,-3.2996,-3.3851,-3.505,-3.6343,-3.789,-3.961,-4.1571,-4.3623,-4.7277,-4.9965,-5.09,-5.2191,-5.3041,-5.3349,-5.4498,-5.5372,-5.5888,-5.6843,-5.7289,-5.7318,-5.7444,-5.7604,-5.7825,-5.8748,-5.9082,-5.8991,-6.02,-6.0843,-6.1058,-6.1106,-6.0394,-5.9114,-5.7789,-5.7325,-5.7437,-5.7679,-5.7836,-5.7813,-5.7799,-5.7777,-5.7764,-5.746,-5.7239,-5.6984,-5.6865,-5.66,-5.6185,-5.5056,-5.4221,-5.3441,-5.2644,-5.1325,-5.0114,-4.9825,-4.9471,-4.9107,-4.8765,-4.8861,-4.8956,-4.8832,-4.7747,-4.6878,-4.6961,-4.5908,-4.5343,-4.6301,-4.6899,-4.7261,-4.7477,-4.7758,-4.7946,-4.7907,-4.897,-4.9705,-4.9634,-5.1375,-5.2615,-5.2766,-5.1392,-5.0845,-5.165,-5.1065,-5.0525,-5.0206,-5.0901,-5.0703,-4.9529,-5.0365,-5.0785,-5.0723,-5.1819,-5.2798,-5.3631,-5.4638,-5.5569,-3.3456,-3.4605,-3.5251,-3.4455,-3.4905,-3.5192,-3.3895,-3.3667,-3.3441,-3.2228,-3.0505,-2.947,-3.0499,-2.9722,-2.9551,-3.1455,-3.1602,-3.1864,-3.2781,-3.4478,-3.6077,-3.7252,-4.0707,-4.3605,-4.5205,-4.7955,-4.9768,-5.0208,-5.1924,-5.3041,-5.3349,-5.4464,-5.5272,-5.5662,-5.6616,-5.7161,-5.7318,-5.7625,-5.8345,-5.9383,-5.9475,-5.9545,-5.9721,-6.0132,-6.0377,-6.0427,-6.0906,-5.9833,-5.7783,-5.7009,-5.6881,-5.7257,-5.7347,-5.7361,-5.742,-5.7534,-5.7595,-5.7543,-5.7361,-5.7036,-5.6707,-5.66,-5.6273,-5.5844,-5.518,-5.4231,-5.2986,-5.1354,-5.0402,-4.9767,-4.9471,-4.9107,-4.8765,-4.842,-4.8483,-4.8673,-4.861,-4.8489,-4.8429,-4.8369,-4.7665,-4.7079,-4.6987,-4.7686,-4.7857,-4.6665,-4.8226,-4.9185,-4.8246,-5.0094,-5.1491,-5.1548,-5.2719,-5.3072,-5.2054,-5.1576,-5.1414,-5.1667,-5.1523,-5.0993,-4.9962,-5.125,-5.1366,-5.0052,-5.0904,-5.1682,-5.2344,-5.2768,-5.3527,-5.4451,-5.5307,-5.6201,-3.1551,-3.293,-3.382,-3.3241,-3.393,-3.4358,-3.3126,-3.2849,-3.2246,-3.0543,-2.9451,-2.8969,-2.9692,-2.9247,-2.9161,-3.0524,-3.081,-3.1205,-3.2307,-3.38,-3.5609,-3.7699,-4.149,-4.4427,-4.5873,-4.8045,-4.9627,-5.0171,-5.145,-5.2533,-5.3145,-5.3754,-5.4324,-5.4892,-5.6387,-5.6893,-5.6229,-5.7086,-5.7741,-5.8223,-5.9172,-5.9791,-6.0107,-6.007,-6.0104,-6.0107,-5.9531,-5.8534,0.0,-5.6617,-5.6616,-5.6903,-5.7,-5.7102,-5.7246,-5.7424,-5.7411,-5.721,-5.7,-5.6776,-5.6527,-5.6324,-5.5905,-5.5339,-5.5018,-5.3938,-5.2392,-5.0794,-4.9855,-4.9256,-4.9107,-4.8765,-4.845,-4.8227,-4.8356,-4.8547,-4.861,-4.8596,-4.8477,-4.8206,-4.7971,-4.7636,-4.7284,-4.8217,-4.8622,-4.7422,-4.8988,-5.0031,-4.9181,-5.0908,-5.2308,-5.2498,-5.361,-5.3872,-5.2627,-5.2012,-5.1852,-5.2187,-5.1924,-5.1308,-5.0258,-5.1888,-5.2001,-5.0226,-5.1409,-5.2404,-5.3031,-5.3499,-5.4231,-5.5158,-5.6021,-5.6884,0.0,-3.1556,-3.2848,-3.2309,-3.2713,-3.3241,-3.3213,-3.234,0.0,-2.9958,-2.9351,-2.8927,-2.8393,-2.8872,-2.9254,-2.9053,-2.9902,-3.1034,-3.2379,-3.3353,-3.5337,-3.9116,-4.1906,-4.4161,-4.5687,-4.779,-4.9466,-5.0478,-5.09,-5.1652,-5.2733,-5.2472,-5.2704,-5.3615,-5.5953,-5.6353,-5.4465,-5.5934,-5.6072,-5.4977,-5.7856,-5.946,-5.9769,-5.9769,-5.9774,-5.9645,-5.737,-5.6644,-5.7077,-5.6653,-5.6436,-5.6436,-5.6696,-5.6993,-5.7224,-5.7484,-5.7224,-5.6701,-5.6632,-5.6474,-5.6344,-5.6104,-5.5523,-5.4903,-5.4557,-5.3329,-5.1809,-5.0769,-4.965,-4.8702,-4.8702,-4.845,-4.8227,-4.8227,-4.8356,-4.8547,-4.8769,-4.8231,-4.7551,-4.709,-4.7121,-4.7261,-4.7375,-4.8557,-4.9447,-4.9307,-4.9941,-5.0402,-5.0529,-5.1517,-5.2269,-5.2608,-5.4068,-5.4749,-5.404,-5.27,-5.2235,-5.3008,-5.2363,-5.1606,-5.0932,-5.2722,-5.2573,-5.0083,-5.197,-5.297,-5.3005,-5.3996,-5.4886,-5.5714,-5.6643,-5.7544,-2.949,0.0,-3.1067,-3.2227,-3.2634,-3.2835,0.0,-3.2204,-3.1174,-3.1063,-2.9704,-2.8692,-2.9388,-2.8906,-2.8654,-2.9475,-3.0244,-3.1172,-3.2577,-3.5274,-3.8333,-4.1368,-4.2848,-4.4389,-4.6413,-4.7786,-4.8836,-4.9111,-5.0249,-5.114,-5.1619,-5.153,-5.1857,-5.2867,-5.4042,-5.4514,-5.4312,-5.481,-5.4913,-5.4655,-5.5375,-5.598,-5.6599,-5.6571,-5.6535,-5.6564,-5.6432,-5.6461,-5.6593,-5.642,-5.6385,-5.6474,-5.6903,-5.7117,-5.7221,-5.7273,-5.6812,-5.617,-5.6384,-5.6233,-5.5895,-5.5444,-5.4948,-5.4593,-5.4226,-5.3236,-5.1862,-4.9916,-4.9092,-4.8769,-4.861,-4.8483,-4.842,-4.8227,-4.8483,-4.8769,-4.8769,-4.8787,-4.8741,-4.8511,-4.8037,-4.7785,-4.808,-4.9079,-4.9526,-4.8714,-4.9785,-5.0779,-5.0931,-5.2077,-5.3085,-5.3757,-5.3981,-5.3791,-5.3086,-5.3315,-5.3656,-5.3896,-5.3569,-5.2574,-5.0883,-5.295,-5.2922,-5.038,-5.2456,-5.3682,-5.3792,-5.405,-5.4645,-5.5542,-5.6403,-5.7371,-2.9893,-3.0495,-3.1319,-3.2579,-3.3239,-3.3646,-3.3953,-3.2633,-3.1468,-3.1705,-3.0168,-2.9111,-3.0303,-2.9107,-2.8523,-3.0201,-3.0323,-3.088,-3.2759,-3.6067,-3.9139,-4.1388,-4.2701,-4.4278,-4.6385,-4.7561,-4.8424,-4.8795,-4.9289,-4.9922,-5.0648,-5.0359,-5.0624,-5.1463,-5.1794,-5.236,-5.3168,-5.3734,-5.4008,-5.4017,-5.4333,-5.4828,-5.5513,-5.5487,-5.5314,-5.5098,-5.5706,-5.6135,-5.6395,-5.6383,-5.6438,-5.6456,-5.6976,-5.7047,-5.6812,-5.6831,-5.6438,-5.5917,-5.5964,-5.5824,-5.561,-5.5322,-5.4459,-5.3483,-5.3315,-5.2874,-5.1983,-5.0207,-4.9144,-4.858,-4.861,-4.8513,-4.8316,-4.7885,-4.7977,-4.8231,-4.8388,-4.8146,-4.8071,-4.8443,-4.8233,-4.8141,-4.8377,-4.9401,-4.9951,-4.9338,-5.0488,-5.1472,-5.1863,-5.2463,-5.3126,-5.3822,-5.3489,-5.3079,-5.2717,-5.2981,-5.3148,-5.3068,-5.2755,-5.221,-5.1322,-5.2794,-5.3048,-5.1821,-5.3049,-5.372,-5.3832,-5.3907,-5.4615,-5.5884,-5.6407,-5.7415,-3.0826,-3.1783,-3.2646,-3.3126,-3.3979,-3.4675,-3.475,-3.3177,-3.1826,-3.2158,-3.0597,-2.9597,-3.0757,-2.936,-2.8728,-3.0786,-3.0773,-3.1282,-3.3512,-3.6604,-3.9183,-4.0705,-4.2287,-4.3965,-4.5912,-4.6903,-4.7846,-4.8849,-4.8336,-4.8505,-4.9612,-4.9225,-4.9293,-5.0023,-4.9793,-5.0225,-5.1319,-5.2092,-5.2564,-5.2634,-5.3827,-5.4661,-5.5369,-5.5375,-5.5009,-5.4535,-5.5215,-5.5822,-5.641,-5.638,-5.6437,-5.6438,-5.6886,-5.6797,-5.6419,-5.6403,-5.6204,-5.5948,-5.5578,-5.5462,-5.5455,-5.5241,-5.3923,-5.237,-5.2369,-5.2472,-5.2232,-5.069,-4.9289,-4.8389,-4.8576,-4.8543,-4.8245,-4.7569,-4.7497,-4.7652,-4.7902,-4.7335,-4.7005,-4.78,-4.8303,-4.8548,-4.8607,-4.9573,-5.0384,-5.0453,-5.1367,-5.2185,-5.2754,-5.2821,-5.3038,-5.3724,-5.3006,-5.252,-5.2601,-5.2049,-5.1642,-5.1484,-5.1429,-5.1639,-5.2156,-5.2407,-5.2828,-5.3444,-5.3524,-5.3561,-5.3665,-5.3825,-5.4795,-5.6469,-5.6667,-5.7679,-3.2549,-3.3636,-3.4265,-3.3427,-3.3625,-3.4169,-3.4622,-3.3232,-3.2038,-3.2553,-3.0906,-2.9483,-2.9888,-2.9346,-2.9203,-3.0307,-3.2678,-3.4761,-3.5975,-3.8432,-4.0335,-4.1069,-4.2178,-4.3438,-4.4747,-4.5049,-4.6091,-4.8371,-4.8184,-4.8117,-4.8507,-4.8297,-4.8498,-4.926,-4.9327,-4.9061,-4.8398,-4.8035,-4.8233,-4.886,-5.2149,-5.4018,-5.4641,-5.4626,-5.4574,-5.452,-5.5238,-5.586,-5.6374,-5.6383,-5.6395,-5.6383,-5.6506,-5.6435,-5.6402,-5.6435,-5.6369,-5.6247,-5.568,-5.5484,-5.5269,-5.4195,-5.3174,-5.2391,-5.2387,-5.2838,-5.2774,-4.999,-4.9083,-4.8807,-4.858,-4.8736,-4.8827,-4.8534,-4.8213,-4.8048,-4.8082,-4.798,-4.7971,-4.8226,-4.889,-4.9359,-4.9443,-4.9664,-5.0057,-5.0669,-5.1123,-5.1838,-5.2931,-5.3382,-5.3861,-5.4633,-5.3328,-5.2323,-5.2137,-5.0727,-5.0071,-5.0403,-5.1622,-5.2604,-5.3308,-5.189,-5.1851,-5.3407,-5.3296,-5.3665,-5.4552,-5.4552,-5.5447,-5.7163,-5.7367,-5.8127,-3.2139,-3.3089,-3.3867,-3.3253,-3.4048,-3.4973,-3.4835,-3.3259,-3.193,-3.1924,-3.0731,-3.0111,-3.133,-3.0553,-3.0303,-3.1867,-3.4512,-3.6543,-3.7274,-3.8943,-4.0567,-4.1726,-4.3269,-4.4278,-4.4334,-4.4494,-4.5201,-4.6613,-4.7107,-4.7309,-4.7184,-4.7335,-4.7735,-4.8495,-4.8397,-4.81,-4.7704,-4.7671,-4.7835,-4.8198,-5.115,-5.2906,-5.3575,-5.4391,-5.4852,-5.5073,-5.5378,-5.5695,-5.5941,-5.5914,-5.5922,-5.5964,-5.6283,-5.6425,-5.6369,-5.6034,-5.5672,-5.5383,-5.5438,-5.5025,-5.4294,-5.3243,-5.2391,-5.181,-5.2279,-5.1522,-5.0326,-4.9292,-4.8852,-4.8736,-4.8736,-4.899,-4.9243,-4.9175,-4.8497,-4.7946,-4.8107,-4.7801,-4.7826,-4.8821,-4.8983,-4.9169,-4.9605,-4.978,-5.0146,-5.0964,-5.1722,-5.249,-5.3216,-5.3014,-5.2949,-5.3339,-5.1954,-5.0874,-5.056,-5.0071,-4.984,-4.9932,-5.138,-5.2299,-5.2348,-5.2192,-5.2454,-5.3277,-5.3203,-5.3645,-5.4528,-5.4612,-5.5549,-5.727,-5.7516,-5.8239,-3.1895,-3.2658,-3.3444,-3.3271,-3.4377,-3.5284,-3.4791,-3.3284,-3.1926,-3.168,-3.0911,-3.0692,-3.2206,-3.1879,-3.1941,-3.3775,-3.6088,-3.7785,-3.8277,-3.945,-4.0853,-4.2356,-4.3937,-4.483,-4.4673,-4.4772,-4.5108,-4.5688,-4.6443,-4.6845,-4.6722,-4.6864,-4.7297,-4.8024,-4.7767,-4.7638,-4.7869,-4.8061,-4.8152,-4.8055,-5.0371,-5.2021,-5.3142,-5.374,-5.4539,-5.5507,-5.5507,-5.5496,-5.5484,-5.5495,-5.5517,-5.5552,-5.602,-5.6046,-5.593,-5.5599,-5.5053,-5.4537,-5.4879,-5.4324,-5.3382,-5.2661,-5.1877,-5.1338,-5.2179,-5.0452,-4.8365,-4.8892,-4.8815,-4.8697,-4.8923,-4.9209,-4.946,-4.9426,-4.8737,-4.8172,-4.8333,-4.8003,-4.8161,-4.9447,-4.9378,-4.9274,-4.9929,-5.0098,-5.0573,-5.1637,-5.247,-5.3176,-5.3528,-5.2968,-5.2521,-5.2548,-5.133,-5.0228,-4.9575,-4.9935,-5.0151,-5.0034,-5.121,-5.1825,-5.1694,-5.2651,-5.3213,-5.3225,-5.3555,-5.3995,-5.4509,-5.4969,-5.5987,-5.7566,-5.7813,-5.8464,-3.3382,-3.3793,-3.4015,-3.4007,-3.3814,-3.3858,-3.4416,-3.3361,-3.239,-3.2886,-3.1877,-3.0903,-3.0617,-3.2345,-3.4271,-3.5494,-3.7344,-3.8889,-3.9564,-4.0798,-4.1843,-4.244,-4.3307,-4.4437,-4.5718,-4.5742,-4.615,-4.7236,-4.7077,-4.7206,-4.7864,-4.7521,-4.7525,-4.8144,-4.7967,-4.8065,-4.8353,-4.8029,-4.7578,-4.7106,-4.9385,-5.1864,-5.4303,-5.2171,-5.2785,-5.5469,-5.5483,-5.5507,-5.5507,-5.5472,-5.5472,-5.5472,-5.5507,-5.5179,-5.472,-5.5288,-5.5077,-5.4397,-5.3847,-5.3551,-5.338,-5.2644,-5.1894,-5.1366,-5.2191,-5.0757,-4.8928,-4.8979,-4.8996,-4.8984,-4.8984,-4.9175,-4.9236,-4.908,-4.909,-4.909,-4.9124,-4.9556,-5.0033,-5.0275,-5.033,-5.0503,-5.1022,-5.0857,-5.1228,-5.2925,-5.3133,-5.3256,-5.3721,-5.4081,-5.418,-5.3901,-5.3043,-5.1899,-5.0346,-5.0605,-5.0885,-5.0967,-5.1212,-5.1799,-5.2718,-5.3017,-5.3213,-5.3225,-5.4669,-5.5177,-5.4752,-5.614,-5.7389,-5.8418,-5.8665,-5.9063,-3.1807,-3.1867,-3.1895,-3.2152,-3.2273,-3.2458,-3.3206,-3.3443,-3.3175,-3.209,-3.2176,-3.2649,-3.3199,-3.4443,-3.5831,-3.7057,-3.8718,-3.9865,-4.0122,-4.1,-4.1676,-4.2096,-4.3375,-4.4569,-4.5453,-4.6423,-4.6843,-4.6687,-4.7622,-4.8239,-4.8246,-4.8031,-4.8074,-4.8474,-4.81,-4.8225,-4.8855,-4.8984,-4.8802,-4.8584,-4.9492,-5.0838,-5.2637,-5.3182,-5.3833,-5.4535,-5.5249,-5.5494,-5.5494,-5.5504,-5.5479,-5.5479,-5.5053,-5.5009,-5.5104,-5.4918,-5.4707,-5.4381,-5.3751,-5.3179,-5.28,-5.2467,-5.1867,-5.131,-5.2146,-5.0824,-4.896,-4.9019,-4.8875,-4.8731,-4.8923,-4.9599,-5.0207,-5.0472,-5.057,-5.0609,-5.0609,-5.0815,-5.1016,-5.1137,-5.1185,-5.1276,-5.1486,-5.1363,-5.1658,-5.301,-5.3133,-5.3309,-5.4018,-5.3749,-5.3342,-5.294,-5.174,-5.1092,-5.1393,-5.0941,-5.0952,-5.1682,-5.186,-5.22,-5.274,-5.2967,-5.309,-5.3225,-5.4442,-5.5177,-5.5273,-5.6522,-5.7624,-5.8614,-5.8862,-5.9177,-3.045,-3.036,-3.045,-3.0924,-3.1267,-3.1604,-3.1874,-3.289,-3.3477,-3.2119,-3.2465,-3.3408,-3.4751,-3.5642,-3.6629,-3.8324,-3.9651,-4.0586,-4.0956,-4.131,-4.168,-4.2034,-4.3634,-4.486,-4.5353,-4.6857,-4.7505,-4.6981,-4.8147,-4.8804,-4.878,-4.8304,-4.8323,-4.8903,-4.8365,-4.848,-4.9376,-4.9526,-4.979,-5.029,-5.0067,-5.046,-5.1394,-5.3369,-5.4336,-5.4465,-5.5164,-5.5409,-5.5174,-5.5157,-5.5166,-5.5201,-5.4911,-5.4973,-5.5139,-5.4701,-5.435,-5.4088,-5.3382,-5.2838,-5.2217,-5.1015,-5.0928,-5.1214,-5.1041,-4.9924,-4.8725,-4.8952,-4.8811,-4.8731,-4.9195,-4.986,-5.0571,-5.1205,-5.156,-5.1741,-5.1741,-5.1934,-5.2065,-5.209,-5.1799,-5.1615,-5.2006,-5.1672,-5.1772,-5.301,-5.3146,-5.3304,-5.387,-5.3386,-5.2713,-5.2045,-5.104,-5.0787,-5.1777,-5.125,-5.1307,-5.2328,-5.2546,-5.264,-5.2635,-5.2798,-5.2967,-5.3219,-5.4626,-5.5471,-5.5875,-5.7014,-5.7968,-5.8698,-5.8982,-5.929,-2.9741,-2.9813,-3.0107,-3.0614,-3.1204,-3.1299,-3.0326,-3.1656,-3.323,-3.3367,-3.2786,-3.277,-3.4675,-3.5466,-3.6755,-3.9326,-4.0193,-4.0976,-4.2036,-4.2036,-4.1996,-4.2286,-4.3937,-4.519,-4.5588,-4.6948,-4.813,-4.8857,-4.8561,-4.869,-4.9469,-4.8336,-4.8214,-4.9464,-4.8795,-4.8793,-4.9708,-4.9444,-5.025,-5.1997,-5.1269,-5.0934,-5.0969,-5.2138,-5.3729,-5.5504,-5.5523,-5.5096,-5.4487,-5.4487,-5.4495,-5.4544,-5.5251,-5.5035,-5.451,-5.4475,-5.4083,-5.3382,-5.2635,-5.2354,-5.1801,-4.8103,-4.8881,-5.0735,-4.8625,-4.8002,-4.8129,-4.8798,-4.9024,-4.9182,-4.9907,-4.9953,-5.009,-5.1086,-5.1838,-5.2299,-5.2299,-5.2827,-5.3277,-5.3188,-5.2149,-5.1629,-5.2635,-5.1764,-5.1494,-5.3125,-5.3249,-5.3212,-5.3296,-5.3138,-5.2718,-5.1643,-5.1414,-5.1383,-5.1298,-5.1556,-5.208,-5.3053,-5.3239,-5.3026,-5.2552,-5.2781,-5.2996,-5.3243,-5.528,-5.636,-5.6397,-5.7715,-5.8486,-5.8698,-5.9022,-5.9328,-2.7283,-2.7424,-2.7683,-2.7977,-2.8594,-2.905,-2.8378,-3.0312,-3.2349,-3.2723,-3.2626,-3.3172,-3.5494,-3.6024,-3.6936,-3.9237,-3.9988,-4.0677,-4.1736,-4.1924,-4.2051,-4.2562,-4.2965,-4.3929,-4.5739,-4.7553,-4.8243,-4.7284,-4.8433,-4.8679,-4.7691,-4.779,-4.802,-4.8214,-4.8365,-4.8639,-4.9012,-5.031,-5.1185,-5.1752,-5.2944,-5.3401,-5.3207,-5.4255,-5.4895,-5.5288,-5.4965,-5.4981,-5.5161,-5.4695,-5.4523,-5.451,-5.4724,-5.4695,-5.4436,-5.3946,-5.3381,-5.2672,-5.2461,-5.2416,-5.2098,-5.0445,-4.9159,-4.8148,-4.8027,-4.8332,-4.8782,-4.8967,-4.8999,-4.8963,-4.8707,-4.9802,-5.1251,-5.2486,-5.2854,-5.2993,-5.2993,-5.324,-5.3359,-5.323,-5.2599,-5.2289,-5.2717,-5.1848,-5.1465,-5.2481,-5.2123,-5.1802,-5.1921,-5.1814,-5.1718,-5.1814,-5.1414,-5.1367,-5.1884,-5.2323,-5.2687,-5.2937,-5.3089,-5.3432,-5.4062,-5.4288,-5.4219,-5.3932,-5.5074,-5.575,-5.5838,-5.7014,-5.7635,-5.7806,-5.876,-5.8689,-2.6094,-2.6188,-2.6372,-2.7043,-2.7608,-2.7928,-2.7706,-2.9347,-3.1249,-3.2301,-3.2553,-3.3361,-3.5664,-3.6445,-3.749,-3.9641,-4.0453,-4.1186,-4.2306,-4.2491,-4.2653,-4.2752,-4.3097,-4.3686,-4.4744,-4.6598,-4.7473,-4.6868,-4.7927,-4.8175,-4.7245,-4.7622,-4.7852,-4.7923,-4.82,-4.8513,-4.8765,-5.0179,-5.1292,-5.2056,-5.3436,-5.4266,-5.4664,-5.5234,-5.5253,-5.4922,-5.4641,-5.4592,-5.4672,-5.4544,-5.4534,-5.4516,-5.4534,-5.451,-5.4415,-5.3785,-5.301,-5.2394,-5.2416,-5.2434,-5.2284,-5.1454,-4.9262,-4.7022,-4.78,-4.843,-4.9009,-4.8967,-4.8999,-4.9056,-4.9205,-5.0673,-5.2354,-5.3207,-5.3414,-5.34,-5.3477,-5.3518,-5.3518,-5.3272,-5.29,-5.2518,-5.2454,-5.1701,-5.126,-5.179,-5.1393,-5.0998,-5.1102,-5.0823,-5.0751,-5.1051,-5.1035,-5.1158,-5.1551,-5.2319,-5.296,-5.3262,-5.3401,-5.3928,-5.5072,-5.4388,-5.3961,-5.4054,-5.4793,-5.5322,-5.5574,-5.6725,-5.7307,-5.7516,-5.8053,-5.786,-2.5775,-2.5822,-2.6028,-2.7092,-2.7534,-2.7667,-2.7897,-2.8855,-3.0157,-3.175,-3.256,-3.3522,-3.5332,-3.6664,-3.8247,-4.0321,-4.1167,-4.1991,-4.3258,-4.3522,-4.3517,-4.2998,-4.3967,-4.4398,-4.367,-4.5013,-4.6199,-4.692,-4.7169,-4.7324,-4.758,-4.7572,-4.7755,-4.8074,-4.82,-4.845,-4.8855,-4.9649,-5.0876,-5.259,-5.3019,-5.4068,-5.5507,-5.5514,-5.5096,-5.4522,-5.4454,-5.4097,-5.3665,-5.4244,-5.4441,-5.4431,-5.4484,-5.4493,-5.4463,-5.3788,-5.3068,-5.2368,-5.229,-5.2302,-5.2146,-5.1454,-4.9257,-4.7044,-4.7803,-4.8492,-4.8976,-4.9024,-4.8951,-4.9274,-5.0627,-5.1986,-5.3082,-5.3335,-5.344,-5.3518,-5.3637,-5.3674,-5.3598,-5.3318,-5.295,-5.2518,-5.1813,-5.126,-5.0964,-5.1121,-5.0876,-5.0627,-5.0589,-5.0159,-4.9825,-4.9708,-5.0432,-5.0819,-5.064,-5.1934,-5.3016,-5.3744,-5.3958,-5.4561,-5.5502,-5.3711,-5.3002,-5.379,-5.4537,-5.5122,-5.5464,-5.6657,-5.7279,-5.7372,-5.7076,-5.6911,-2.4315,-2.5318,-2.6188,-2.5997,-2.6686,-2.7547,-2.8365,-2.9042,-2.9612,-3.0024,-3.2013,-3.3895,-3.4605,-3.6053,-3.7809,-3.9796,-4.0723,-4.1688,-4.3202,-4.3906,-4.418,-4.3688,-4.4788,-4.5797,-4.6379,-4.5509,-4.4856,-4.4864,-4.5959,-4.6434,-4.6013,-4.655,-4.698,-4.7188,-4.8066,-4.8639,-4.8765,-5.0223,-5.1176,-5.1616,-5.3183,-5.4501,-5.5531,-5.5514,-5.5139,-5.4488,-5.3935,-5.3939,-5.4308,-5.4422,-5.4185,-5.3741,-5.4322,-5.4464,-5.45,-5.4325,-5.3494,-5.2277,-5.1663,-5.1475,-5.1424,-5.1284,-4.9257,-4.7044,-4.7803,-4.8492,-4.8976,-4.9024,-4.8821,-4.886,-4.998,-5.1015,-5.1994,-5.2971,-5.3292,-5.3359,-5.3359,-5.344,-5.3359,-5.282,-5.2696,-5.2345,-5.1312,-5.1052,-5.0643,-4.9988,-4.9698,-4.9521,-4.9521,-4.959,-4.9649,-4.9825,-5.0263,-5.0599,-5.0749,-5.211,-5.3175,-5.378,-5.4492,-5.508,-5.5434,-5.4993,-5.4448,-5.3826,-5.5047,-5.5341,-5.4656,-5.6098,-5.6385,-5.5733,-5.6068,-5.5864,-2.4133,-2.501,-2.5931,-2.6469,-2.7017,-2.753,-2.8487,-2.8891,-2.9147,-2.9578,-3.135,-3.3221,-3.4555,-3.5812,-3.7296,-3.9401,-4.0521,-4.1343,-4.2209,-4.3227,-4.3939,-4.4037,-4.5495,-4.6268,-4.548,-4.4557,-4.4037,-4.4082,-4.4834,-4.5259,-4.505,-4.6103,-4.6925,-4.7398,-4.8196,-4.8639,-4.8702,-5.0275,-5.1104,-5.1198,-5.3077,-5.451,-5.5479,-5.5323,-5.5015,-5.4475,-5.411,-5.4011,-5.4014,-5.4022,-5.3819,-5.3513,-5.389,-5.4227,-5.4359,-5.329,-5.2448,-5.1704,-5.0895,-5.0853,-5.1187,-5.1179,-4.923,-4.7062,-4.7803,-4.8456,-4.8971,-4.8984,-4.8882,-4.8768,-4.8998,-4.9907,-5.1129,-5.2798,-5.3243,-5.3359,-5.344,-5.3281,-5.3115,-5.3072,-5.2907,-5.2436,-5.1429,-5.0678,-5.0045,-4.9471,-4.929,-4.9229,-4.935,-4.9411,-4.959,-4.9767,-5.0149,-5.0376,-5.0509,-5.2102,-5.3258,-5.3564,-5.4562,-5.5205,-5.5418,-5.4323,-5.3734,-5.3639,-5.4698,-5.5012,-5.4479,-5.5475,-5.576,-5.5361,-5.5282,-5.504,-2.4837,-2.5214,-2.5804,-2.7342,-2.7558,-2.7631,-2.8561,-2.8732,-2.9042,-2.9731,-3.1051,-3.2581,-3.4461,-3.5738,-3.7049,-3.9057,-4.0275,-4.0948,-4.1199,-4.2391,-4.3407,-4.3897,-4.5715,-4.5707,-4.271,-4.2841,-4.3359,-4.397,-4.4236,-4.4445,-4.4736,-4.6115,-4.7264,-4.8,-4.8425,-4.8769,-4.9092,-5.012,-5.0892,-5.1346,-5.2969,-5.4279,-5.5293,-5.5174,-5.489,-5.4453,-5.435,-5.3983,-5.3482,-5.3518,-5.345,-5.3281,-5.3308,-5.3569,-5.3699,-5.1908,-5.1122,-5.0919,-5.0145,-5.0456,-5.1155,-5.0602,-4.8968,-4.7235,-4.7968,-4.8523,-4.8971,-4.9018,-4.904,-4.895,-4.8323,-4.9201,-5.0608,-5.2271,-5.2857,-5.3109,-5.3511,-5.323,-5.2987,-5.3396,-5.2944,-5.2253,-5.1544,-5.0314,-4.935,-4.9168,-4.9168,-4.9229,-4.9471,-4.9471,-4.953,-4.9708,-5.0172,-5.0436,-5.0263,-5.2354,-5.3641,-5.347,-5.4595,-5.524,-5.5365,-5.3453,-5.2695,-5.3484,-5.4215,-5.4501,-5.4295,-5.4999,-5.5317,-5.5324,-5.468,-5.4371,-2.6391,-2.6526,-2.6445,-2.7155,-2.7435,-2.7741,-2.8637,-2.9088,-2.9524,-3.0025,-3.1905,-3.3387,-3.3431,-3.5772,-3.7965,-3.8863,-3.9809,-4.0569,-4.1198,-4.2502,-4.3319,-4.3138,-4.4206,-4.3419,-3.9256,-4.0937,-4.2733,-4.3916,-4.4664,-4.5091,-4.5331,-4.6244,-4.7267,-4.8233,-4.8837,-4.9596,-5.0514,-5.0273,-5.0863,-5.2354,-5.3047,-5.3852,-5.4661,-5.5202,-5.5075,-5.448,-5.3919,-5.3585,-5.3484,-5.3481,-5.3142,-5.2533,-5.2553,-5.2197,-5.1598,-5.1327,-5.0735,-5.0069,-4.9936,-5.0486,-5.0755,-4.8295,-4.7677,-4.8004,-4.8693,-4.8928,-4.9024,-4.9019,-4.9214,-4.9308,-4.9006,-4.9904,-5.0941,-5.0484,-5.1118,-5.2066,-5.3081,-5.336,-5.3298,-5.2717,-5.1601,-5.0786,-5.1051,-5.0033,-4.9168,-4.8894,-4.8956,-4.9107,-4.9471,-4.9471,-4.9624,-4.9952,-5.0945,-5.1257,-5.0411,-5.3655,-5.5122,-5.367,-5.5257,-5.5919,-5.5241,-5.4382,-5.3713,-5.3338,-5.4205,-5.4208,-5.3414,-5.5032,-5.5238,-5.4205,-5.4166,-5.4198,-2.6753,-2.6431,-2.6129,-2.686,-2.6933,-2.7033,-2.8017,-2.8034,-2.8293,-2.9767,-3.1038,-3.2391,-3.357,-3.5504,-3.7365,-3.9033,-3.9605,-3.9984,-4.0491,-4.1497,-4.1913,-4.1295,-4.2421,-4.2398,-4.0153,-4.1227,-4.2485,-4.3528,-4.3974,-4.4538,-4.5561,-4.6813,-4.7865,-4.8695,-4.8938,-4.9338,-4.9888,-5.0146,-5.0788,-5.1946,-5.2467,-5.3349,-5.4488,-5.4799,-5.4574,-5.3943,-5.3651,-5.3247,-5.2876,-5.2903,-5.2694,-5.2383,-5.2434,-5.1933,-5.1155,-5.0639,-5.0224,-4.9882,-4.9878,-5.0442,-5.1016,-4.971,-4.9823,-5.0618,-5.1262,-5.1528,-5.1522,-5.1519,-5.1613,-5.177,-5.2021,-5.1277,-5.0432,-5.009,-5.0378,-5.1012,-5.2072,-5.278,-5.2893,-5.1835,-5.1209,-5.0697,-5.032,-4.9512,-4.8956,-4.8832,-4.9203,-4.9492,-4.9479,-4.9846,-5.03,-5.0655,-5.083,-5.0945,-5.1059,-5.3212,-5.4055,-5.2889,-5.506,-5.6026,-5.5241,-5.4665,-5.4051,-5.3405,-5.3458,-5.3397,-5.3188,-5.4179,-5.442,-5.4056,-5.4019,-5.4055,-2.6676,-2.6103,-2.5808,-2.6238,-2.6237,-2.633,-2.723,-2.7054,-2.7205,-2.9227,-3.0194,-3.129,-3.3377,-3.4969,-3.656,-3.8418,-3.8833,-3.8978,-3.9365,-3.9939,-4.0101,-3.953,-4.0761,-4.1637,-4.159,-4.1995,-4.2613,-4.3438,-4.3623,-4.4304,-4.5444,-4.6786,-4.7933,-4.8827,-4.8908,-4.9086,-4.944,-5.0283,-5.0895,-5.1366,-5.185,-5.295,-5.4454,-5.3524,-5.2861,-5.2399,-5.3179,-5.3112,-5.2366,-5.2387,-5.2445,-5.2368,-5.2171,-5.1694,-5.1124,-5.0192,-4.985,-4.9899,-4.9896,-5.0506,-5.1189,-5.119,-5.174,-5.2535,-5.3247,-5.3481,-5.3474,-5.3474,-5.3365,-5.3386,-5.4293,-5.226,-5.0167,-5.0683,-5.0803,-5.1023,-5.1746,-5.2294,-5.2365,-5.1485,-5.0981,-5.0445,-4.97,-4.9127,-4.8774,-4.8879,-4.951,-4.9999,-5.0025,-5.0625,-5.1047,-5.1256,-5.1026,-5.0945,-5.1324,-5.2593,-5.3082,-5.2305,-5.4491,-5.5472,-5.492,-5.4379,-5.3871,-5.3376,-5.2857,-5.2761,-5.3182,-5.347,-5.3748,-5.3944,-5.3944,-5.3907,-2.6408,-2.5841,-2.5695,-2.5147,-2.5335,-2.5781,-2.6476,-2.6824,-2.7279,-2.8544,-2.9804,-3.0988,-3.2051,-3.4209,-3.5966,-3.6404,-3.6989,-3.7453,-3.7668,-3.791,-3.807,-3.799,-3.9669,-4.1079,-4.1889,-4.2761,-4.3397,-4.3904,-4.4649,-4.4954,-4.4717,-4.5773,-4.7043,-4.8492,-4.8677,-4.9164,-5.0033,-5.0968,-5.1264,-5.085,-5.152,-5.2735,-5.4397,-5.0888,-4.926,-4.9393,-5.227,-5.3075,-5.242,-5.2401,-5.2356,-5.2284,-5.1564,-5.1221,-5.1057,-5.0197,-4.9931,-4.99,-4.9899,-5.0434,-5.1218,-5.1177,-5.1736,-5.2549,-5.3308,-5.3483,-5.3484,-5.3484,-5.2976,-5.2804,-5.4148,-5.2276,-5.0483,-5.2551,-5.3033,-5.2982,-5.2798,-5.2253,-5.1799,-5.1946,-5.0589,-4.9428,-4.9359,-4.8883,-4.8718,-4.9192,-4.9749,-5.0464,-5.1458,-5.1782,-5.1752,-5.1326,-5.2056,-5.2056,-5.0759,-5.2333,-5.3172,-5.2502,-5.3407,-5.394,-5.4046,-5.3453,-5.3161,-5.3125,-5.2726,-5.2699,-5.3207,-5.3456,-5.3584,-5.3632,-5.3637,-5.3563,-2.5335,-2.4999,-2.468,-2.4529,-2.4654,-2.5207,-2.6518,-2.6303,-2.652,-2.9083,-2.9127,-2.9238,-3.0851,-3.3667,-3.5992,-3.6556,-3.7016,-3.7427,-3.7731,-3.7673,-3.7481,-3.7482,-3.8422,-3.9675,-4.1299,-4.2386,-4.3539,-4.4708,-4.5477,-4.5824,-4.5691,-4.6795,-4.7637,-4.8166,-4.8423,-4.8647,-4.8885,-4.9472,-4.9603,-4.9181,-4.9734,-5.0362,-5.0905,-4.915,-4.9391,-5.1229,-5.1798,-5.216,-5.2412,-5.2389,-5.2138,-5.1614,-5.1317,-5.0876,-5.0288,-5.0041,-4.9868,-4.99,-4.9899,-5.0133,-5.0474,-5.1025,-5.1743,-5.2582,-5.3271,-5.3516,-5.3518,-5.3518,-5.3315,-5.3211,-5.3681,-5.4252,-5.4358,-5.3462,-5.2846,-5.2234,-5.1347,-5.1334,-5.1393,-5.0823,-4.9919,-4.9006,-4.8383,-4.8194,-4.8494,-4.9358,-5.0186,-5.0913,-5.1629,-5.2261,-5.2605,-5.2264,-5.2045,-5.1777,-5.15,-5.2177,-5.2341,-5.1759,-5.3513,-5.4154,-5.335,-5.3544,-5.3488,-5.3125,-5.2449,-5.234,-5.2798,-5.314,-5.3424,-5.3465,-5.3437,-5.3285,-2.4654,-2.4354,-2.41,-2.4358,-2.47,-2.5275,-2.6447,-2.625,-2.651,-2.8763,-2.8607,-2.8406,-2.9418,-3.197,-3.4234,-3.5267,-3.5565,-3.6061,-3.6904,-3.6688,-3.6469,-3.6511,-3.6985,-3.809,-4.0006,-4.2208,-4.4065,-4.5356,-4.5887,-4.6454,-4.7127,-4.743,-4.7701,-4.7902,-4.8066,-4.8227,-4.8098,-4.8453,-4.855,-4.8361,-4.8681,-4.8744,-4.8651,-4.8192,-4.896,-5.0592,-5.1054,-5.1475,-5.196,-5.2039,-5.168,-5.1187,-5.1156,-5.0691,-4.991,-4.9899,-4.971,-4.9474,-4.9772,-5.0115,-5.0422,-5.0992,-5.1743,-5.2511,-5.3268,-5.3515,-5.3518,-5.3517,-5.3518,-5.3717,-5.4556,-5.5939,-5.6491,-5.365,-5.2552,-5.1946,-5.083,-5.0803,-5.0699,-4.9884,-4.9154,-4.8547,-4.82,-4.8365,-4.8895,-5.0125,-5.0959,-5.1691,-5.2379,-5.3049,-5.326,-5.2716,-5.2184,-5.1835,-5.1535,-5.1665,-5.1616,-5.1281,-5.2714,-5.3211,-5.2426,-5.2802,-5.2889,-5.2493,-5.2058,-5.1969,-5.2268,-5.2761,-5.3017,-5.3133,-5.3188,-5.3078,0.0,0.0,0.0,-2.47,-2.5359,-2.5946,-2.6196,-2.6693,-2.7241,-2.7577,-2.8163,-2.8418,-2.7832,-2.898,-3.0587,-3.2306,-3.2581,-3.3168,-3.5001,-3.5001,-3.4865,-3.5027,-3.541,-3.6334,-3.8112,-4.2073,-4.4954,-4.6013,-4.5911,-4.6713,-4.874,-4.7604,-4.7134,-4.7572,-4.7671,-4.777,-4.8001,-4.8098,-4.8294,-4.8492,-4.8487,-4.8322,-4.803,-4.8067,-4.7704,-4.7134,-4.9927,-5.1179,-5.1205,-5.1173,-5.1229,-5.1187,-5.123,-5.0621,-4.991,-4.9882,-4.9363,-4.8796,-4.9596,-5.0486,-5.1242,-5.122,-5.1769,-5.2511,-5.3265,-5.3478,-5.3449,-5.3483,-5.3518,-5.4057,-5.6507,-5.7078,-5.6263,-5.323,-5.2474,-5.2243,-5.1458,-5.0599,-4.9769,-4.9282,-4.8386,-4.8001,-4.8961,-4.9294,-4.9926,-5.1564,-5.2168,-5.277,-5.3878,-5.411,-5.3782,-5.2631,-5.2612,-5.2126,-5.0724,-5.0764,-5.0927,-5.107,-5.0927,-5.0946,-5.1298,-5.1263,-5.1263,-5.1298,-5.1556,-5.1708,-5.1708,-5.2268,-5.259,-5.259,-5.285,-5.2893,-2.3357,0.0,0.0,0.0,0.0,0.0,-2.6693,-2.6445,-2.6496,-2.841,-2.7612,-2.7039,-2.8065,-2.7753,-2.81,-3.036,-3.1744,-3.2638,-3.289,-3.3822,-3.4523,-3.458,-3.4675,-3.5315,-3.6788,-3.9337,-4.2716,-4.6957,-4.6856,-4.6932,-4.777,-4.737,-4.7302,-4.7671,-4.7571,-4.7671,-4.8001,-4.8066,-4.8066,-4.8132,-4.8592,-4.8559,-4.8066,-4.9626,-4.979,-4.8948,-5.0517,-5.1408,-5.1605,-5.1294,-5.1199,-5.1177,-5.1218,-5.0685,-4.9882,-4.9884,-5.02,-5.0561,-5.0749,-5.096,-5.1275,-5.1917,-5.2218,-5.2445,-5.262,-5.2697,-5.2838,-5.3313,-5.3517,-5.3922,-5.5626,-5.484,-5.3344,-5.2732,-5.2216,-5.1388,-4.9384,-5.0005,-5.0856,-5.0375,-4.8795,-4.7998,-4.9453,-4.9425,-4.9759,-5.1564,-5.2201,-5.2932,-5.3878,-5.4239,-5.3908,-5.2666,-5.2552,-5.1987,-5.0593,-5.0509,-5.0564,-5.0729,-5.1255,-5.138,-5.0946,-5.1365,-5.14,-5.0946,-5.1017,-5.1158,-5.1402,-5.203,-5.2315,-5.2387,-5.2572,-5.2627,-2.335,-2.3751,-2.3977,-2.4781,0.0,0.0,-2.6926,-2.6857,-2.7008,-2.8397,-2.7949,-2.7431,-2.7975,-2.7842,-2.8161,-2.9413,-3.0829,-3.2051,-3.2632,-3.295,-3.2979,-3.2564,-3.3034,-3.4396,-3.6628,-3.9455,-4.2816,-4.6597,-4.7626,-4.7828,-4.7095,-4.7202,-4.7337,-4.737,-4.7437,-4.7571,-4.7836,-4.7935,-4.7968,-4.8,-4.8394,-4.8394,-4.8066,-5.0593,-5.0759,-4.9312,-5.0796,-5.1179,-5.0685,-5.1057,-5.1167,-5.1189,-5.0762,-5.037,-4.9914,-4.9899,-5.0452,-5.1224,-5.1198,-5.1199,-5.1369,-5.2171,-5.2395,-5.2483,-5.279,-5.2627,-5.2533,-5.3076,-5.3853,-5.4603,-5.4939,-5.4556,-5.3725,-5.2678,-5.1299,-4.9938,-4.9059,-5.0146,-5.1061,-5.0091,-4.9156,-4.8954,-5.0245,-5.039,-5.0827,-5.2303,-5.2807,-5.3273,-5.3912,-5.3901,-5.3438,-5.2477,-5.2062,-5.1464,-5.0389,-5.0341,-5.0397,-5.0453,-5.0815,-5.085,-5.0453,-5.0815,-5.085,-5.0418,-5.0474,-5.0784,-5.1211,-5.1736,-5.2114,-5.2293,-5.247,-5.2572,-2.4083,-2.4361,-2.4461,-2.5486,-2.6365,0.0,-2.7001,-2.7545,-2.8089,-2.7962,-2.8454,-2.8702,-2.7847,-2.8706,-2.9469,-2.9238,-3.0133,-3.1368,-3.2826,-3.2089,-3.1014,-3.004,-3.15,-3.4121,-3.8139,-4.1801,-4.4509,-4.5776,-4.8329,-4.8794,-4.6532,-4.7134,-4.7339,-4.6929,-4.7169,-4.7439,-4.7638,-4.7803,-4.8,-4.7965,-4.8096,-4.8063,-4.8096,-5.0892,-5.0961,-4.8915,-5.0876,-5.0818,-4.936,-5.0649,-5.1112,-5.1005,-5.0224,-4.9914,-4.9914,-4.991,-5.0461,-5.1186,-5.121,-5.1238,-5.1426,-5.2185,-5.244,-5.2553,-5.3231,-5.2931,-5.2463,-5.284,-5.4338,-5.5553,-5.4465,-5.5344,-5.5779,-5.2938,-5.029,-4.8728,-4.977,-5.0654,-5.0773,-4.9278,-4.9496,-5.0245,-5.1247,-5.173,-5.2303,-5.3315,-5.3448,-5.3545,-5.3778,-5.3229,-5.2569,-5.2062,-5.1434,-5.0804,-5.0184,-5.0228,-5.0228,-5.0114,-4.9942,-4.9884,-4.9884,-4.9884,-4.9884,-4.9884,-5.0114,-5.0474,-5.0982,-5.147,-5.1907,-5.2293,-5.2387,-5.2526,-2.424,-2.4996,-2.5603,-2.6466,-2.7283,0.0,-2.7752,-2.7577,-2.769,-2.8491,-2.7904,-2.758,-2.8791,-2.8949,-2.916,-3.0342,-3.0921,-3.0719,-2.9145,-3.0394,-3.1239,-3.0825,-3.329,-3.7655,-4.4415,-4.581,-4.6841,-4.8165,-4.8294,-4.7586,-4.6,-4.6657,-4.7134,-4.7204,-4.7337,-4.7571,-4.7902,-4.7737,-4.7737,-4.8033,-4.8527,-4.8494,-4.8034,-4.9824,-5.0215,-4.9501,-5.0752,-5.1139,-5.0782,-5.108,-5.0767,-5.0096,-4.9942,-4.9896,-4.9882,-4.9892,-5.0498,-5.1156,-5.122,-5.1655,-5.2185,-5.2356,-5.2539,-5.279,-5.2649,-5.2653,-5.2694,-5.287,-5.3683,-5.4586,-5.4687,-5.4863,-5.4611,-5.3243,-5.1986,-5.0693,-4.9318,-5.0323,-5.1465,-5.1084,-5.0418,-5.0377,-5.2051,-5.1698,-5.1664,-5.3045,-5.2501,-5.2153,-5.283,-5.2379,-5.1719,-5.0994,-5.0788,-5.0412,-4.9718,-4.9649,-4.9649,-4.9649,-4.959,-4.959,-4.959,-4.959,-4.959,-4.959,-5.0114,-5.0509,-5.0857,-5.1418,-5.1907,-5.2329,-5.2329,-5.248,-2.4756,-2.5441,-2.6121,-2.7301,-2.7569,0.0,0.0,-2.7531,-2.7364,-2.8307,-2.8075,-2.8131,-2.9549,-3.0037,-3.0667,-3.1974,-3.2154,-3.1973,-3.1433,-3.091,-3.1414,-3.3473,-3.6336,-4.0293,-4.581,-4.564,-4.5277,-4.5749,-4.5457,-4.5041,-4.452,-4.5815,-4.6722,-4.7101,-4.7172,-4.7307,-4.7441,-4.7638,-4.7968,-4.8462,-4.846,-4.8361,-4.8033,-4.9491,-5.0182,-5.0063,-5.0844,-5.0815,-5.0037,-4.8923,-4.9025,-4.9878,-4.9864,-5.0197,-5.0561,-5.0538,-5.0843,-5.1275,-5.1638,-5.2032,-5.2389,-5.2362,-5.2786,-5.3135,-5.279,-5.2724,-5.2867,-5.3111,-5.3912,-5.4676,-5.5224,-5.5238,-5.4825,-5.3901,-5.3082,-5.1919,-4.9959,-5.0684,-5.1696,-5.1343,-5.1371,-5.1519,-5.2024,-5.1799,-5.1763,-5.2167,-5.182,-5.1609,-5.1854,-5.1371,-5.0759,-5.0385,-4.9916,-4.9542,-4.9263,-4.9229,-4.9229,-4.9107,-4.9107,-4.9107,-4.8984,-4.9168,-4.929,-4.9505,-4.9942,-5.0285,-5.062,-5.1211,-5.1708,-5.2102,-5.2246,-5.248,-2.5425,-2.5964,-2.6445,-2.7964,-2.7878,-2.7503,0.0,0.0,0.0,-2.7962,-2.8259,-2.8816,-2.9935,-3.1044,-3.2074,-3.3213,-3.3309,-3.3654,-3.4777,-3.2563,-3.2289,-3.6025,-3.853,-4.1479,-4.5415,-4.3826,-4.2404,-4.2098,-4.2222,-4.2777,-4.3702,-4.5317,-4.6486,-4.703,-4.7106,-4.7077,-4.7111,-4.7671,-4.8264,-4.8823,-4.8229,-4.7998,-4.8065,-4.9426,-5.0017,-4.9965,-5.0844,-5.0464,-4.9018,-4.7289,-4.7977,-5.0051,-4.9928,-5.0466,-5.1224,-5.123,-5.1189,-5.1317,-5.2089,-5.2382,-5.25,-5.308,-5.3361,-5.3472,-5.2961,-5.2864,-5.2939,-5.3482,-5.42,-5.4983,-5.5461,-5.5578,-5.5273,-5.4256,-5.3513,-5.264,-5.0961,-5.1353,-5.1795,-5.1262,-5.2154,-5.2669,-5.1796,-5.1967,-5.2063,-5.1254,-5.118,-5.1142,-5.0916,-5.0274,-4.9738,-4.9738,-4.9072,-4.8673,-4.8832,-4.8832,-4.8736,-4.8576,-4.8576,-4.8576,-4.8483,-4.8736,-4.9046,-4.9411,-4.9708,-4.9999,-5.0397,-5.0981,-5.1505,-5.1907,-5.215,-5.2444,-2.5895,-2.6396,-2.6798,-2.8615,-2.8448,-2.8008,-2.8226,0.0,-2.7819,-2.7894,0.0,-2.8554,-2.9549,0.0,0.0,-3.2889,-3.3905,-3.4626,-3.4877,-3.4857,-3.525,-3.641,-3.7304,-3.9932,-4.531,-4.2166,-3.998,-4.0281,-4.0933,-4.2643,-4.5783,-4.5975,-4.6413,-4.737,-4.7704,-4.7902,-4.7869,-4.7933,-4.8065,-4.8132,-4.8001,-4.7968,-4.8068,-4.9184,-4.9006,-4.7939,-5.0196,-5.0668,-4.9779,-4.9521,-4.9873,-5.0474,-5.0051,-5.0429,-5.1198,-5.1189,-5.1187,-5.1353,-5.2097,-5.2395,-5.2819,-5.5386,-5.5108,-5.3651,-5.2819,-5.2624,-5.2731,-5.3415,-5.4136,-5.4738,-5.4579,-5.4887,-5.4765,-5.3418,-5.2938,-5.2568,-5.1663,-5.1888,-5.2131,-5.1809,-5.2487,-5.2943,-5.2169,-5.2201,-5.1997,-5.1157,-5.0517,-5.0015,-4.9787,-4.9117,-4.8617,-4.8425,-4.8325,-4.8227,-4.8131,-4.8131,-4.8196,-4.8227,-4.8292,-4.8356,-4.8483,-4.8547,-4.8798,-4.9229,-4.9411,-4.9825,-5.0397,-5.0873,-5.1402,-5.1907,-5.2054,-5.2304,-2.6545,-2.7215,-2.7861,-2.9024,-2.9218,-2.9235,-2.9879,-2.9579,-2.938,-3.0008,0.0,0.0,0.0,0.0,0.0,0.0,-3.4542,-3.4735,-3.5145,-3.6064,-3.6597,-3.6536,-3.7116,-3.8974,-4.2636,-4.1241,-4.0152,-4.0535,-4.1218,-4.2345,-4.4047,-4.5629,-4.6892,-4.776,-4.7967,-4.8001,-4.8001,-4.7605,-4.7605,-4.8001,-4.8001,-4.7736,-4.7406,-4.8442,-4.8491,-4.7896,-4.9918,-5.0542,-5.0177,-4.9974,-5.0165,-5.0602,-5.0666,-5.0839,-5.1166,-5.1156,-5.1197,-5.1336,-5.2138,-5.2401,-5.2898,-5.5774,-5.4984,-5.2981,-5.3223,-5.2886,-5.2694,-5.3747,-5.4264,-5.4579,-5.4852,-5.473,-5.419,-5.3073,-5.243,-5.1921,-5.1625,-5.1894,-5.2092,-5.2125,-5.252,-5.2635,-5.2068,-5.2068,-5.1899,-5.1092,-5.0525,-5.0126,-4.9892,-4.9526,-4.9226,-4.9057,-4.8661,-4.833,-4.8263,-4.7901,-4.7803,-4.7902,-4.8033,-4.8163,-4.8292,-4.8356,-4.861,-4.9168,-4.9411,-4.9767,-5.0397,-5.0873,-5.1298,-5.1658,-5.1956,-5.2304,-2.6983,-2.7462,-2.8031,-2.9231,-2.9398,-2.9546,-3.0596,-3.0422,-3.0264,-3.1034,-3.1116,0.0,0.0,0.0,-3.4108,-3.5296,0.0,-3.5125,-3.5198,-3.6374,-3.7126,-3.6781,-3.7997,-3.9551,-4.1233,-4.1131,-4.1007,-4.1217,-4.1749,-4.2443,-4.3332,-4.5544,-4.7196,-4.7933,-4.7769,-4.7671,-4.7736,-4.7175,-4.7141,-4.7667,-4.7667,-4.7403,-4.6974,-4.8096,-4.8375,-4.7981,-4.9629,-5.0211,-4.9878,-4.9915,-5.0121,-5.0512,-5.1032,-5.1218,-5.1286,-5.1199,-5.1206,-5.1375,-5.2382,-5.2705,-5.3065,-5.5033,-5.472,-5.3556,-5.3313,-5.3119,-5.3068,-5.4076,-5.4454,-5.4703,-5.5154,-5.4668,-5.3909,-5.301,-5.2203,-5.1573,-5.1573,-5.1835,-5.2092,-5.2164,-5.2449,-5.2564,-5.2131,-5.2168,-5.1934,-5.0927,-5.066,-5.0454,-5.005,-4.9879,-4.967,-4.9562,-4.9071,-4.8576,-4.838,-4.7923,-4.7599,-4.7604,-4.7803,-4.7968,-4.8033,-4.8098,-4.842,-4.9046,-4.9229,-4.9649,-5.0341,-5.071,-5.1088,-5.1505,-5.1907,-5.2304,-2.7339,-2.6943,-2.6941,-2.8948,-2.8558,-2.8094,-2.9546,-2.9848,-2.9725,-2.9555,-2.947,-3.0121,-3.2225,-3.2594,-3.3188,-3.5009,-3.6153,0.0,0.0,-3.567,-3.6785,-3.7371,-4.0376,-4.245,-4.2558,-4.2109,-4.182,-4.1754,-4.2287,-4.332,-4.5113,-4.6124,-4.704,-4.7914,-4.7268,-4.6913,-4.6914,-4.691,-4.6903,-4.6936,-4.6936,-4.6903,-4.6968,-4.8576,-4.861,-4.7581,-4.9202,-4.9363,-4.864,-4.9536,-5.0026,-5.0324,-5.0922,-5.1383,-5.1564,-5.1294,-5.1214,-5.1408,-5.293,-5.3473,-5.3407,-5.3098,-5.4644,-5.6003,-5.3063,-5.3052,-5.4158,-5.4148,-5.4641,-5.5164,-5.5129,-5.4606,-5.3909,-5.3247,-5.2449,-5.1794,-5.1794,-5.2053,-5.2164,-5.1835,-5.2412,-5.2834,-5.259,-5.2557,-5.1988,-5.0353,-5.0717,-5.081,-4.973,-4.9632,-4.9562,-4.9349,-4.9316,-4.8952,-4.8058,-4.7993,-4.774,-4.7232,-4.7504,-4.7704,-4.7704,-4.7935,-4.8227,-4.8702,-4.8702,-4.9195,-5.0206,-5.0228,-5.0675,-5.1505,-5.1907,-5.2198,-2.8936,-2.9633,-3.0606,-3.1132,-3.1182,-3.1329,-3.2421,-3.2265,-3.2042,-3.2381,-3.2634,-3.311,-3.4393,-3.4658,-3.5073,-3.6556,-3.7328,-3.7287,0.0,-3.6562,-3.74,-3.8039,-3.9766,-4.0756,-4.0259,-4.0864,-4.1215,-4.1087,-4.2429,-4.3816,-4.5048,-4.6746,-4.7961,-4.852,-4.82,-4.7699,-4.7098,-4.769,-4.7959,-4.7878,-4.7694,-4.7798,-4.8296,-4.9235,-4.8978,-4.7743,-4.9126,-4.9205,-4.8403,-4.9251,-4.9821,-5.0324,-5.1205,-5.1631,-5.1564,-5.1564,-5.1769,-5.2042,-5.2594,-5.3101,-5.3569,-5.3861,-5.4356,-5.4782,-5.4378,-5.3849,-5.3695,-5.4497,-5.4736,-5.4703,-5.5069,-5.4606,-5.3844,-5.2941,-5.2164,-5.1573,-5.1573,-5.1721,-5.1868,-5.1941,-5.2086,-5.2197,-5.223,-5.2125,-5.196,-5.1574,-5.1454,-5.1263,-5.0888,-5.0782,-5.0529,-5.0413,-5.0034,-4.9378,-4.8409,-4.769,-4.7221,-4.7199,-4.747,-4.7604,-4.7704,-4.777,-4.8098,-4.8702,-4.8702,-4.9135,-4.9999,-5.0228,-5.0864,-5.1989,-5.2406,-5.2556,-2.9617,-3.0624,-3.1604,-3.2206,-3.2462,-3.2956,-3.3816,-3.372,-3.3558,-3.3908,-3.4056,-3.4521,-3.5432,-3.5548,-3.5919,-3.7548,-3.8046,-3.7784,0.0,-3.7093,-3.7679,-3.8179,-3.9221,-3.9766,-3.9425,-4.0405,-4.1074,-4.13,-4.2938,-4.4393,-4.559,-4.7395,-4.8614,-4.9102,-4.8763,-4.8217,-4.7475,-4.7933,-4.806,-4.794,-4.7902,-4.8084,-4.852,-4.9133,-4.8903,-4.8026,-4.8951,-4.9041,-4.8426,-4.9122,-4.963,-5.0168,-5.1205,-5.1599,-5.1712,-5.1884,-5.229,-5.2624,-5.2769,-5.3274,-5.3837,-5.3805,-5.4262,-5.4933,-5.5061,-5.451,-5.3811,-5.4465,-5.449,-5.4391,-5.4606,-5.423,-5.3681,-5.2803,-5.2092,-5.1573,-5.1499,-5.1499,-5.1573,-5.1721,-5.1794,-5.1794,-5.1868,-5.1794,-5.1794,-5.198,-5.1688,-5.1499,-5.1424,-5.1275,-5.1199,-5.1048,-5.0704,-5.0025,-4.8762,-4.7819,-4.7253,-4.7131,-4.7267,-4.747,-4.7638,-4.7638,-4.8067,-4.8916,-4.8711,-4.9148,-5.0145,-5.0414,-5.1115,-5.2216,-5.2821,-5.3095]},{"header":{"parameterUnit":"m.s-1","parameterCategory":1,"la1":30.6,"la2":29.2853,"lo1":-89.7004,"lo2":-87.6739,"dy":0.0162,"dx":0.0183,"nx":112,"ny":82,"refTime":"2024-02-11T06:00:00:Z","depth":0,"parameterNumber":3,"parameterNumberName":"V-component_of_WINDS"},"data":[0.0,0.0,0.0,0.0,0.0,0.0,0.0,0.0,0.0,0.0,0.0,0.0,0.0,0.0,0.0,0.0,0.0,0.0,0.0,0.0,0.0,0.0,0.0,0.0,0.0,0.0,0.0,0.0,0.0,0.0,0.0,0.0,0.0,0.0,0.0,0.0,0.0,0.0,0.0,0.0,0.0,0.0,0.0,0.0,0.0,0.0,0.0,0.0,0.0,0.0,0.0,0.0,0.0,0.0,0.0,0.0,0.0,0.0,0.0,0.0,0.0,0.0,0.0,0.0,0.0,0.0,0.0,0.0,0.0,0.0,0.0,0.0,0.0,0.0,0.0,0.0,0.0,0.0,0.0,0.0,0.0,0.0,0.0,0.0,0.0,0.0,0.0,0.0,0.0,0.0,-0.6242,-0.6652,-0.6959,-0.6974,-0.6514,-0.6449,-0.6572,-0.6853,0.0,0.0,0.0,0.0,0.0,0.0,0.0,0.0,0.0,0.0,0.0,0.0,0.0,0.0,0.0,0.0,0.0,0.0,0.0,0.0,0.0,0.0,0.0,0.0,0.0,0.0,0.0,0.0,0.0,0.0,0.0,0.0,0.0,0.0,0.0,0.0,0.0,0.0,0.0,0.0,0.0,0.0,0.0,0.0,0.0,0.0,0.0,0.0,0.0,0.0,0.0,0.0,0.0,0.0,0.0,0.0,0.0,0.0,0.0,0.0,0.0,0.0,0.0,0.0,0.0,0.0,0.0,0.0,0.0,0.0,0.0,0.0,0.0,0.0,0.0,0.0,0.0,0.0,0.0,0.0,0.0,0.0,0.0,0.0,0.0,0.0,0.0,0.0,0.0,0.0,0.0,0.0,0.0,0.0,0.0,0.0,0.0,0.0,0.0,0.0,0.0,0.0,0.0,0.0,-0.8367,-0.7982,-0.7815,-0.733,-0.6403,-0.6397,-0.6403,-0.6318,0.0,0.0,0.0,0.0,0.0,0.0,0.0,0.0,0.0,0.0,0.0,0.0,0.0,0.0,0.0,0.0,0.0,0.0,0.0,0.0,0.0,0.0,0.0,0.0,0.0,0.0,0.0,0.0,0.0,0.0,0.0,0.0,0.0,0.0,0.0,0.0,0.0,0.0,0.0,0.0,0.0,0.0,0.0,0.0,0.0,0.0,0.0,0.0,0.0,0.0,0.0,0.0,0.0,0.0,0.0,0.0,0.0,0.0,0.0,0.0,0.0,0.0,0.0,0.0,0.0,0.0,0.0,0.0,0.0,0.0,0.0,0.0,0.0,0.0,0.0,0.0,0.0,0.0,0.0,0.0,0.0,0.0,0.0,0.0,0.0,0.0,0.0,0.0,0.0,0.0,0.0,0.0,0.0,0.0,0.0,0.0,0.0,0.0,0.0,0.0,0.0,0.0,0.0,-0.8944,-0.8805,-0.8493,-0.7873,-0.7221,-0.6573,-0.6283,-0.6051,-0.6104,-0.7194,0.0,0.0,0.0,0.0,0.0,0.0,0.0,0.0,0.0,0.0,0.0,0.0,0.0,0.0,0.0,0.0,0.0,0.0,0.0,0.0,0.0,0.0,0.0,0.0,0.0,0.0,0.0,0.0,0.0,0.0,0.0,0.0,0.0,0.0,0.0,0.0,0.0,0.0,0.0,0.0,0.0,0.0,0.0,0.0,0.0,0.0,0.0,0.0,0.0,0.0,0.0,0.0,0.0,0.0,0.0,0.0,0.0,0.0,0.0,0.0,0.0,0.0,0.0,0.0,0.0,0.0,0.0,0.0,0.0,0.0,0.0,0.0,0.0,0.0,0.0,0.0,0.0,0.0,0.0,0.0,0.0,0.0,0.0,0.0,0.0,0.0,0.0,0.0,0.0,0.0,0.0,0.0,0.0,0.0,0.0,0.0,0.0,0.0,0.0,0.0,0.0,0.0,-0.9339,-0.8776,-0.8758,-0.7716,-0.6826,-0.6553,-0.5884,-0.5558,-0.5913,-0.6761,0.0,0.0,0.0,0.0,0.0,0.0,0.0,0.0,0.0,0.0,0.0,0.0,0.0,0.0,0.0,0.0,0.0,0.0,0.0,0.0,0.0,0.0,0.0,0.0,0.0,0.0,0.0,0.0,0.0,0.0,0.0,0.0,0.0,0.0,0.0,0.0,0.0,0.0,0.0,0.0,0.0,0.0,0.0,0.0,0.0,0.0,0.0,0.0,0.0,0.0,0.0,0.0,0.0,0.0,0.0,0.0,0.0,0.0,0.0,0.0,0.0,0.0,0.0,0.0,0.0,0.0,0.0,0.0,0.0,0.0,0.0,0.0,0.0,0.0,0.0,0.0,0.0,0.0,0.0,0.0,0.0,0.0,0.0,0.0,0.0,0.0,0.0,0.0,0.0,0.0,0.0,0.0,0.0,0.0,0.0,0.0,0.0,0.0,0.0,0.0,0.0,0.0,-0.9418,-0.8733,-0.9041,-0.7647,-0.6471,-0.6018,-0.5189,-0.5032,-0.5725,-0.6235,0.0,0.0,0.0,0.0,0.0,0.0,0.0,0.0,0.0,0.0,0.0,0.0,0.0,0.0,0.0,0.0,0.0,0.0,0.0,0.0,0.0,0.0,0.0,0.0,0.0,0.0,0.0,0.0,0.0,0.0,0.0,0.0,0.0,0.0,0.0,0.0,0.0,0.0,0.0,0.0,0.0,0.0,0.0,0.0,0.0,0.0,0.0,0.0,0.0,0.0,0.0,0.0,0.0,0.0,0.0,0.0,0.0,0.0,0.0,0.0,0.0,0.0,0.0,0.0,0.0,0.0,0.0,0.0,0.0,0.0,0.0,0.0,0.0,0.0,0.0,0.0,0.0,0.0,0.0,0.0,0.0,0.0,0.0,0.0,0.0,0.0,0.0,0.0,0.0,0.0,0.0,0.0,0.0,0.0,0.0,0.0,0.0,0.0,0.0,0.0,0.0,0.0,-0.9572,-0.8893,-0.8673,-0.7458,-0.627,-0.5537,-0.5045,-0.4881,-0.5102,0.0,0.0,0.0,0.0,0.0,0.0,0.0,0.0,0.0,0.0,0.0,0.0,0.0,0.0,0.0,0.0,0.0,0.0,0.0,0.0,0.0,0.0,0.0,0.0,0.0,0.0,0.0,0.0,0.0,0.0,0.0,0.0,0.0,0.0,0.0,0.0,0.0,0.0,0.0,0.0,0.0,0.0,0.0,0.0,0.0,0.0,0.0,0.0,0.0,0.0,0.0,0.0,0.0,0.0,0.0,0.0,0.0,0.0,0.0,0.0,0.0,0.0,0.0,0.0,0.0,0.0,0.0,0.0,0.0,0.0,0.0,0.0,0.0,0.0,0.0,0.0,0.0,0.0,0.0,0.0,0.0,0.0,0.0,0.0,0.0,0.0,0.0,0.0,0.0,0.0,0.0,0.0,0.0,0.0,0.0,0.0,0.0,0.0,0.0,0.0,0.0,0.0,-1.0493,-0.9548,-0.8869,-0.8501,-0.7228,-0.6059,-0.5398,-0.4858,-0.4687,-0.4965,0.0,0.0,0.0,0.0,0.0,0.0,0.0,0.0,0.0,0.0,0.0,0.0,0.0,0.0,0.0,0.0,0.0,0.0,0.0,0.0,0.0,0.0,0.0,0.0,0.0,0.0,0.0,0.0,0.0,0.0,0.0,0.0,0.0,0.0,0.0,0.0,0.0,0.0,0.0,0.0,0.0,0.0,0.0,0.0,0.0,0.0,0.0,0.0,0.0,0.0,0.0,0.0,0.0,0.0,0.0,0.0,0.0,0.0,0.0,0.0,0.0,0.0,0.0,0.0,0.0,0.0,0.0,0.0,0.0,0.0,0.0,0.0,0.0,0.0,0.0,0.0,0.0,0.0,0.0,0.0,0.0,0.0,0.0,0.0,0.0,0.0,0.0,0.0,0.0,0.0,0.0,0.0,0.0,0.0,0.0,0.0,0.0,0.0,0.0,0.0,0.0,0.0,-1.0928,-0.9497,-0.8587,-0.8689,-0.6866,-0.5727,-0.568,-0.4773,-0.4603,0.0,0.0,0.0,0.0,0.0,0.0,0.0,0.0,0.0,0.0,0.0,0.0,0.0,0.0,0.0,0.0,0.0,0.0,0.0,0.0,0.0,0.0,0.0,0.0,0.0,0.0,0.0,0.0,0.0,0.0,0.0,0.0,0.0,0.0,0.0,0.0,0.0,0.0,0.0,0.0,0.0,0.0,0.0,0.0,0.0,0.0,0.0,0.0,0.0,0.0,0.0,0.0,0.0,0.0,0.0,0.0,0.0,0.0,0.0,0.0,0.0,0.0,0.0,0.0,0.0,0.0,0.0,0.0,0.0,0.0,0.0,0.0,0.0,0.0,0.0,0.0,0.0,0.0,0.0,0.0,0.0,0.0,0.0,0.0,0.0,0.0,0.0,0.0,0.0,0.0,0.0,0.0,0.0,0.0,0.0,0.0,0.0,0.0,0.0,0.0,0.0,0.0,0.0,-1.0881,-0.9552,-0.8446,-0.8042,-0.6866,-0.5726,-0.5034,-0.453,-0.4472,-0.4706,0.0,0.0,0.0,0.0,0.0,0.0,0.0,0.0,0.0,0.0,0.0,0.0,0.0,0.0,0.0,0.0,0.0,0.0,0.0,0.0,0.0,0.0,0.0,0.0,0.0,0.0,0.0,0.0,0.0,0.0,0.0,0.0,0.0,0.0,0.0,0.0,0.0,0.0,0.0,0.0,0.0,0.0,0.0,0.0,0.0,0.0,0.0,0.0,0.0,0.0,0.0,0.0,0.0,0.0,0.0,0.0,0.0,0.0,0.0,0.0,0.0,0.0,0.0,0.0,0.0,0.0,0.0,0.0,0.0,0.0,0.0,0.0,0.0,0.0,0.0,0.0,0.0,0.0,0.0,0.0,0.0,0.0,0.0,0.0,0.0,0.0,0.0,0.0,0.0,0.0,0.0,0.0,0.0,0.0,0.0,0.0,0.0,0.0,0.0,0.0,0.0,0.0,-1.0752,-0.9508,-0.8319,-0.7682,-0.6661,-0.5707,-0.4953,-0.4528,-0.4543,-0.4767,0.0,0.0,0.0,0.0,0.0,0.0,0.0,0.0,0.0,0.0,0.0,0.0,0.0,0.0,0.0,0.0,0.0,0.0,0.0,0.0,0.0,0.0,0.0,0.0,0.0,0.0,0.0,0.0,0.0,0.0,0.0,0.0,0.0,0.0,0.0,0.0,0.0,0.0,0.0,0.0,0.0,0.0,0.0,0.0,0.0,0.0,0.0,0.0,0.0,0.0,0.0,0.0,0.0,0.0,0.0,0.0,0.0,0.0,0.0,0.0,0.0,0.0,0.0,0.0,0.0,0.0,0.0,0.0,0.0,0.0,0.0,0.0,0.0,0.0,0.0,0.0,0.0,0.0,0.0,0.0,0.0,0.0,0.0,0.0,0.0,0.0,0.0,0.0,0.0,0.0,0.0,0.0,0.0,0.0,0.0,0.0,0.0,0.0,0.0,0.0,0.0,0.0,-1.0669,-0.9397,-0.8236,-0.7449,-0.6456,-0.5695,-0.5218,-0.4701,-0.4678,-0.5228,0.0,0.0,0.0,0.0,0.0,0.0,0.0,0.0,0.0,0.0,0.0,0.0,0.0,0.0,0.0,0.0,0.0,0.0,0.0,0.0,0.0,0.0,0.0,0.0,0.0,0.0,0.0,0.0,0.0,0.0,0.0,0.0,0.0,0.0,0.0,0.0,0.0,0.0,0.0,0.0,0.0,0.0,0.0,0.0,0.0,0.0,0.0,0.0,0.0,0.0,0.0,0.0,0.0,0.0,0.0,0.0,0.0,0.0,0.0,0.0,-1.1846,-1.1702,0.0,0.0,0.0,0.0,0.0,0.0,0.0,0.0,0.0,0.0,0.0,0.0,0.0,0.0,0.0,0.0,0.0,0.0,0.0,0.0,0.0,0.0,0.0,0.0,0.0,0.0,0.0,0.0,0.0,0.0,0.0,0.0,0.0,0.0,0.0,0.0,0.0,0.0,0.0,0.0,-1.061,-0.9218,-0.7968,-0.7269,-0.6328,-0.5572,-0.4926,-0.472,-0.4722,-0.4948,-0.5393,0.0,0.0,0.0,0.0,0.0,0.0,0.0,0.0,0.0,0.0,0.0,0.0,0.0,0.0,0.0,0.0,0.0,0.0,0.0,0.0,0.0,0.0,0.0,0.0,0.0,0.0,0.0,0.0,0.0,0.0,0.0,0.0,0.0,0.0,0.0,0.0,0.0,0.0,0.0,0.0,0.0,0.0,0.0,0.0,0.0,0.0,0.0,0.0,0.0,0.0,0.0,0.0,0.0,0.0,0.0,0.0,0.0,0.0,0.0,-1.2759,-1.2456,0.0,0.0,0.0,0.0,0.0,0.0,0.0,0.0,0.0,0.0,0.0,0.0,0.0,0.0,0.0,0.0,0.0,0.0,0.0,0.0,0.0,0.0,0.0,0.0,0.0,0.0,0.0,0.0,0.0,0.0,0.0,0.0,0.0,0.0,0.0,0.0,0.0,0.0,0.0,0.0,-1.067,-0.9296,-0.8087,-0.7285,-0.6514,-0.5723,-0.5031,-0.4912,-0.4927,-0.5211,-0.5536,0.0,0.0,0.0,0.0,0.0,0.0,0.0,0.0,0.0,0.0,0.0,0.0,0.0,0.0,0.0,0.0,0.0,0.0,0.0,0.0,0.0,0.0,0.0,0.0,0.0,0.0,0.0,0.0,0.0,0.0,0.0,0.0,0.0,0.0,0.0,0.0,0.0,0.0,0.0,0.0,0.0,0.0,0.0,0.0,0.0,0.0,0.0,0.0,0.0,0.0,0.0,0.0,0.0,-1.4591,-1.4813,-1.4826,-1.4846,-1.4879,-1.491,-1.4129,-1.3699,-1.3597,-1.3686,0.0,0.0,0.0,0.0,0.0,0.0,0.0,0.0,0.0,0.0,0.0,0.0,0.0,0.0,0.0,0.0,0.0,0.0,0.0,0.0,0.0,0.0,-1.0459,-1.1128,-1.1882,-1.2394,-1.2549,0.0,0.0,0.0,0.0,0.0,0.0,0.0,0.0,0.0,0.0,0.0,-1.0651,-0.9505,-0.8436,-0.7498,-0.6772,-0.6044,-0.5331,-0.5187,-0.5225,-0.5606,-0.5826,-0.6276,0.0,0.0,0.0,0.0,0.0,0.0,0.0,0.0,0.0,0.0,0.0,0.0,0.0,0.0,0.0,0.0,0.0,0.0,0.0,0.0,0.0,0.0,0.0,0.0,0.0,0.0,0.0,0.0,0.0,0.0,0.0,0.0,-1.7769,-1.8088,0.0,0.0,0.0,0.0,0.0,0.0,0.0,0.0,0.0,0.0,0.0,0.0,0.0,-1.451,-1.4741,-1.5305,-1.5389,-1.5167,-1.5287,-1.5531,-1.5738,-1.5716,-1.5744,-1.5732,-1.563,0.0,-1.3797,-1.3426,0.0,0.0,0.0,0.0,0.0,0.0,0.0,0.0,0.0,0.0,0.0,0.0,0.0,0.0,0.0,0.0,0.0,0.0,0.0,0.0,0.0,0.0,-1.1689,-1.2488,-1.3108,-1.3802,-1.4917,-1.4513,-1.4086,-1.4015,-1.3844,-1.3489,0.0,0.0,0.0,0.0,0.0,0.0,-1.0663,-0.9418,-0.8276,-0.7504,-0.6947,-0.6426,-0.5636,-0.5712,-0.5907,-0.5917,-0.5991,-0.6372,-0.7156,-0.7149,0.0,0.0,0.0,0.0,0.0,0.0,0.0,0.0,0.0,0.0,0.0,0.0,0.0,0.0,0.0,0.0,0.0,0.0,0.0,0.0,0.0,0.0,0.0,0.0,0.0,0.0,0.0,0.0,0.0,-1.8389,-1.8774,-1.9442,-1.9202,-1.8779,0.0,0.0,0.0,0.0,0.0,0.0,0.0,0.0,0.0,-1.5408,-1.6007,-1.6248,-1.606,-1.6457,-1.6512,-1.6139,-1.6012,-1.613,-1.6341,-1.6024,-1.6049,-1.6369,-1.6168,-1.5506,-1.4588,-1.415,-1.4134,-1.4279,0.0,0.0,0.0,0.0,-1.3773,-1.2729,-1.0715,-0.8808,-0.6913,-0.5286,0.0,0.0,0.0,0.0,0.0,0.0,0.0,-1.0778,-1.086,-1.1619,-1.2483,-1.3389,-1.4316,-1.518,-1.6051,-1.6209,-1.5886,-1.5299,-1.4644,-1.418,-1.3785,-1.3508,0.0,0.0,0.0,-1.1493,-1.081,-0.9708,-0.8726,-0.8021,-0.7403,-0.6842,-0.6342,-0.6377,-0.6498,-0.663,-0.6681,-0.6971,-0.7554,-0.7428,-0.7353,0.0,0.0,0.0,0.0,0.0,0.0,0.0,0.0,0.0,0.0,0.0,0.0,0.0,0.0,0.0,0.0,0.0,0.0,0.0,0.0,0.0,0.0,0.0,0.0,0.0,0.0,0.0,0.0,-1.9002,-1.9267,-2.0143,-2.0062,-1.9822,0.0,0.0,0.0,0.0,0.0,0.0,-1.6372,-1.7011,-1.7353,-1.7261,-1.7728,-1.7746,-1.7357,-1.757,-1.7424,-1.7123,-1.6799,-1.6636,-1.6737,-1.6342,-1.626,-1.6571,-1.6451,-1.6006,-1.5352,-1.5024,-1.4796,-1.4612,-1.4612,-1.4924,-1.5291,-1.4802,-1.4016,-1.3017,-1.1496,-1.0062,-0.8592,-0.6686,-0.7167,-0.8376,-0.7449,0.0,0.0,0.0,0.0,-1.1125,-1.1745,-1.2538,-1.3435,-1.4485,-1.5575,-1.6473,-1.7264,-1.7594,-1.7371,-1.6359,-1.5468,-1.4875,-1.4381,-1.3956,0.0,-1.3055,-1.2503,-1.1962,-1.1298,-1.0219,-0.9389,-0.877,-0.8192,-0.7578,-0.7147,-0.7111,-0.7178,-0.7376,-0.7431,-0.766,-0.8007,-0.7981,-0.7788,-0.7756,0.0,0.0,0.0,0.0,0.0,0.0,0.0,0.0,0.0,0.0,0.0,0.0,0.0,0.0,0.0,0.0,0.0,0.0,0.0,0.0,0.0,0.0,0.0,0.0,0.0,0.0,0.0,0.0,0.0,-1.9562,-1.9307,0.0,0.0,0.0,0.0,-1.839,-1.8545,-1.8475,-1.8313,-1.8983,-1.9272,-1.902,-1.8962,-1.9048,-1.8981,-1.8799,-1.8354,-1.7946,-1.7617,-1.7226,-1.6685,-1.6698,-1.6542,-1.6357,-1.6611,-1.6527,-1.6151,-1.5623,-1.5117,-1.4671,-1.4671,-1.5324,-1.6047,-1.5024,-1.4283,-1.331,-1.0095,-0.819,-0.7032,-0.6615,-0.7801,-0.9454,-0.9633,-0.9797,0.0,0.0,-1.1238,-1.1572,-1.2737,-1.368,-1.4667,-1.6253,-1.7076,-1.7753,-1.8875,-1.8568,-1.7747,-1.6927,-1.6303,-1.5629,-1.4854,0.0,-1.4138,-1.3659,-1.3029,-1.2533,-1.2312,-1.1095,-1.0069,-0.9556,-0.9368,-0.8996,-0.8052,-0.8186,-0.8243,-0.7947,-0.8169,-0.8297,-0.8446,-0.854,-0.8501,-0.8046,-0.7898,0.0,0.0,0.0,0.0,0.0,0.0,0.0,0.0,0.0,0.0,0.0,0.0,0.0,0.0,0.0,0.0,0.0,0.0,0.0,0.0,0.0,0.0,0.0,0.0,0.0,0.0,0.0,0.0,-2.1053,-2.0732,0.0,-2.0752,-2.0601,-2.0357,-2.0099,-2.0161,-2.0256,-2.0399,-2.0735,-2.1048,-2.1246,-2.1216,-2.0996,-2.038,-1.9747,-1.8974,-1.8268,-1.7835,-1.7447,-1.7231,-1.7085,-1.7004,-1.6771,-1.6955,-1.6767,-1.6357,-1.6446,-1.6014,-1.5114,-1.4911,-1.5398,-1.6006,-1.536,-1.5029,-1.4603,-1.3015,-1.155,-1.0373,-0.9404,-0.9696,-1.0416,-1.0843,-1.0994,-1.129,-1.2184,-1.2284,-1.2504,-1.4079,-1.4985,-1.5991,-1.7516,-1.8383,-1.8947,-1.9479,-1.9184,-1.8654,-1.7922,-1.6746,-1.5888,-1.5789,-1.5202,-1.475,-1.4642,-1.3975,-1.3236,-1.2608,-1.162,-1.0768,-1.0252,-0.9957,-0.9705,-0.9453,-0.9361,-0.9369,-0.9253,-0.9212,-0.9204,-0.9368,-0.9012,-0.8639,-0.8381,-0.7743,-0.7167,0.0,0.0,0.0,0.0,0.0,0.0,0.0,0.0,0.0,0.0,0.0,0.0,0.0,0.0,0.0,0.0,0.0,0.0,0.0,0.0,0.0,0.0,0.0,0.0,0.0,-2.0088,-2.0372,-2.171,-2.1651,-2.1589,-2.1919,-2.1876,-2.1876,-2.1724,-2.1808,-2.1942,-2.2232,-2.2381,-2.2588,-2.2809,-2.2551,-2.206,-2.1305,-2.0332,-1.9469,-1.8837,-1.8306,-1.7968,-1.7856,-1.7721,-1.7515,-1.7391,-1.735,-1.7159,-1.687,-1.7038,-1.6618,-1.577,-1.5467,-1.5712,-1.6227,-1.5557,-1.5434,-1.5443,-1.4364,-1.336,-1.245,-1.1502,-1.1239,-1.1517,-1.1695,-1.1983,-1.2343,-1.307,-1.3318,-1.3685,-1.5197,-1.6251,-1.7182,-1.8425,-1.9269,-1.9806,-1.9922,-1.9687,-1.9272,-1.884,-1.7544,-1.662,-1.6632,-1.6121,-1.5594,-1.5279,-1.4663,-1.3898,-1.3174,-1.2319,-1.1662,-1.1281,-1.0966,-1.081,-1.0776,-1.0531,-1.0404,-1.0305,-1.0099,-0.9969,-0.9809,-0.9333,-0.8977,-0.8772,-0.7711,-0.6918,-0.6461,0.0,0.0,0.0,0.0,0.0,0.0,0.0,0.0,0.0,0.0,0.0,0.0,0.0,0.0,0.0,0.0,0.0,0.0,0.0,0.0,0.0,0.0,0.0,-2.0337,-2.0428,-2.0779,-2.153,-2.1759,-2.2025,-2.2195,-2.2588,-2.2981,-2.3411,-2.3555,-2.3669,-2.3737,-2.3847,-2.3722,-2.3347,-2.2724,-2.2204,-2.1665,-2.0482,-1.9823,-1.9771,-1.916,-1.8741,-1.8477,-1.8477,-1.8315,-1.8021,-1.7665,-1.7712,-1.7972,-1.7256,-1.6868,-1.6609,-1.6351,-1.6511,-1.6851,-1.5594,-1.5489,-1.5528,-1.3923,-1.3238,-1.3117,-1.2587,-1.2698,-1.2812,-1.2502,-1.251,-1.2876,-1.3614,-1.4275,-1.4957,-1.6047,-1.7144,-1.8282,-1.9125,-1.9653,-2.0109,-2.0451,-2.0101,-1.9583,-1.9376,-1.8611,-1.7886,-1.7373,-1.6914,-1.6426,-1.5619,-1.5033,0.0,-1.3941,-1.3393,-1.2971,-1.2664,-1.2654,-1.246,-1.1964,-1.1801,-1.1478,-1.0954,-1.0864,-1.0517,-0.9919,-0.9652,-0.9455,-0.9119,-0.7948,-0.6807,-0.57,0.0,0.0,0.0,0.0,0.0,0.0,0.0,0.0,0.0,0.0,0.0,0.0,0.0,0.0,0.0,0.0,0.0,0.0,0.0,0.0,0.0,-2.2172,-2.2136,-2.146,-2.1589,-2.2145,-2.3123,-2.3076,-2.3371,-2.4195,-2.4256,-2.4222,-2.4175,-2.4467,-2.4564,-2.417,-2.4297,-2.4401,-2.4291,-2.3804,-2.3035,-2.2245,-2.1273,-2.0494,-1.9785,-1.9375,-1.8928,-1.8446,-1.8428,-1.8109,-1.7603,-1.7603,-1.7418,-1.7256,-1.702,-1.675,-1.6188,-1.593,-1.6103,-1.6287,-1.5478,-1.5598,-1.5931,-1.5264,-1.5085,-1.4948,-1.4246,-1.413,-1.4361,-1.3811,-1.3911,-1.418,-1.482,-1.5294,-1.5891,-1.7239,-1.824,-1.9052,-1.9731,-2.0333,-2.0594,-2.0277,-1.9983,-1.9583,-1.9078,-1.8797,-1.8428,-1.7893,-1.7221,-1.6587,-1.6365,-1.594,-1.5364,-1.4725,-1.425,-1.389,-1.373,-1.3456,-1.3164,-1.2899,-1.2491,-1.2075,-1.1693,-1.1268,-1.0967,-1.0798,-0.9977,-0.9082,-0.782,-0.7397,-0.6816,0.0,0.0,0.0,0.0,0.0,0.0,0.0,0.0,0.0,0.0,0.0,0.0,0.0,0.0,0.0,0.0,0.0,0.0,0.0,0.0,0.0,0.0,-2.3821,-2.4189,-2.4009,-2.3597,-2.3652,-2.4391,-2.4516,-2.4789,-2.5208,-2.533,-2.5141,-2.4805,-2.5002,-2.4914,-2.4584,-2.4544,-2.4533,-2.447,-2.4139,-2.3471,-2.2609,-2.1785,-2.1026,-2.041,-2.0131,-1.9652,-1.9206,-1.915,-1.8765,-1.8064,-1.783,-1.7361,-1.7009,-1.6903,-1.6549,-1.6065,0.0,0.0,0.0,0.0,-1.5954,-1.6053,-1.5787,-1.5776,-1.5649,-1.482,-1.4811,-1.5055,-1.4375,-1.46,-1.503,-1.5565,-1.6099,-1.6842,-1.8003,-1.8945,-1.9746,-2.002,-2.0507,-2.0775,-2.0209,-2.0097,-1.9894,-1.948,-1.9168,0.0,-1.8422,-1.7657,-1.6977,-1.6711,-1.6205,-1.5779,-1.547,-1.5128,-1.4941,-1.4764,-1.441,-1.3997,-1.3752,-1.3132,0.0,0.0,0.0,-1.0898,-1.0361,-0.9793,0.0,0.0,0.0,-0.6721,-0.6064,-0.6064,0.0,0.0,-0.4723,-0.4741,0.0,0.0,0.0,0.0,0.0,0.0,0.0,0.0,0.0,0.0,0.0,0.0,0.0,0.0,0.0,0.0,-2.5732,-2.6466,-2.7125,-2.626,-2.5522,-2.5442,-2.5941,-2.6133,-2.5784,-2.5952,-2.5976,-2.541,-2.5277,-2.5061,-2.4909,-2.4774,0.0,0.0,0.0,-2.3472,-2.2683,-2.1923,-2.1474,-2.1203,-2.0911,-2.0586,-2.027,-2.0155,-1.9693,-1.8765,-1.8052,-1.7467,-1.6879,-1.6537,-1.6301,-1.6065,-1.6076,-1.6087,-1.6087,-1.6419,-1.6431,-1.6172,-1.5937,0.0,0.0,-1.4939,-1.5076,-1.5255,-1.4593,-1.4968,-1.5672,-1.6028,-1.6868,-1.7793,-1.8617,-1.945,-2.0112,-2.0023,-2.0397,-2.0743,-2.0124,-2.0296,-2.0411,-2.0189,-1.9672,-1.9272,-1.8826,-1.8199,-1.7477,-1.6842,-1.6311,-1.5992,-1.5992,-1.5992,-1.5895,-1.5523,-1.5279,0.0,-1.4333,-1.3579,-1.284,-1.2255,-1.1624,-1.0689,-0.9467,-0.9246,-0.8577,-0.7266,-0.7166,-0.6704,-0.5992,-0.5987,-0.5843,-0.546,-0.4264,-0.419,0.0,0.0,0.0,0.0,0.0,0.0,0.0,0.0,0.0,0.0,0.0,0.0,0.0,0.0,0.0,-2.6737,-2.7698,-2.8573,-2.8789,-2.8962,-2.8642,-2.7323,-2.6794,-2.6681,-2.7033,-2.6763,-2.6428,-2.5952,-2.5729,-2.5478,-2.524,-2.4881,-2.4728,-2.5,-2.4128,-2.336,-2.2909,-2.2055,-2.1487,-2.1203,-2.0902,0.0,-1.9924,-1.9345,-1.8765,-1.8194,-1.7491,-1.6891,-1.6537,-1.6312,-1.6205,-1.6076,-1.6087,-1.6087,-1.6087,-1.6419,-1.6667,-1.6903,-1.7079,-1.6973,-1.6727,-1.6356,-1.6136,-1.5997,-1.5893,-1.6017,0.0,-1.7016,-1.7569,-1.8122,-1.875,-1.948,-2.0071,-2.0112,-2.0364,-2.0498,-2.0436,-2.0467,-2.0411,-2.0189,-1.9983,-1.9672,-1.893,-1.8318,-1.7701,-1.7173,-1.7067,-1.6855,-1.663,-1.6524,-1.6411,-1.6135,-1.5915,-1.5383,-1.4596,-1.3854,-1.3204,-1.2595,-1.1603,-1.0636,-0.9625,-0.9294,-0.8713,-0.7808,-0.7421,-0.6954,-0.6608,-0.6404,-0.6294,-0.6168,-0.5422,-0.4975,0.0,0.0,0.0,0.0,0.0,0.0,0.0,0.0,0.0,0.0,0.0,-2.7903,-2.7839,0.0,-2.8575,-2.8694,-2.9565,-3.0328,-3.0439,-3.0661,-3.0331,-2.8994,-2.8359,-2.807,-2.8058,-2.7479,-2.6923,-2.6559,-2.6072,-2.5732,-2.5637,-2.5326,-2.5054,-2.4982,-2.4111,-2.3456,-2.2796,-2.2116,-2.1561,-2.1203,-2.1203,-2.0816,-2.0261,-1.9761,-1.9193,-1.8395,-1.7551,-1.6891,-1.6301,-1.5957,-1.5968,-1.6087,-1.6194,-1.6431,-1.6537,-1.64,-1.6669,-1.7009,-1.6868,-1.6798,-1.6738,-1.6484,-1.631,-1.6159,-1.6227,-1.6514,-1.6845,-1.7595,-1.814,-1.8646,-1.9272,-1.9776,-2.0143,-2.0178,-2.0476,-2.0672,-2.0499,-2.0696,-2.0822,-2.0498,-2.0395,-2.0086,-1.9361,-1.8855,-1.824,-1.7701,-1.749,-1.749,-1.7582,-1.7477,-1.716,-1.6756,-1.6213,-1.5542,-1.4688,-1.3637,-1.2749,-1.223,-1.1413,-1.0619,-0.9761,-0.9212,-0.8533,-0.7749,-0.7372,-0.7042,-0.6842,-0.6642,-0.6537,-0.6431,-0.6023,-0.5776,0.0,0.0,0.0,0.0,0.0,0.0,0.0,-3.1567,-3.114,-3.0868,-3.0108,-2.944,-2.9561,-3.0037,-3.0462,-3.0534,-3.1182,-3.1832,-3.1941,-3.1814,-3.1375,-3.0592,-2.9925,-2.9444,-2.9053,-2.8421,-2.7742,-2.7377,-2.6598,-2.6206,-2.6231,-2.5788,-2.5308,-2.4872,-2.4223,-2.344,-2.257,-2.2002,-2.1591,-2.1306,-2.1536,-2.1351,-2.0802,-2.0447,-1.973,-1.8822,-1.7836,-1.7009,-1.629,-1.5946,-1.6076,-1.6431,-1.6655,-1.6891,-1.6997,-1.6553,-1.6611,-1.6997,-1.6553,-1.6377,-1.6385,-1.6192,-1.6102,-1.6103,-1.641,-1.6735,-1.7226,-1.7916,-1.8429,-1.8974,-1.9776,-2.0028,-2.0205,-2.0373,-2.0664,-2.0822,-2.0676,-2.1071,-2.1296,-2.1027,-2.0767,-2.0488,-1.9791,-1.9272,-1.866,-1.8122,-1.7898,-1.7898,-1.8318,-1.8122,-1.7789,-1.7284,-1.6458,-1.5658,-1.4686,-1.3431,-1.2477,-1.17,-1.1308,-1.0594,-0.9797,-0.9116,-0.8445,-0.7792,-0.7478,-0.7278,-0.6977,-0.6983,-0.6776,-0.6575,-0.6597,-0.6385,-3.3026,-3.2019,-3.1293,-3.139,-3.2795,-3.401,0.0,-3.422,-3.451,-3.2643,-3.2381,-3.2066,-3.0811,-3.1452,-3.2046,-3.1367,-3.23,-3.2955,-3.2494,-3.2613,-3.271,-3.261,-3.1108,-3.0144,-3.0299,-2.9593,-2.8962,-2.8696,-2.7762,-2.7231,-2.7075,-2.6143,-2.5554,-2.5203,-2.4334,-2.344,-2.257,-2.2002,-2.171,-2.1642,-2.1408,-2.1213,-2.1138,-2.0509,-1.9773,-1.8822,-1.7612,-1.7009,-1.6879,-1.6891,-1.702,-1.7361,-1.7361,-1.7361,-1.7361,-1.6985,-1.6997,-1.702,-1.6879,-1.6526,-1.6194,-1.6172,-1.6121,-1.6195,-1.6704,-1.6964,-1.7316,-1.8413,-1.8628,-1.8632,-1.9272,-1.9807,-2.0242,-2.0442,-2.0612,-2.0752,-2.1436,-2.1734,-2.169,-2.128,-2.137,-2.1065,-1.994,-1.9272,-1.8764,-1.8422,-1.8318,-1.8318,-1.8422,-1.8122,-1.7907,-1.7606,-1.6964,-1.6045,-1.4432,-1.3677,-1.2846,-1.1815,-1.1308,-1.054,-0.964,-0.9384,-0.8916,-0.8248,-0.7935,-0.7827,-0.7827,-0.7527,-0.7425,-0.7425,-0.7229,-0.6746,-3.3304,-3.2908,-3.29,-3.3364,-3.4453,-3.5469,-3.5898,-3.6257,-3.618,-3.5272,-3.4794,-3.436,-3.3639,-3.3792,-3.382,-3.3263,-3.3529,-3.3637,-3.3244,-3.3055,-3.2778,-3.246,-3.1684,-3.1184,-3.1099,-3.0274,-2.9824,-2.9766,-2.8594,-2.7901,-2.8074,-2.697,-2.6162,-2.5771,-2.4556,-2.3664,-2.3135,-2.223,-2.184,-2.192,-2.1569,-2.1475,-2.1446,-2.0794,-1.9826,-1.8596,-1.7836,-1.7479,-1.7361,-1.7713,-1.7713,-1.7479,-1.7726,-1.7726,-1.7467,-1.6961,-1.6891,-1.7009,-1.6623,-1.6306,-1.6076,-1.6312,-1.6234,-1.6249,-1.6797,-1.7122,-1.7527,-1.8588,-1.8946,-1.9062,-1.9828,-2.0253,-2.0527,-2.1031,-2.1215,-2.1597,-2.2176,-2.2573,-2.2639,-2.2281,-2.178,-2.1281,-2.0616,-1.9807,-1.9376,-1.9361,-1.8945,-1.875,-1.8855,-1.8646,-1.8185,-1.7213,-1.6567,-1.5731,-1.4349,-1.4019,-1.3495,-1.2421,-1.2009,-1.1292,-1.0412,-1.0047,-0.9503,-0.8916,-0.8515,-0.8262,-0.8153,-0.7769,-0.7471,-0.7244,-0.709,-0.6785,-3.3889,-3.3855,-3.4254,-3.5277,-3.6009,-3.6808,-3.7991,-3.7989,-3.773,-3.7504,-3.6904,-3.6241,-3.6015,-3.5745,-3.5357,-3.4603,-3.4292,-3.3965,-3.3568,-3.3055,-3.2528,-3.2044,-3.1783,-3.1683,-3.1512,-3.0729,-3.0342,-3.0578,-2.9351,-2.8615,-2.886,-2.7746,-2.6774,-2.61,-2.4889,-2.3999,-2.336,-2.2549,-2.2075,-2.2171,-2.1906,-2.1747,-2.1892,-2.1094,-1.9945,-1.8709,-1.8302,-1.8214,-1.8171,-1.845,-1.8345,-1.8052,-1.8109,-1.7954,-1.7551,-1.6949,-1.6856,-1.6762,-1.6343,-1.611,-1.6093,-1.6279,-1.6374,-1.6294,-1.6878,-1.7256,-1.7831,-1.8539,-1.9085,-1.9566,-2.0332,-2.0624,-2.0888,-2.1542,-2.1913,-2.2285,-2.2938,-2.3218,-2.3252,-2.2815,-2.2176,-2.1544,-2.1012,-2.03,-1.9879,-2.0086,-1.9583,-1.9272,-1.9376,-1.9063,-1.8331,-1.7054,-1.6418,-1.5779,-1.4708,-1.4493,-1.3954,-1.3098,-1.251,-1.1782,-1.0923,-1.0478,-1.0079,-0.9504,-0.9071,-0.8902,-0.8688,-0.8275,-0.7975,-0.7559,-0.7491,-0.71,-3.4755,-3.4665,-3.4715,-3.6406,-3.7367,-3.8115,-3.9152,-3.9542,-3.9556,-3.9155,-3.8475,-3.7704,-3.7111,-3.6765,-3.6213,-3.4993,-3.4531,-3.404,-3.3092,-3.2438,-3.2022,-3.1703,-3.13,-3.1113,-3.1307,-3.096,-3.0909,-3.1137,-2.995,-2.9374,-2.9513,-2.8291,-2.7093,-2.6191,-2.5441,-2.4445,-2.3022,-2.3012,-2.2889,-2.2632,-2.2219,-2.2276,-2.2591,-2.1286,-2.0385,-1.9728,-1.9069,-1.9228,-1.9715,-1.9069,-1.8987,-1.9203,-1.8576,-1.8224,-1.7829,-1.7221,-1.6773,-1.6537,-1.6194,-1.5909,-1.5754,-1.5998,-1.6377,-1.668,-1.6938,-1.7414,-1.8008,-1.8324,-1.8915,-1.9566,-2.0019,-2.0693,-2.1395,-2.2145,-2.2429,-2.2699,-2.3521,-2.3527,-2.3244,-2.2881,-2.2371,-2.183,-2.1059,-2.0508,-2.0086,-2.0086,-2.0086,-1.9983,-1.9672,-1.8945,-1.8213,-1.7582,-1.7054,-1.6418,-1.5885,-1.503,-1.4169,-1.3315,-1.2762,-1.1882,-1.0798,-1.068,-1.0373,-0.9563,-0.9555,-0.9548,-0.9548,-0.954,-0.9441,-0.9126,-0.862,-0.7889,-3.5391,-3.6366,-3.7241,-3.8172,-3.9154,-4.007,-4.0753,-4.1018,-4.0953,-4.0459,-3.9452,-3.8281,-3.7343,-3.6227,-3.5341,-3.4994,-3.4433,-3.4053,-3.3697,-3.3009,-3.2149,-3.0887,-3.0855,-3.08,-3.0351,-3.0787,-3.12,-3.1403,-3.0863,-3.0326,-2.9869,-2.9146,-2.8076,-2.6754,-2.6287,-2.5412,-2.4267,-2.3937,-2.37,-2.3564,-2.3044,-2.2505,-2.1853,-2.1051,-2.0628,-2.0398,-2.0214,-2.0147,-2.0119,-2.0361,-2.0013,-1.9242,-1.9031,-1.8397,-1.7505,-1.7063,-1.6686,-1.6194,-1.6087,-1.5784,-1.5365,-1.5935,-1.6138,-1.6306,-1.6879,-1.743,-1.8172,-1.884,-1.9347,-1.9849,-2.0881,-2.1519,-2.203,-2.2688,-2.3292,-2.3894,-2.4545,-2.4614,-2.4556,-2.4419,-2.3253,-2.2355,-2.2209,-2.1499,-2.0909,-2.1113,-2.0601,-1.9983,-1.9776,-1.9272,-1.875,-1.7911,-1.7384,-1.6736,-1.5992,-1.5256,-1.46,-1.3954,-1.3315,-1.2663,-1.1891,-1.1673,-1.1319,-1.0925,-1.0485,-1.0313,-1.042,-0.9777,-0.9466,-0.9463,-0.8757,-0.7913,-3.6582,-3.7666,-3.8777,-3.9764,-4.0462,-4.1055,-4.2011,-4.1909,-4.1477,-4.0764,-3.9532,-3.8283,-3.6847,-3.5521,-3.4616,-3.4388,-3.3882,-3.3528,-3.3371,-3.2636,-3.1748,-3.0592,-3.0658,-3.0581,-3.0252,-3.0833,-3.1428,-3.1688,-3.1576,-3.127,-3.0664,-2.9937,-2.8878,-2.754,-2.6709,-2.5829,-2.4906,-2.446,-2.4165,-2.4039,-2.3514,-2.2798,-2.195,-2.1617,-2.1272,-2.1026,-2.108,-2.0944,-2.0794,-2.1039,-2.0563,-1.9547,-1.9445,-1.8741,-1.7659,-1.719,-1.6766,-1.6324,-1.6076,-1.5666,-1.559,-1.6161,-1.648,-1.6763,-1.7337,-1.7843,-1.8428,-1.9113,-1.9496,-2.0102,-2.1141,-2.182,-2.227,-2.3055,-2.3805,-2.4445,-2.511,-2.511,-2.5,-2.4906,-2.3745,-2.2815,-2.2798,-2.21,-2.1571,-2.1907,-2.1091,-2.0395,-1.9879,-1.948,-1.8959,-1.8227,-1.7701,-1.7067,-1.6205,-1.5672,-1.503,-1.4385,-1.3846,-1.3207,-1.2436,-1.2219,-1.2001,-1.1573,-1.1116,-1.0949,-1.1164,-1.0477,-1.0077,-0.9859,-0.9037,-0.8221,-3.8299,-3.8811,-3.938,-4.1126,-4.1216,-4.1155,-4.2574,-4.2193,-4.1241,-4.0032,-3.8883,-3.7456,-3.5602,-3.468,-3.3972,-3.3118,-3.2869,-3.2551,-3.2156,-3.1517,-3.1016,-3.0943,-3.0712,-3.0722,-3.0887,-3.1252,-3.1573,-3.2059,-3.1984,-3.193,-3.1868,-3.0591,-2.949,-2.8616,-2.7103,-2.59,-2.4956,-2.4601,-2.4389,-2.4115,-2.3743,-2.3316,-2.2667,-2.2601,-2.2324,-2.1807,-2.1807,-2.1714,-2.1587,-2.13,-2.0855,-2.0081,-1.9801,-1.915,-1.8287,-1.7659,-1.7279,-1.6949,-1.599,-1.5943,-1.6217,-1.6798,-1.7298,-1.7728,-1.8222,-1.8648,-1.8997,-1.9243,-1.959,-2.0033,-2.0959,-2.1612,-2.2498,-2.3611,-2.4226,-2.459,-2.5128,-2.5,-2.4795,-2.459,-2.3871,-2.3241,-2.2888,-2.2187,-2.1857,-2.2237,-2.1767,-2.1011,-2.0292,-1.9687,-1.9063,-1.8527,-1.7898,-1.7371,-1.6723,-1.6205,-1.5458,-1.46,-1.4277,-1.3521,-1.2327,-1.2327,-1.211,-1.1564,-1.1573,-1.1673,-1.1673,-1.1432,-1.1077,-1.0521,-0.9774,-0.8684,-4.0959,-4.1392,-4.1431,-4.2138,-4.2107,-4.1865,-4.1285,-4.0474,-3.9577,-3.8649,-3.6642,-3.4753,-3.353,-3.2829,-3.2301,-3.1872,-3.2543,-3.2981,-3.2665,-3.2499,-3.1972,-3.1052,-3.102,-3.123,-3.1512,-3.2062,-3.252,-3.274,-3.2038,-3.1636,-3.1803,-3.1154,-3.0175,-2.8968,-2.8302,-2.7182,-2.5696,-2.498,-2.4517,-2.4487,-2.4115,-2.3698,-2.2988,-2.2702,-2.2563,-2.2366,-2.2366,-2.2159,-2.1978,-2.1895,-2.1294,-2.0475,-2.0397,-1.9688,-1.8577,-1.8753,-1.83,-1.7584,-1.7706,-1.7171,-1.6457,-1.7103,-1.7547,-1.7965,-1.8622,-1.8997,-1.9345,-1.9924,-2.006,-2.0442,-2.1805,-2.2688,-2.3332,-2.4353,-2.4948,-2.5569,-2.6118,-2.5898,-2.5569,-2.6008,-2.5148,-2.421,-2.3514,-2.2945,-2.2655,-2.2859,-2.1973,-2.1113,-2.0704,-2.0189,-1.9569,-1.8826,-1.8003,-1.7371,-1.6723,-1.6004,-1.5041,-1.3727,-1.3176,-1.22,-1.0781,-1.1455,-1.1564,-1.1236,-1.1891,-1.2219,-1.2219,-1.1655,-1.1301,-1.1085,-0.9996,-0.88,-4.2028,-4.2169,-4.2059,-4.2181,-4.1913,-4.1319,-4.033,-3.8996,-3.7613,-3.6403,-3.4317,-3.2349,-3.1241,-3.0701,-3.0482,-3.058,-3.138,-3.2082,-3.2294,-3.2385,-3.2307,-3.1739,-3.1838,-3.198,-3.2141,-3.2568,-3.2884,-3.3117,-3.2793,-3.2426,-3.207,-3.1431,-3.0551,-2.9278,-2.8228,-2.7123,-2.5512,-2.5114,-2.4734,-2.461,-2.4239,-2.3852,-2.3355,-2.2856,-2.2731,-2.2856,-2.2606,-2.248,-2.2355,-2.2104,-2.1614,-2.0729,-2.0488,-1.9928,-1.9175,-1.9175,-1.8877,-1.8521,-1.8888,-1.8434,-1.7805,-1.8158,-1.8357,-1.8685,-1.9269,-1.9577,-1.9809,-2.0385,-2.0402,-2.054,-2.1841,-2.253,-2.3299,-2.4285,-2.4896,-2.5459,-2.6227,-2.6008,-2.57,-2.5882,-2.5234,-2.4489,-2.3788,-2.3402,-2.3178,-2.3255,-2.2366,-2.1522,-2.113,-2.0498,-1.9761,-1.8722,-1.8213,-1.7371,-1.6086,-1.5565,-1.4482,-1.2635,-1.22,-1.1428,-1.0233,-1.1227,-1.1564,-1.1126,-1.211,-1.2446,-1.2219,-1.1854,-1.1532,-1.1086,-1.0179,-0.9216,-4.234,-4.2196,-4.1871,-4.1724,-4.1019,-4.0057,-3.9207,-3.7368,-3.5357,-3.3688,-3.1823,-3.0241,-2.9223,-2.9043,-2.9148,-2.9504,-3.0193,-3.0932,-3.1619,-3.2042,-3.237,-3.2499,-3.2744,-3.2827,-3.2894,-3.2853,-3.3031,-3.3265,-3.3835,-3.3638,-3.2553,-3.1543,-3.0522,-2.9122,-2.7623,-2.6354,-2.5226,-2.5103,-2.498,-2.461,-2.4363,-2.4115,-2.3728,-2.3054,-2.2943,-2.3179,-2.2928,-2.2803,-2.2663,-2.2244,-2.1727,-2.1109,-2.0488,-2.008,-1.985,-1.9475,-1.9448,-1.9491,-1.9846,-1.9723,-1.944,-1.9468,-1.9456,-1.9496,-2.0178,-2.0428,-2.05,-2.073,-2.0629,-2.0735,-2.1658,-2.2308,-2.2938,-2.4098,-2.4683,-2.5145,-2.6026,-2.6008,-2.5775,-2.5213,-2.4927,-2.4593,-2.3994,-2.3604,-2.348,-2.346,-2.2673,-2.1827,-2.1318,-2.0601,-1.9672,-1.8632,-1.8318,-1.7252,-1.5221,-1.49,-1.3706,-1.1428,-1.1319,-1.0891,-0.9904,-1.1109,-1.1546,-1.1017,-1.2327,-1.2663,-1.2001,-1.2046,-1.1544,-1.0655,-1.0375,-0.9559,-4.4144,-4.3339,-4.1971,-4.1757,-4.051,-3.8774,-3.6469,-3.4416,-3.2585,-3.1232,-2.9576,-2.852,-2.9158,-2.9448,-2.9571,-2.9714,-3.0965,-3.194,-3.1734,-3.2558,-3.2978,-3.2869,-3.306,-3.3186,-3.3123,-3.3626,-3.3704,-3.3008,-3.3386,-3.345,-3.2675,-3.1532,-3.014,-2.8271,-2.7194,-2.6261,-2.5488,-2.5488,-2.5365,-2.498,-2.498,-2.4734,-2.4378,-2.4022,-2.3873,-2.3896,-2.3896,-2.3515,-2.2978,-2.2594,-2.2104,-2.1488,-2.1109,-2.0703,-2.0537,-2.065,-2.0624,-2.0459,-2.1074,-2.0836,-2.0367,-2.0212,-2.0107,-2.0128,-2.0545,-2.0829,-2.1089,-2.1432,-2.1421,-2.1673,-2.2847,-2.337,-2.388,-2.4827,-2.5296,-2.5679,-2.6336,-2.6881,-2.6854,-2.5841,-2.5778,-2.5526,-2.4097,-2.3806,-2.358,-2.3255,-2.2366,-2.1623,-2.1027,-2.0498,-1.9879,-1.9168,-1.7674,-1.6287,-1.5423,-1.403,-1.2309,-1.0233,-1.0123,-0.9471,-0.8152,-0.9904,-1.0891,-1.0781,-1.2436,-1.2881,-1.2327,-1.1801,-1.12,-1.0647,-1.0023,-0.934,-4.3953,-4.3138,-4.1951,-4.1619,-4.0032,-3.805,-3.5899,-3.3249,-3.095,-2.9748,-2.8318,-2.7523,-2.8383,-2.8715,-2.9075,-2.9824,-3.0577,-3.1311,-3.1924,-3.2747,-3.3355,-3.3522,-3.38,-3.4046,-3.4188,-3.4403,-3.4207,-3.3759,-3.3465,-3.3035,-3.2011,-3.0683,-2.9315,-2.7779,-2.7122,-2.6527,-2.5839,-2.5839,-2.5691,-2.5389,-2.5199,-2.4951,-2.4625,-2.4224,-2.4044,-2.4112,-2.4163,-2.3749,-2.3078,-2.2921,-2.2384,-2.1614,-2.1235,-2.0982,-2.0856,-2.0856,-2.0982,-2.1235,-2.1727,-2.1614,-2.1434,-2.152,-2.0984,-2.0452,-2.0906,-2.1118,-2.1318,-2.1561,-2.1669,-2.1918,-2.3087,-2.3566,-2.3911,-2.5186,-2.6008,-2.6663,-2.6772,-2.7314,-2.7283,-2.605,-2.5881,-2.5573,-2.4235,-2.3881,-2.3609,-2.308,-2.235,-2.1623,-2.0822,-1.9864,-1.893,-1.8199,-1.7134,-1.5743,-1.4019,-1.2842,-1.1328,-0.9471,-0.9251,-0.8699,-0.7826,-0.9794,-1.0891,-1.0672,-1.2436,-1.2881,-1.2219,-1.1766,-1.1167,-1.0532,-1.0237,-0.968,-4.3041,-4.2489,-4.1728,-4.1219,-3.9247,-3.6927,-3.5251,-3.2201,-2.9452,-2.8692,-2.7573,-2.7147,-2.835,-2.8497,-2.8819,-3.0088,-3.0388,-3.0882,-3.2123,-3.2919,-3.3597,-3.4171,-3.4521,-3.4792,-3.483,-3.4615,-3.4403,-3.4007,-3.3283,-3.2281,-3.1166,-2.983,-2.8635,-2.7782,-2.7258,-2.6941,-2.6438,-2.6394,-2.6142,-2.5753,-2.5469,-2.5187,-2.4795,-2.4675,-2.4464,-2.4471,-2.4401,-2.3998,-2.3236,-2.3078,-2.2469,-2.1614,-2.1235,-2.1109,-2.1109,-2.0856,-2.1109,-2.1614,-2.2104,-2.2104,-2.2104,-2.248,-2.1849,-2.0981,-2.118,-2.1453,-2.1521,-2.169,-2.1888,-2.2343,-2.336,-2.3697,-2.4128,-2.5569,-2.6663,-2.7314,-2.7206,-2.7561,-2.7506,-2.6135,-2.5825,-2.5424,-2.428,-2.3755,-2.3438,-2.2837,-2.2215,-2.1623,-2.0617,-1.9242,-1.7975,-1.6804,-1.6274,-1.4984,-1.2635,-1.1655,-1.0453,-0.903,-0.8595,-0.8374,-0.8152,-1.0014,-1.1,-1.0899,-1.2436,-1.2881,-1.2219,-1.1877,-1.128,-1.0539,-1.0472,-1.0158,-4.209,-4.1814,-4.1194,-4.021,-3.7641,-3.482,-3.2346,-2.9679,-2.7705,-2.7873,-2.7212,-2.7525,-3.0193,-3.0103,-2.996,-3.1113,-3.1598,-3.2066,-3.2463,-3.3399,-3.4195,-3.4597,-3.4751,-3.4552,-3.38,-3.4116,-3.3832,-3.248,-3.1767,-3.1169,-3.049,-2.9605,-2.8835,-2.8569,-2.7539,-2.731,-2.7563,-2.717,-2.6772,-2.6129,-2.6328,-2.6167,-2.5525,-2.5804,-2.5712,-2.5514,-2.5405,-2.4728,-2.3473,-2.329,-2.2566,-2.1614,-2.1235,-2.1109,-2.1109,-2.1362,-2.1614,-2.1727,-2.2355,-2.2355,-2.2104,-2.248,-2.2253,-2.1911,-2.1718,-2.2009,-2.2397,-2.2093,-2.2683,-2.3472,-2.4144,-2.4462,-2.5,-2.6209,-2.6772,-2.7206,-2.7745,-2.7776,-2.7369,-2.637,-2.5869,-2.517,-2.3727,-2.3238,-2.282,-2.2232,-2.1725,-2.1113,-2.0617,-1.9242,-1.7647,-1.5743,-1.4352,-1.3285,-1.2526,-1.0899,-0.9699,-0.892,-0.8595,-0.8484,-0.8484,-1.0123,-1.1219,-1.1455,-1.2663,-1.3098,-1.2772,-1.1877,-1.128,-1.1109,-1.0715,-1.0636,-4.1755,-4.1703,-4.1414,-3.9824,-3.7368,-3.4821,-3.2724,-3.0035,-2.7927,-2.7704,-2.7318,-2.7567,-2.9308,-2.9402,-2.9651,-3.1182,-3.1352,-3.1601,-3.2688,-3.2976,-3.3614,-3.5072,-3.4835,-3.4627,-3.4912,-3.4472,-3.3559,-3.2211,-3.1828,-3.1189,-3.0157,-2.9786,-2.931,-2.864,-2.8428,-2.8243,-2.806,-2.8019,-2.7895,-2.746,-2.751,-2.7322,-2.6906,-2.6775,-2.6597,-2.6229,-2.5951,-2.5158,-2.394,-2.3708,-2.3047,-2.2104,-2.1866,-2.174,-2.1614,-2.1362,-2.1614,-2.1978,-2.223,-2.248,-2.2731,-2.3106,-2.3266,-2.3197,-2.2195,-2.2408,-2.2875,-2.2663,-2.3119,-2.3904,-2.4684,-2.5679,-2.6536,-2.7187,-2.7726,-2.8048,-2.8301,-2.8377,-2.8015,-2.7064,-2.6313,-2.5692,-2.4675,-2.3895,-2.33,-2.2653,-2.2112,-2.1354,-2.0648,-1.8668,-1.6845,-1.5441,-1.4126,-1.2861,-1.1664,-1.0468,-0.9706,-0.9478,-0.9044,-0.9037,-0.9801,-1.1,-1.1982,-1.2644,-1.3413,-1.3593,-1.3067,-1.2488,-1.1898,-1.1386,-1.1468,-1.1351,-4.0686,-4.0908,-4.0732,-3.9041,-3.6491,-3.4098,-3.2635,-2.9956,-2.7779,-2.7873,-2.7717,-2.7889,-2.9131,-2.9383,-2.9901,-3.1428,-3.1433,-3.1675,-3.2974,-3.2777,-3.3216,-3.5107,-3.4616,-3.4385,-3.5138,-3.4116,-3.3109,-3.2204,-3.1889,-3.1325,-3.0274,-3.0232,-2.9774,-2.8763,-2.9136,-2.8968,-2.8438,-2.8672,-2.8524,-2.8239,-2.8154,-2.7956,-2.7752,-2.7442,-2.71,-2.6871,-2.6213,-2.5248,-2.4232,-2.3966,-2.333,-2.2606,-2.2104,-2.1992,-2.2006,-2.1488,-2.1628,-2.2272,-2.2244,-2.2731,-2.3355,-2.3604,-2.3976,-2.4255,-2.3429,-2.3371,-2.3594,-2.3488,-2.397,-2.4778,-2.5551,-2.6645,-2.7638,-2.7941,-2.8368,-2.8601,-2.8727,-2.8423,-2.7937,-2.7207,-2.6378,-2.5654,-2.5181,-2.4332,-2.3528,-2.2944,-2.2295,-2.141,-2.0028,-1.8022,-1.6211,-1.4833,-1.3607,-1.2496,-1.1176,-1.0311,-0.9839,-0.9883,-0.9293,-0.9478,-1.0672,-1.1489,-1.2484,-1.3403,-1.3909,-1.4035,-1.3527,-1.3141,-1.2566,-1.2081,-1.2141,-1.203,-3.8698,-3.8922,-3.8912,-3.7657,-3.4644,-3.1811,-3.1345,-2.8672,-2.6784,-2.842,-2.8395,-2.8652,-3.0533,-3.0776,-3.096,-3.1916,-3.2387,-3.2853,-3.3266,-3.3261,-3.3595,-3.4568,-3.3979,-3.3514,-3.3625,-3.2797,-3.2293,-3.2427,-3.1983,-3.1556,-3.0956,-3.0677,-3.0065,-2.9094,-2.9119,-2.919,-2.9047,-2.8797,-2.8563,-2.8203,-2.8179,-2.8022,-2.7665,-2.7752,-2.7567,-2.7185,-2.6096,-2.5171,-2.4486,-2.3495,-2.287,-2.248,-2.1853,-2.1768,-2.2048,-2.1754,-2.2034,-2.2609,-2.2634,-2.2981,-2.3604,-2.3991,-2.461,-2.5162,-2.5381,-2.514,-2.4778,-2.4548,-2.5311,-2.6227,-2.6772,-2.7422,-2.8067,-2.8581,-2.8495,-2.8408,-2.8621,-2.7845,-2.6929,-2.6705,-2.571,-2.4876,-2.4748,-2.4025,-2.3306,-2.2773,-2.227,-2.1097,-1.875,-1.7582,-1.603,-1.3532,-1.2571,-1.1906,-1.1216,-1.0339,-0.9883,-1.004,-0.9349,-0.9478,-1.0672,-1.1518,-1.2524,-1.3619,-1.3967,-1.4203,-1.4425,-1.3522,-1.3164,-1.3372,-1.2866,-1.2829,-3.7157,-3.7272,-3.6985,-3.4156,-3.1985,-3.019,-2.8821,-2.7385,-2.6481,-2.7042,-2.7709,-2.8583,-2.9711,-3.0378,-3.114,-3.2289,-3.2582,-3.2709,-3.3068,-3.3295,-3.3938,-3.5197,-3.4921,-3.4221,-3.3146,-3.2498,-3.2166,-3.1986,-3.1819,-3.1556,-3.0956,-3.0658,-3.0167,-2.9441,-2.9472,-2.944,-2.9047,-2.9045,-2.909,-2.9284,-2.9008,-2.9042,-2.9128,-2.836,-2.7834,-2.7538,-2.6167,-2.5397,-2.4826,-2.4052,-2.3852,-2.3863,-2.3024,-2.2885,-2.3054,-2.223,-2.2397,-2.2957,-2.2885,-2.3479,-2.4363,-2.461,-2.5349,-2.6189,-2.6764,-2.6304,-2.5558,-2.5604,-2.6098,-2.6881,-2.7422,-2.8067,-2.8581,-2.9237,-2.9132,-2.8814,-2.892,-2.8278,-2.768,-2.7785,-2.6968,-2.6096,-2.5778,-2.5222,-2.4384,-2.3013,-2.2745,-2.2156,-2.0603,-1.8605,-1.6855,-1.5637,-1.3634,-1.2009,-1.1183,-1.061,-1.0227,-1.016,-0.9666,-1.0143,-1.1764,-1.2422,-1.3404,-1.5183,-1.5199,-1.5186,-1.5009,-1.451,-1.4093,-1.3955,-1.3918,-1.3882,-3.5977,-3.5468,-3.4566,-3.2101,-3.0151,-2.8575,-2.7551,-2.6719,-2.6346,-2.6668,-2.7584,-2.8592,-2.9306,-3.0023,-3.0864,-3.1886,-3.2044,-3.2314,-3.2876,-3.2927,-3.3352,-3.4545,-3.466,-3.4245,-3.3024,-3.2713,-3.2382,-3.2117,-3.1993,-3.1721,-3.1305,-3.0723,-3.0268,-2.9804,-2.9824,-2.9617,-2.9115,-2.9244,-2.9421,-2.9506,-2.9181,-2.9162,-2.9316,-2.8491,-2.7867,-2.7392,-2.6194,-2.5451,0.0,-2.4471,-2.4178,-2.4301,-2.3464,-2.3216,-2.3274,-2.262,-2.276,-2.326,-2.3464,-2.41,-2.4873,-2.552,-2.6516,-2.7591,-2.7882,-2.7335,-2.6839,-2.6865,-2.721,-2.7726,-2.8067,-2.8581,-2.9112,-2.9554,-2.9343,-2.9026,-2.892,-2.8483,-2.7988,-2.7832,-2.7141,-2.6541,-2.621,-2.5637,-2.4774,-2.3773,-2.3235,-2.2275,-2.0497,-1.8655,-1.687,-1.5178,-1.3615,-1.219,-1.1306,-1.0818,-1.0432,-1.0144,-0.9858,-1.0555,-1.2531,-1.2937,-1.4055,-1.6198,-1.6086,-1.5772,-1.5583,-1.5088,-1.4785,-1.4651,-1.4749,-1.4844,0.0,-3.3545,-3.1721,-3.0929,-2.8815,-2.6918,-2.7015,-2.654,0.0,-2.6974,-2.7975,-2.8801,-2.9274,-2.9897,-3.0559,-3.1019,-3.1237,-3.1718,-3.2806,-3.2491,-3.2381,-3.3114,-3.3784,-3.3886,-3.3346,-3.3153,-3.3052,-3.2937,-3.2427,-3.1963,-3.1842,-3.0754,-3.0276,-3.0334,-3.0222,-2.9806,-2.9112,-2.9428,-2.9501,-2.9232,-2.8846,-2.868,-2.8669,-2.803,-2.7556,-2.7182,-2.6145,-2.5665,-2.5561,-2.4487,-2.4101,-2.4101,-2.3484,-2.3171,-2.312,-2.2788,-2.312,-2.3777,-2.4039,-2.4702,-2.5381,-2.6461,-2.7834,-2.9039,-2.8856,-2.8505,-2.8277,-2.8142,-2.8377,-2.8688,-2.8688,-2.9112,-2.9554,-2.9554,-2.9343,-2.9026,-2.8727,-2.841,-2.787,-2.7187,-2.666,-2.6332,-2.6126,-2.5412,-2.4788,-2.4718,-2.3687,-2.1916,-1.8892,-1.8117,-1.6606,-1.3117,-1.2731,-1.2388,-1.161,-1.0962,-1.0509,-1.0424,-1.006,-1.0852,-1.3053,-1.3145,-1.4333,-1.6636,-1.6386,-1.6195,-1.6079,-1.5483,-1.535,-1.5582,-1.5443,-1.5554,-3.2896,0.0,-2.974,-2.6922,-2.5612,-2.4968,0.0,-2.5274,-2.5927,-2.6181,-2.7943,-2.9582,-2.9775,-3.0728,-3.1546,-3.1747,-3.2151,-3.2563,-3.272,-3.4213,-3.5125,-3.4866,-3.5164,-3.4993,-3.3876,-3.3772,-3.3564,-3.3438,-3.2788,-3.2267,-3.1943,-3.0505,-2.9789,-2.9911,-2.9648,-2.9599,-2.9643,-2.9297,-2.9352,-2.983,-2.898,-2.8832,-2.8994,-2.8359,-2.7727,-2.7131,-2.6315,-2.588,-2.5493,-2.4826,-2.4517,-2.4409,-2.4301,-2.4098,-2.3848,-2.3723,-2.4115,-2.4715,-2.481,-2.5627,-2.681,-2.825,-2.937,-3.0106,-3.0524,-2.9813,-2.8748,-2.8385,-2.8486,-2.8727,-2.892,-2.9132,-2.9237,-2.9554,-2.9132,-2.8727,-2.8727,-2.831,-2.7999,-2.8008,-2.7734,-2.7311,-2.6788,-2.6509,-2.5919,-2.4421,-2.4282,-2.3275,-2.0448,-1.9212,-1.7633,-1.5035,-1.3584,-1.2542,-1.1769,-1.1454,-1.116,-1.0965,-1.1386,-1.2259,-1.3396,-1.4436,-1.5676,-1.6979,-1.6918,-1.6669,-1.6446,-1.6267,-1.6187,-1.6321,-1.644,-1.618,-3.0155,-2.9321,-2.8323,-2.6618,-2.5276,-2.4333,-2.4107,-2.504,-2.594,-2.602,-2.8132,-2.9883,-2.952,-3.0538,-3.1401,-3.1274,-3.1537,-3.1977,-3.2759,-3.5135,-3.6497,-3.5506,-3.583,-3.5696,-3.4637,-3.4555,-3.4223,-3.3693,-3.3246,-3.2575,-3.1802,-3.0709,-3.0118,-3.0465,-3.0054,-2.9775,-2.9775,-2.9479,-2.963,-3.0097,-2.9194,-2.8846,-2.9053,-2.8425,-2.7729,-2.7022,-2.6571,-2.6027,-2.5552,-2.5103,-2.4687,-2.4548,-2.4626,-2.4362,-2.4115,-2.427,-2.4687,-2.5189,-2.5652,-2.6776,-2.8182,-2.9415,-3.0187,-3.0723,-3.1092,-3.0373,-2.9411,-2.9133,-2.9092,-2.9046,-2.892,-2.9006,-2.9031,-2.8914,-2.8685,-2.841,-2.8219,-2.7937,-2.7754,-2.7969,-2.7707,-2.7237,-2.6816,-2.6406,-2.5864,-2.5004,-2.4082,-2.2783,-2.043,-1.8836,-1.7006,-1.48,-1.346,-1.2499,-1.1808,-1.2232,-1.2026,-1.0917,-1.1816,-1.2776,-1.3872,-1.5138,-1.6472,-1.7717,-1.7493,-1.7455,-1.7361,-1.7126,-1.7089,-1.7219,-1.7111,-1.6735,-2.7878,-2.7265,-2.7151,-2.7307,-2.5722,-2.4167,-2.4332,-2.5228,-2.6119,-2.6392,-2.8532,-3.0118,-2.9443,-3.0403,-3.1214,-3.092,-3.1043,-3.1694,-3.3221,-3.5814,-3.7021,-3.5697,-3.5957,-3.6081,-3.5389,-3.5184,-3.4762,-3.3888,-3.3532,-3.2871,-3.1759,-3.0909,-3.0653,-3.1106,-3.0663,-3.0178,-2.9629,-2.9773,-2.9891,-3.0083,-2.9226,-2.8911,-2.8823,-2.8215,-2.7727,-2.719,-2.6781,-2.6327,-2.5708,-2.5397,-2.498,-2.4687,-2.4735,-2.4549,-2.424,-2.4671,-2.5024,-2.5497,-2.6658,-2.7955,-2.9331,-3.0306,-3.082,-3.1157,-3.1311,-3.0754,-3.0156,-3.0008,-2.9762,-2.9363,-2.89,-2.888,-2.8846,-2.8301,-2.8117,-2.793,-2.7656,-2.7467,-2.7412,-2.7598,-2.719,-2.6911,-2.6805,-2.6082,-2.5533,-2.5569,-2.368,-2.1616,-1.9855,-1.793,-1.5836,-1.3644,-1.2971,-1.2488,-1.2144,-1.3098,-1.3115,-1.1414,-1.2347,-1.3595,-1.4955,-1.5898,-1.7038,-1.8402,-1.8169,-1.8181,-1.8478,-1.8009,-1.7936,-1.8348,-1.7596,-1.7222,-2.817,-2.7238,-2.6056,-2.4961,-2.4095,-2.3594,-2.4243,-2.5156,-2.6293,-2.7926,-2.9457,-3.0664,-3.1358,-3.2025,-3.2576,-3.2786,-3.3987,-3.5065,-3.5507,-3.6791,-3.7449,-3.6817,-3.6504,-3.6288,-3.6235,-3.5355,-3.4574,-3.4027,-3.3271,-3.2608,-3.1954,-3.0769,-3.0305,-3.0632,-3.0376,-3.0212,-3.0243,-3.0308,-3.0139,-2.9942,-2.9355,-2.8873,-2.8444,-2.8134,-2.7807,-2.7481,-2.7091,-2.6793,-2.6438,-2.6142,-2.5552,-2.5103,-2.5306,-2.5274,-2.4964,-2.5274,-2.5986,-2.6979,-2.8217,-2.9192,-3.0009,-3.1132,-3.1792,-3.2105,-3.226,-3.1592,-3.0623,-3.0037,-2.9347,-2.8893,-2.9046,-2.8708,-2.8475,-2.8589,-2.7976,-2.7323,-2.7342,-2.7284,-2.7141,-2.7008,-2.71,-2.722,-2.6985,-2.6825,-2.6336,-2.5401,-2.4111,-2.2138,-1.9265,-1.7732,-1.6082,-1.3875,-1.3296,-1.3288,-1.3848,-1.383,-1.4004,-1.4691,-1.5659,-1.6712,-1.7707,-1.7994,-1.8107,-1.8389,-1.8351,-1.8478,-1.8784,-1.8784,-1.8822,-1.8988,-1.8363,-1.7632,-2.7449,-2.6795,-2.587,-2.4606,-2.4175,-2.4149,-2.4279,-2.5636,-2.7031,-2.7996,-3.0199,-3.2008,-3.2302,-3.3197,-3.3951,-3.4323,-3.5583,-3.6543,-3.647,-3.7443,-3.783,-3.7079,-3.6792,-3.65,-3.6061,-3.5551,-3.4841,-3.3866,-3.3446,-3.2819,-3.1826,-3.1034,-3.0704,-3.0895,-3.0684,-3.0496,-3.0391,-3.0078,-2.9891,-2.9826,-2.9531,-2.8875,-2.8038,-2.8163,-2.7949,-2.7159,-2.7159,-2.6864,-2.6533,-2.6222,-2.5928,-2.5652,-2.5798,-2.5863,-2.5986,-2.6427,-2.7003,-2.7764,-2.8859,-2.9721,-3.0562,-3.1676,-3.2105,-3.2375,-3.2509,-3.1728,-3.0539,-3.0059,-2.9353,-2.8708,-2.8708,-2.8427,-2.8145,-2.8106,-2.7718,-2.7265,-2.7218,-2.7045,-2.6921,-2.7062,-2.7012,-2.6836,-2.6933,-2.6608,-2.5827,-2.4445,-2.2893,-2.1074,-1.8584,-1.6842,-1.5308,-1.4043,-1.3315,-1.3276,-1.414,-1.4713,-1.5476,-1.6344,-1.7191,-1.8008,-1.8924,-1.9125,-1.9092,-1.8997,-1.8971,-1.9128,-1.9443,-1.9205,-1.9127,-1.9162,-1.8411,-1.7667,-2.6527,-2.621,-2.5779,-2.4844,-2.4521,-2.4591,-2.4816,-2.6239,-2.7875,-2.9029,-3.1455,-3.3494,-3.379,-3.479,-3.563,-3.5747,-3.6884,-3.7621,-3.7288,-3.793,-3.8096,-3.7309,-3.7031,-3.6628,-3.6015,-3.5454,-3.4769,-3.3807,-3.3435,-3.2801,-3.1812,-3.1462,-3.1305,-3.1336,-3.0872,-3.0495,-3.0057,-2.9452,-2.9076,-2.9161,-2.9082,-2.854,-2.7517,-2.7975,-2.7789,-2.7073,-2.7073,-2.6918,-2.6762,-2.647,-2.6332,-2.6349,-2.6272,-2.6583,-2.6827,-2.7418,-2.79,-2.839,-2.9333,-3.0268,-3.1132,-3.2113,-3.2416,-3.2392,-3.2447,-3.1526,-3.0369,-2.9815,-2.9186,-2.8542,-2.8388,-2.8125,-2.7841,-2.7822,-2.7294,-2.6702,-2.6654,-2.6199,-2.5743,-2.6153,-2.6117,-2.6062,-2.5991,-2.5664,-2.4803,-2.299,-2.1332,-1.9618,-1.791,-1.6068,-1.4813,-1.4573,-1.3994,-1.4166,-1.5275,-1.6708,-1.776,-1.8087,-1.8512,-1.8991,-1.9456,-1.9685,-1.9631,-1.9372,-1.9492,-1.9653,-1.984,-1.9601,-1.9415,-1.9261,-1.8506,-1.7596,-2.5731,-2.558,-2.5284,-2.5164,-2.4568,-2.4374,-2.6052,-2.6895,-2.8531,-3.2742,-3.3886,-3.4777,-3.6977,-3.7872,-3.7895,-3.6916,-3.8168,-3.9059,-3.8374,-3.8212,-3.8175,-3.8214,-3.6988,-3.6306,-3.7022,-3.5099,-3.3839,-3.4005,-3.2811,-3.2141,-3.2285,-3.1603,-3.1456,-3.1866,-3.0706,-2.9743,-2.9197,-2.8291,-2.7747,-2.7471,-2.7657,-2.7432,-2.6779,-2.7014,-2.7186,-2.7505,-2.7211,-2.7073,-2.7073,-2.7056,-2.7056,-2.7056,-2.7073,-2.7211,-2.7432,-2.7867,-2.8367,-2.9076,-3.0001,-3.0762,-3.1444,-3.2736,-3.2901,-3.2567,-3.1983,-3.1257,-3.0278,-2.914,-2.8573,-2.8281,-2.8281,-2.8106,-2.7999,-2.8194,-2.6654,-2.5148,-2.5165,-2.4037,-2.2933,-2.2779,-2.4141,-2.4769,-2.3118,-2.385,-2.3888,-2.1249,-1.9734,-1.8468,-1.7196,-1.5891,-1.5408,-1.6222,-1.609,-1.6738,-1.8824,-2.0317,-2.1077,-2.0981,-2.0691,-2.0274,-1.9842,-1.9822,-1.9631,-1.9372,-1.9628,-1.9947,-2.0199,-2.0156,-1.9901,-1.9546,-1.892,-1.7776,-2.6571,-2.6621,-2.6527,-2.6153,-2.6251,-2.6519,-2.6651,-2.8689,-3.1208,-3.3522,-3.5735,-3.7559,-3.8529,-3.9103,-3.9275,-3.888,-3.9228,-3.9518,-3.9256,-3.8738,-3.8357,-3.807,-3.721,-3.6577,-3.648,-3.5301,-3.4347,-3.3765,-3.319,-3.2845,-3.2696,-3.2245,-3.1971,-3.1932,-3.0643,-2.9408,-2.8349,-2.7573,-2.6774,-2.5697,-2.6732,-2.7031,-2.6531,-2.7097,-2.7282,-2.719,-2.7246,-2.7367,-2.7367,-2.7522,-2.7661,-2.7661,-2.79,-2.7727,-2.7624,-2.8589,-2.9241,-2.968,-3.0411,-3.1169,-3.1883,-3.2945,-3.2726,-3.2218,-3.2427,-3.1298,-3.0003,-2.9454,-2.8933,-2.8562,-2.8388,-2.7352,-2.6555,-2.6555,-2.5075,-2.3734,-2.3734,-2.3292,-2.2847,-2.2768,-2.3326,-2.3503,-2.2654,-2.3407,-2.3135,-1.9952,-1.9734,-1.914,-1.6773,-1.6049,-1.6181,-1.7074,-1.8069,-1.8722,-1.8579,-2.084,-2.2023,-2.1805,-2.1481,-2.0958,-2.0113,-2.0067,-1.985,-1.9372,-1.9681,-1.9947,-2.0254,-2.0015,-1.9701,-1.9328,-1.8559,-1.7529,-2.7537,-2.7577,-2.7537,-2.7359,-2.803,-2.8707,-2.8699,-3.094,-3.3477,-3.5206,-3.818,-4.0347,-3.9976,-4.0286,-4.0503,-4.0209,-4.0173,-4.0233,-4.0247,-3.9546,-3.8698,-3.7848,-3.7267,-3.6652,-3.5915,-3.531,-3.4832,-3.429,-3.387,-3.3542,-3.3369,-3.2889,-3.2441,-3.2062,-3.0516,-2.8986,-2.7511,-2.6751,-2.5919,-2.4937,-2.6063,-2.6408,-2.6046,-2.69,-2.7239,-2.7155,-2.7504,-2.7626,-2.7659,-2.7953,-2.8108,-2.8126,-2.8433,-2.8313,-2.8246,-2.9085,-2.9817,-3.0291,-3.0976,-3.1592,-3.2313,-3.2971,-3.2601,-3.2002,-3.2204,-3.1045,-2.9713,-2.9413,-2.904,-2.8562,-2.7833,-2.6791,-2.5767,-2.5113,-2.3633,-2.2363,-2.2363,-2.1911,-2.1699,-2.1843,-2.2523,-2.2846,-2.1941,-2.3006,-2.278,-1.9163,-1.9475,-1.9269,-1.7114,-1.6961,-1.7638,-1.9072,-2.0492,-2.0907,-2.0005,-2.1623,-2.2576,-2.2482,-2.2169,-2.1536,-2.0601,-2.0399,-2.0067,-1.9502,-1.9747,-2.0053,-2.0199,-1.991,-1.9537,-1.9072,-1.8173,-1.7141,-2.8471,-2.8168,-2.8198,-2.8799,-2.9483,-3.0624,-3.2663,-3.3504,-3.4864,-3.8384,-4.1403,-4.29,-4.1324,-4.1525,-4.1544,-4.0546,-4.09,-4.1335,-4.1489,-4.0594,-3.9333,-3.7742,-3.7031,-3.6431,-3.5617,-3.5058,-3.4969,-3.5497,-3.4638,-3.4252,-3.4639,-3.3532,-3.2674,-3.2276,-3.0196,-2.8455,-2.6989,-2.5739,-2.5191,-2.536,-2.5423,-2.5395,-2.5412,-2.6565,-2.7229,-2.7522,-2.7834,-2.8073,-2.8063,-2.8063,-2.8217,-2.8545,-2.8456,-2.8955,-2.9443,-2.9424,-2.9979,-3.0976,-3.1626,-3.224,-3.2684,-3.2906,-3.2661,-3.2322,-3.1127,-3.0287,-2.9638,-2.8601,-2.8447,-2.8252,-2.6536,-2.6282,-2.5936,-2.3822,-2.2138,-2.113,-2.113,-1.9883,-1.8997,-1.9359,-2.1601,-2.2717,-2.0601,-2.2507,-2.2927,-1.9074,-1.8726,-1.8713,-1.8351,-1.8687,-1.9842,-2.2589,-2.3295,-2.3552,-2.3921,-2.336,-2.3051,-2.3068,-2.2736,-2.2236,-2.1233,-2.0658,-2.0211,-1.9775,-2.012,-2.0235,-2.0249,-2.0155,-1.9711,-1.9072,-1.8045,-1.7012,-3.1664,-3.2109,-3.2556,-3.2613,-3.3627,-3.4775,-3.5676,-3.5806,-3.6887,-4.0954,-4.2519,-4.3035,-4.2677,-4.2179,-4.1748,-4.1711,-4.159,-4.1574,-4.1736,-4.0485,-3.8872,-3.6836,-3.5575,-3.463,-3.4,-3.3763,-3.3937,-3.467,-3.4547,-3.4403,-3.4175,-3.3153,-3.2542,-3.2674,-3.0369,-2.8794,-2.8155,-2.661,-2.594,-2.5944,-2.5823,-2.6045,-2.6528,-2.7051,-2.7519,-2.7867,-2.8157,-2.8469,-2.8715,-2.8929,-2.8838,-2.8527,-2.8792,-2.8929,-2.925,-2.9903,-3.0509,-3.1337,-3.1991,-3.2436,-3.2871,-3.2916,-3.2384,-3.1718,-3.1189,-3.0201,-2.9166,-2.87,-2.7863,-2.6723,-2.4952,-2.3888,-2.3087,-2.2009,-2.0686,-1.955,-1.955,-1.8984,-1.8765,-1.9243,-2.0587,-2.1259,-2.05,-2.241,-2.3183,-2.0673,-2.1457,-2.2122,-2.1639,-2.1994,-2.222,-2.1994,-2.3295,-2.368,-2.2425,-2.2886,-2.332,-2.3431,-2.3084,-2.2681,-2.198,-2.1522,-2.0948,-2.0164,-2.0455,-2.0429,-2.0186,-1.991,-1.9424,-1.8782,-1.7965,-1.6829,-3.3249,-3.3671,-3.4368,-3.5084,-3.598,-3.7062,-3.8486,-3.9122,-4.0177,-4.306,-4.3992,-4.4071,-4.365,-4.3051,-4.2562,-4.251,-4.2442,-4.2279,-4.1938,-4.0854,-3.9084,-3.6675,-3.5843,-3.5061,-3.4024,-3.4481,-3.4809,-3.4839,-3.4981,-3.4841,-3.4326,-3.319,-3.2581,-3.2477,-3.0412,-2.9006,-2.8581,-2.7103,-2.6417,-2.6381,-2.6062,-2.6321,-2.7106,-2.7539,-2.785,-2.7984,-2.8444,-2.8874,-2.9223,-2.9461,-2.9149,-2.8683,-2.9149,-2.9443,-2.9699,-3.043,-3.1225,-3.195,-3.2436,-3.2924,-3.3308,-3.2938,-3.2298,-3.1717,-3.0893,-2.9969,-2.9013,-2.87,-2.7863,-2.6635,-2.4399,-2.3226,-2.2223,-2.0424,-1.9309,-1.8648,-1.8544,-1.8428,-1.8428,-1.9127,-1.991,-2.0687,-2.106,-2.2749,-2.3631,-2.2251,-2.3151,-2.3917,-2.3694,-2.4378,-2.4616,-2.3805,-2.4206,-2.4128,-2.3087,-2.3568,-2.3857,-2.3853,-2.3636,-2.3309,-2.2811,-2.2112,-2.1392,-2.0614,-2.0759,-2.0684,-2.0227,-1.9671,-1.9175,-1.8411,-1.7334,-1.6318,-3.3743,-3.3805,-3.4384,-3.6613,-3.721,-3.8081,-4.1164,-4.278,-4.3878,-4.4718,-4.5437,-4.551,-4.422,-4.3888,-4.3612,-4.305,-4.3381,-4.3294,-4.214,-4.1301,-3.9702,-3.7049,-3.7056,-3.6599,-3.4893,-3.5966,-3.642,-3.5679,-3.5545,-3.5338,-3.4728,-3.3465,-3.2515,-3.1971,-3.0265,-2.9112,-2.8349,-2.7098,-2.6625,-2.6796,-2.629,-2.6371,-2.7073,-2.7678,-2.8073,-2.808,-2.8801,-2.922,-2.9442,-2.9605,-2.9405,-2.9094,-2.9736,-3.0206,-3.0501,-3.1211,-3.2044,-3.2882,-3.3152,-3.3642,-3.4026,-3.2938,-3.2448,-3.2031,-3.0454,-2.957,-2.8993,-2.8447,-2.8262,-2.7454,-2.4693,-2.3829,-2.2806,-1.9412,-1.8532,-1.8428,-1.8077,-1.8089,-1.8194,-1.8881,-1.9666,-2.0687,-2.2394,-2.3631,-2.4172,-2.3838,-2.4267,-2.4693,-2.4948,-2.5972,-2.6772,-2.6989,-2.5697,-2.4923,-2.511,-2.4771,-2.4581,-2.4493,-2.4306,-2.4007,-2.3702,-2.2523,-2.1683,-2.1188,-2.1208,-2.0884,-2.0187,-1.9509,-1.8888,-1.8089,-1.6501,-1.5649,-3.5711,-3.5824,-3.621,-3.7826,-3.9011,-4.0458,-4.3059,-4.4297,-4.4951,-4.5147,-4.5298,-4.5184,-4.4692,-4.3735,-4.3113,-4.343,-4.3101,-4.2607,-4.2085,-4.1122,-3.9433,-3.6659,-3.5308,-3.451,-3.4318,-3.3983,-3.4264,-3.521,-3.5265,-3.4832,-3.3893,-3.2746,-3.1987,-3.1679,-2.9889,-2.8794,-2.8581,-2.7269,-2.6641,-2.6727,-2.6661,-2.6729,-2.6935,-2.7678,-2.8246,-2.882,-2.9437,-2.9592,-2.9487,-3.0011,-3.0035,-2.9789,-3.0111,-3.0658,-3.1149,-3.1841,-3.2621,-3.3464,-3.3551,-3.3909,-3.4199,-3.2987,-3.2448,-3.2031,-3.0454,-2.957,-2.8993,-2.8447,-2.7622,-2.6667,-2.5466,-2.3789,-2.207,-2.0599,-1.9529,-1.8765,-1.8765,-1.8532,-1.8765,-2.0012,-2.0228,-2.1016,-2.3519,-2.4078,-2.4837,-2.63,-2.6844,-2.7168,-2.7168,-2.7206,-2.7098,-2.6772,-2.6026,-2.5366,-2.4889,-2.4855,-2.4796,-2.4509,-2.4547,-2.4379,-2.396,-2.3202,-2.2275,-2.1203,-2.1406,-2.0967,-1.9893,-1.9453,-1.8729,-1.7572,-1.6608,-1.5624,-3.6117,-3.6561,-3.7206,-3.8875,-4.0626,-4.2392,-4.3866,-4.4489,-4.4882,-4.5114,-4.519,-4.5101,-4.483,-4.3832,-4.3094,-4.2998,-4.2701,-4.2071,-4.0583,-3.9959,-3.8704,-3.6301,-3.5545,-3.5183,-3.5373,-3.4969,-3.4872,-3.5379,-3.5186,-3.4572,-3.3487,-3.2431,-3.1651,-3.1223,-2.9679,-2.8794,-2.8688,-2.7582,-2.703,-2.6936,-2.7044,-2.7327,-2.7661,-2.7885,-2.8487,-2.9424,-2.9686,-2.9785,-2.9941,-3.0409,-3.0449,-3.0276,-3.0957,-3.1466,-3.186,-3.2656,-3.3413,-3.406,-3.4007,-3.414,-3.4202,-3.3077,-3.2276,-3.1446,-3.0162,-2.9404,-2.8846,-2.8281,-2.7515,-2.6755,-2.5916,-2.4476,-2.3166,-2.2276,-2.0438,-1.8765,-1.8532,-1.8868,-1.9332,-1.9448,-1.9781,-2.0787,-2.3167,-2.4855,-2.6191,-2.7422,-2.7745,-2.7853,-2.7638,-2.753,-2.7206,-2.6881,-2.6245,-2.5806,-2.5459,-2.5412,-2.526,-2.4977,-2.4865,-2.4579,-2.4096,-2.3479,-2.267,-2.1672,-2.1546,-2.0842,-1.9694,-1.9102,-1.8252,-1.719,-1.6375,-1.5523,-3.5636,-3.6516,-3.7721,-3.9413,-4.1439,-4.3164,-4.3771,-4.4033,-4.4297,-4.4919,-4.4969,-4.4843,-4.4507,-4.3741,-4.2998,-4.2252,-4.2072,-4.1307,-3.8926,-3.8675,-3.8067,-3.6347,-3.6527,-3.6848,-3.6964,-3.6752,-3.6383,-3.5766,-3.5187,-3.4413,-3.3254,-3.2141,-3.1284,-3.0727,-2.953,-2.8727,-2.8486,-2.7782,-2.7345,-2.7158,-2.7427,-2.7955,-2.863,-2.8264,-2.8727,-2.9874,-2.9817,-3.0077,-3.0568,-3.0898,-3.0859,-3.0762,-3.1872,-3.2347,-3.2585,-3.3388,-3.4159,-3.467,-3.4625,-3.4516,-3.4181,-3.3176,-3.2105,-3.1116,-3.012,-2.9444,-2.8846,-2.8301,-2.8028,-2.7554,-2.6511,-2.5613,-2.482,-2.3959,-2.1624,-1.9461,-1.8687,-1.9243,-1.9679,-1.8777,-1.9795,-2.1244,-2.2814,-2.5498,-2.7638,-2.796,-2.796,-2.7853,-2.7422,-2.7422,-2.7314,-2.6989,-2.6537,-2.6116,-2.6026,-2.596,-2.5729,-2.5361,-2.5169,-2.4884,-2.4217,-2.352,-2.2912,-2.2154,-2.1493,-2.0648,-1.9628,-1.8804,-1.7974,-1.6914,-1.6067,-1.5591,-3.455,-3.6012,-3.7943,-3.8782,-3.9919,-4.1128,-4.2456,-4.3329,-4.3977,-4.4723,-4.4319,-4.3707,-4.2983,-4.2443,-4.198,-4.1312,-4.051,-3.9694,-3.8756,-3.8437,-3.799,-3.7006,-3.7258,-3.7577,-3.8075,-3.7022,-3.6337,-3.6202,-3.5527,-3.4599,-3.3238,-3.223,-3.1137,-3.0139,-2.8767,-2.7918,-2.7713,-2.7012,-2.6902,-2.7254,-2.7615,-2.8183,-2.8911,-2.889,-2.913,-2.958,-3.0351,-3.0782,-3.0879,-3.1503,-3.1616,-3.1721,-3.2363,-3.2934,-3.3508,-3.4134,-3.4869,-3.555,-3.5128,-3.5024,-3.5046,-3.3659,-3.2767,-3.2075,-3.1021,-3.0278,-2.9748,-2.9454,-2.9279,-2.9045,-2.8009,-2.6955,-2.5816,-2.4896,-2.3566,-2.2101,-2.0642,-1.9685,-1.9399,-2.05,-2.2974,-2.4633,-2.3805,-2.6045,-2.796,-2.8514,-2.8408,-2.8067,-2.7422,-2.7422,-2.7225,-2.67,-2.6662,-2.6399,-2.5824,-2.588,-2.5704,-2.5027,-2.5036,-2.4897,-2.4595,-2.3929,-2.3216,-2.2503,-2.1625,-2.0538,-1.9309,-1.8949,-1.8215,-1.6961,-1.656,-1.6183,-3.599,-3.7572,-3.9105,-3.9082,-3.993,-4.1037,-4.1931,-4.2154,-4.2545,-4.3719,-4.3115,-4.2404,-4.2775,-4.2312,-4.168,-4.0774,-3.9778,-3.8951,-3.8424,-3.7859,-3.7573,-3.7674,-3.7531,-3.7675,-3.8438,-3.7284,-3.6447,-3.6363,-3.5451,-3.4485,-3.3254,-3.2024,-3.0936,-2.9987,-2.8827,-2.8057,-2.7796,-2.7654,-2.7863,-2.8351,-2.8044,-2.8217,-2.882,-2.8984,-2.9324,-2.9747,-3.0509,-3.1053,-3.1146,-3.1787,-3.2133,-3.2416,-3.2924,-3.3565,-3.4181,-3.4803,-3.5331,-3.5745,-3.5414,-3.5156,-3.4736,-3.353,-3.251,-3.1629,-3.0954,-3.0201,-2.9746,-2.9595,-2.935,-2.8993,-2.854,-2.7121,-2.5697,-2.5248,-2.3492,-2.1785,-2.1171,-2.1191,-2.1639,-2.2539,-2.3743,-2.4727,-2.5226,-2.7023,-2.8408,-2.8621,-2.8838,-2.8574,-2.7568,-2.763,-2.7453,-2.6792,-2.646,-2.6238,-2.6016,-2.5809,-2.5494,-2.4944,-2.5092,-2.4944,-2.4595,-2.3769,-2.3222,-2.2944,-2.1598,-2.0364,-1.9359,-1.8788,-1.8077,-1.7044,-1.6903,-1.6655,-3.7398,-3.8699,-3.9551,-3.9267,-4.0018,-4.0935,-4.114,-4.1069,-4.1298,-4.2526,-4.1942,-4.1523,-4.2529,-4.2046,-4.1142,-3.9957,-3.9003,-3.8304,-3.7849,-3.7243,-3.7069,-3.7677,-3.7679,-3.7821,-3.8277,-3.7482,-3.6718,-3.6288,-3.5325,-3.4149,-3.3017,-3.1856,-3.0831,-2.9921,-2.8953,-2.834,-2.8114,-2.8449,-2.8795,-2.8914,-2.8446,-2.8302,-2.8801,-2.9212,-2.9604,-3.0101,-3.0703,-3.1129,-3.162,-3.226,-3.2612,-3.2882,-3.3557,-3.4216,-3.4646,-3.5308,-3.5722,-3.5922,-3.5591,-3.5201,-3.469,-3.3561,-3.2488,-3.1566,-3.1053,-3.0412,-2.9947,-2.9947,-2.9581,-2.9137,-2.902,-2.735,-2.57,-2.5547,-2.369,-2.1658,-2.1038,-2.2063,-2.3178,-2.3328,-2.4044,-2.5151,-2.6426,-2.7795,-2.8874,-2.908,-2.9164,-2.8867,-2.7872,-2.7918,-2.7716,-2.6825,-2.6421,-2.6238,-2.601,-2.5652,-2.5177,-2.4808,-2.4833,-2.4843,-2.4452,-2.3645,-2.3145,-2.3208,-2.1624,-2.0385,-1.9488,-1.8803,-1.8114,-1.7397,-1.7268,-1.7126,-3.754,-3.8311,-3.8455,-3.8909,-3.9578,-4.0081,-3.9625,-4.0144,-4.0826,-4.1146,-4.1211,-4.131,-4.1581,-4.095,-3.9944,-3.853,-3.7805,-3.729,-3.7017,-3.6769,-3.6604,-3.6687,-3.7644,-3.814,-3.7717,-3.75,-3.7064,-3.6031,-3.5041,-3.3876,-3.2489,-3.1606,-3.0696,-2.957,-2.896,-2.8672,-2.8887,-2.8983,-2.8857,-2.8477,-2.8558,-2.8782,-2.9076,-2.9826,-3.0335,-3.0566,-3.0943,-3.1576,-3.2281,-3.2903,-3.3194,-3.3308,-3.4129,-3.4712,-3.5091,-3.564,-3.5945,-3.6254,-3.5922,-3.5643,-3.5201,-3.4357,-3.3438,-3.2518,-3.1872,-3.1347,-3.0879,-3.0879,-3.0586,-3.018,-2.9861,-2.8236,-2.6701,-2.5915,-2.473,-2.3037,-2.0399,-2.1244,-2.2523,-2.2184,-2.4948,-2.7257,-2.722,-2.8223,-2.9273,-2.9998,-2.9451,-2.8843,-2.8671,-2.8408,-2.7807,-2.6861,-2.6811,-2.6381,-2.5308,-2.5383,-2.5078,-2.4482,-2.448,-2.444,-2.4204,-2.352,-2.3115,-2.3099,-2.184,-2.0759,-1.9761,-1.9193,-1.8712,-1.8336,-1.8077,-1.8052,-3.846,-3.8865,-3.9115,-3.9255,-3.9454,-3.9567,-3.9314,-3.9365,-3.9877,-4.1151,-4.1024,-4.0801,-4.1315,-4.0842,-3.9973,-3.9031,-3.7997,-3.7427,-3.7896,-3.7346,-3.7318,-3.8142,-3.8255,-3.8147,-3.7844,-3.7335,-3.6533,-3.5722,-3.4738,-3.3754,-3.2742,-3.1564,-3.0641,-3.0098,-2.9384,-2.9086,-2.9373,-2.8996,-2.8928,-2.9259,-2.8859,-2.8784,-2.9095,-2.9387,-2.9971,-3.0782,-3.1124,-3.1808,-3.2592,-3.3215,-3.3536,-3.384,-3.4289,-3.4803,-3.5376,-3.5859,-3.6231,-3.6254,-3.5922,-3.5595,-3.5178,-3.4094,-3.3283,-3.2539,-3.2009,-3.1366,-3.0898,-3.1054,-3.0781,-3.0413,-3.0217,-2.8092,-2.5492,-2.3107,-2.216,-2.1904,-2.1795,-2.2321,-2.3151,-2.4378,-2.6264,-2.8009,-2.9071,-2.9533,-2.9717,-2.9951,-2.9709,-2.9394,-2.8766,-2.8671,-2.8118,-2.6918,-2.6661,-2.624,-2.5397,-2.5167,-2.4825,-2.4135,-2.4529,-2.4537,-2.3753,-2.37,-2.3535,-2.3099,-2.2398,-2.1546,-2.0399,-1.9604,-1.905,-1.8933,-1.8661,-1.8739,-3.9454,-3.9548,-3.952,-3.9362,-3.9148,-3.8919,-3.8843,-3.8553,-3.8753,-4.0324,-4.0291,-4.0194,-4.0864,-4.0554,-3.9906,-3.8996,-3.8139,-3.767,-3.8215,-3.7826,-3.7765,-3.8644,-3.8299,-3.7924,-3.7799,-3.6529,-3.5524,-3.496,-3.38,-3.2679,-3.1489,-3.1245,-3.083,-3.037,-2.9889,-2.9554,-2.9764,-2.9258,-2.9172,-2.9635,-2.9106,-2.9,-2.9232,-2.9387,-3.0003,-3.1003,-3.1593,-3.2321,-3.2943,-3.3473,-3.3883,-3.4202,-3.4668,-3.5002,-3.5436,-3.5922,-3.6117,-3.611,-3.5831,-3.5418,-3.4979,-3.4072,-3.3283,-3.2653,-3.2165,-3.1523,-3.1054,-3.121,-3.0898,-3.0392,-2.993,-2.7435,-2.4271,-2.154,-2.1233,-2.1783,-2.3164,-2.369,-2.4454,-2.6245,-2.7669,-2.9026,-3.0265,-3.0222,-3.011,-3.0267,-3.0167,-2.9844,-2.9184,-2.9104,-2.8468,-2.715,-2.6733,-2.6127,-2.5414,-2.5059,-2.462,-2.4049,-2.4581,-2.4531,-2.3616,-2.3924,-2.3825,-2.3371,-2.2906,-2.2328,-2.1517,-2.0385,-1.9822,-1.9734,-1.9359,-1.9319,0.0,0.0,0.0,-3.9148,-3.8678,-3.8286,-3.8116,-3.777,-3.7666,-3.8483,-3.912,-3.9658,-4.0119,-4.0072,-3.9504,-3.8162,-3.7979,-3.7987,-3.7863,-3.7863,-3.7882,-3.7892,-3.7642,-3.7461,-3.729,-3.5303,-3.3876,-3.343,-3.2297,-3.0772,-2.8854,-3.062,-3.1197,-3.0453,-3.037,-3.0287,-2.9994,-2.9764,-2.9595,-2.957,-2.9278,-2.9323,-2.9577,-3.0036,-3.0537,-3.1197,-3.2423,-3.3077,-3.3253,-3.3871,-3.4069,-3.4202,-3.5045,-3.5445,-3.5436,-3.5745,-3.5864,-3.5779,-3.554,-3.5024,-3.4401,-3.4224,-3.3459,-3.2653,-3.2322,-3.1816,-3.1327,-3.1347,-3.1054,-3.0584,-2.9259,-2.6313,-2.3305,-2.1641,-2.2139,-2.326,-2.4407,-2.5366,-2.6463,-2.7599,-2.9217,-3.0433,-3.0594,-3.0355,-3.0445,-3.0983,-3.0576,-3.0161,-2.9865,-2.9686,-2.8898,-2.7398,-2.7097,-2.6416,-2.529,-2.5034,-2.4701,-2.4496,-2.4701,-2.4573,-2.3921,-2.3904,-2.3904,-2.3921,-2.336,-2.3022,-2.3022,-2.1517,-2.0716,-2.0716,-2.0155,-2.004,-4.1495,0.0,0.0,0.0,0.0,0.0,-3.777,-3.7943,-3.8194,-3.7872,-3.889,-3.9527,-3.8806,-3.9269,-3.9213,-3.7491,-3.7664,-3.7878,-3.7504,-3.7564,-3.7347,-3.6599,-3.5751,-3.5008,-3.4607,-3.3154,-3.2043,-3.1673,-3.1753,-3.1359,-3.0287,-3.0909,-3.1013,-3.037,-3.0599,-3.0516,-2.9994,-2.9889,-2.9889,-2.9931,-2.9632,-2.9611,-2.9889,-3.056,-3.1112,-3.1635,-3.2806,-3.3226,-3.3353,-3.4112,-3.4534,-3.4845,-3.5201,-3.549,-3.5745,-3.6077,-3.5972,-3.5733,-3.5535,-3.5024,-3.4423,-3.3877,-3.3266,-3.2612,-3.2404,-3.1977,-3.1592,-3.1404,-3.121,-3.0663,-2.8496,-2.6747,-2.5444,-2.417,-2.3796,-2.4373,-2.7093,-2.8148,-2.8627,-2.9231,-3.0048,-3.0874,-3.1354,-3.0884,-3.0642,-3.0983,-3.0443,-2.9795,-2.9865,-2.945,-2.8663,-2.7416,-2.7211,-2.6775,-2.5639,-2.5459,-2.5348,-2.5017,-2.5276,-2.5199,-2.4573,-2.5052,-2.5069,-2.4573,-2.4334,-2.4128,-2.3697,-2.2085,-2.1402,-2.1432,-2.0974,-2.073,-4.2125,-4.1766,-4.1321,-3.9466,0.0,0.0,-3.7748,-3.7653,-3.7689,-3.7344,-3.8117,-3.8635,-3.7806,-3.8146,-3.8058,-3.6648,-3.6903,-3.7198,-3.721,-3.7243,-3.7113,-3.6645,-3.5425,-3.4547,-3.4607,-3.2524,-3.1251,-3.1578,-3.1374,-3.1208,-3.1468,-3.1094,-3.0888,-3.0909,-3.0806,-3.0599,-3.0183,-3.0099,-2.9973,-2.9848,-2.9656,-2.9656,-2.9889,-3.0399,-3.1105,-3.1719,-3.2517,-3.3077,-3.3547,-3.4115,-3.4513,-3.469,-3.5379,-3.5598,-3.5768,-3.5922,-3.5821,-3.5536,-3.5023,-3.4534,-3.4,-3.3557,-3.3059,-3.2477,-3.235,-3.2092,-3.1721,-3.1421,-3.0469,-2.9186,-2.7692,-2.6168,-2.491,-2.4007,-2.4468,-2.572,-2.7756,-2.9391,-3.0529,-3.0997,-3.1165,-3.1337,-3.1856,-3.1182,-3.0691,-3.0963,-3.0488,-2.9987,-2.9884,-2.9418,-2.8713,-2.7609,-2.7391,-2.6933,-2.5952,-2.5789,-2.5679,-2.5569,-2.5892,-2.5909,-2.5569,-2.5892,-2.5909,-2.5551,-2.5441,-2.4906,-2.4016,-2.2765,-2.1987,-2.166,-2.1332,-2.0974,-4.2566,-4.2407,-4.1943,-3.9434,-3.9088,0.0,-3.803,-3.7395,-3.6939,-3.6938,-3.7251,-3.7405,-3.7122,-3.6908,-3.6554,-3.5785,-3.5753,-3.6084,-3.6778,-3.6752,-3.6798,-3.7096,-3.5605,-3.4873,-3.5565,-3.2659,-3.1166,-3.2352,-3.0937,-3.0787,-3.2431,-3.1197,-3.0742,-3.1505,-3.1073,-3.066,-3.0349,-3.0162,-2.9848,-2.9682,-2.9618,-2.9597,-2.9618,-3.0127,-3.0772,-3.1614,-3.21,-3.2844,-3.3766,-3.4163,-3.4314,-3.4403,-3.5331,-3.5768,-3.5768,-3.5436,-3.5333,-3.5179,-3.4379,-3.3914,-3.3556,-3.3245,-3.2768,-3.2363,-3.2302,-3.2119,-3.1836,-3.1436,-2.935,-2.7245,-2.7155,-2.5222,-2.3247,-2.2744,-2.4937,-2.715,-2.7446,-2.9838,-3.219,-3.2771,-3.2297,-3.1856,-3.2023,-3.1236,-3.0655,-3.0937,-3.0548,-3.014,-2.9963,-2.9505,-2.884,-2.7974,-2.7492,-2.7013,-2.6263,-2.6008,-2.6008,-2.6227,-2.6554,-2.6663,-2.6663,-2.6663,-2.6663,-2.6663,-2.6227,-2.5441,-2.4317,-2.3456,-2.257,-2.166,-2.1432,-2.1089,-4.3731,-4.3078,-4.2401,-4.0754,-4.007,0.0,-3.855,-3.8483,-3.8112,-3.6631,-3.703,-3.7272,-3.6196,-3.607,-3.5849,-3.4751,-3.4341,-3.4418,-3.5356,-3.5274,-3.5001,-3.4689,-3.3001,-3.1877,-3.1974,-3.1484,-3.1003,-3.0685,-3.1064,-3.1646,-3.2509,-3.1768,-3.1197,-3.0949,-3.0888,-3.0599,-3.0078,-2.9974,-2.9974,-2.9869,-2.9737,-2.9717,-3.0015,-3.0983,-3.1683,-3.2146,-3.2802,-3.321,-3.3612,-3.4292,-3.4891,-3.5241,-3.5459,-3.5591,-3.5745,-3.526,-3.4869,-3.4668,-3.4224,-3.3706,-3.3245,-3.3194,-3.283,-3.235,-3.258,-3.2424,-3.2133,-3.1767,-3.0372,-2.8719,-2.8015,-2.6611,-2.532,-2.5111,-2.6346,-2.7955,-2.9487,-3.1141,-3.2629,-3.3652,-3.2742,-3.1939,-3.221,-3.1063,-3.0432,-3.109,-3.0159,-2.9507,-2.9738,-2.9184,-2.8521,-2.7976,-2.7863,-2.7657,-2.7135,-2.7098,-2.7098,-2.7098,-2.7206,-2.7206,-2.7206,-2.7206,-2.7206,-2.7206,-2.6227,-2.5459,-2.4667,-2.3568,-2.257,-2.1675,-2.1675,-2.1203,-4.3756,-4.3406,-4.3046,-4.0859,-4.0301,0.0,0.0,-3.842,-3.8011,-3.6724,-3.6754,-3.6662,-3.5529,-3.5014,-3.4359,-3.3255,-3.2863,-3.2821,-3.3123,-3.3293,-3.3249,-3.3038,-3.2147,-3.148,-3.1484,-3.1661,-3.1703,-3.1296,-3.2126,-3.2574,-3.2494,-3.2229,-3.1812,-3.1176,-3.0927,-3.0575,-3.0223,-3.0057,-2.9973,-2.9843,-2.9697,-2.9635,-2.9869,-3.0926,-3.1662,-3.2356,-3.3019,-3.3634,-3.4229,-3.4735,-3.5131,-3.5414,-3.5568,-3.564,-3.5733,-3.5223,-3.4781,-3.4423,-3.4017,-3.3629,-3.3215,-3.3038,-3.2506,-3.2084,-3.235,-3.2309,-3.1923,-3.1285,-2.9884,-2.8462,-2.7383,-2.6644,-2.615,-2.5999,-2.7633,-2.9524,-3.0316,-3.1671,-3.2776,-3.3183,-3.2413,-3.1881,-3.1881,-3.097,-3.0187,-3.0423,-2.9618,-2.9199,-2.9637,-2.9064,-2.8718,-2.8507,-2.8385,-2.8172,-2.7872,-2.7853,-2.7853,-2.8067,-2.8067,-2.8067,-2.8281,-2.796,-2.7745,-2.7441,-2.6554,-2.5898,-2.5238,-2.4016,-2.3022,-2.2116,-2.1774,-2.1203,-4.3597,-4.3642,-4.358,-4.1071,-4.0562,-4.0393,0.0,0.0,0.0,-3.6938,-3.6662,-3.6226,-3.5204,-3.4177,-3.3213,-3.2074,-3.1748,-3.1383,-3.0903,-3.1172,-3.1455,-3.1732,-3.162,-3.1541,-3.1506,-3.1988,-3.2391,-3.2596,-3.3136,-3.3122,-3.2485,-3.2324,-3.1949,-3.1424,-3.0884,-3.0572,-3.0303,-3.0078,-2.9867,-2.9627,-2.97,-2.9702,-2.9743,-3.0735,-3.1558,-3.2293,-3.3019,-3.3878,-3.4803,-3.4992,-3.5178,-3.5373,-3.5613,-3.5666,-3.5536,-3.5045,-3.469,-3.4289,-3.3827,-3.3371,-3.2965,-3.2847,-3.254,-3.2129,-3.2296,-3.2079,-3.1652,-3.0568,-2.9275,-2.7864,-2.69,-2.6658,-2.6661,-2.6609,-2.8904,-3.1007,-3.0772,-3.1778,-3.2839,-3.2658,-3.2117,-3.1647,-3.143,-3.0764,-3.0059,-2.9741,-2.94,-2.923,-2.9545,-2.9172,-2.9006,-2.9006,-2.8906,-2.8814,-2.8621,-2.8621,-2.8708,-2.89,-2.89,-2.89,-2.9132,-2.8708,-2.8174,-2.753,-2.6989,-2.6445,-2.5679,-2.459,-2.3472,-2.257,-2.2002,-2.1189,-4.4181,-4.393,-4.3731,-4.2423,-4.1781,-4.1136,-3.9939,0.0,-3.8115,-3.7185,0.0,-3.6383,-3.5529,0.0,0.0,-3.2461,-3.1341,-3.0366,-2.9656,-2.9378,-2.9578,-3.0687,-3.0343,-3.0091,-2.999,-3.1343,-3.2376,-3.3058,-3.2999,-3.2721,-3.2207,-3.145,-3.1012,-3.0909,-3.0391,-3.0078,-3.0057,-2.9807,-2.9743,-2.9931,-2.9994,-3.012,-3.0328,-3.1485,-3.1977,-3.2032,-3.3224,-3.3855,-3.4053,-3.4836,-3.5084,-3.5178,-3.5373,-3.5311,-3.5023,-3.469,-3.4202,-3.3669,-3.3671,-3.3059,-3.2526,-3.3115,-3.3276,-3.3039,-3.2526,-3.2248,-3.1998,-3.0684,-2.9394,-2.8343,-2.8564,-2.7966,-2.7604,-2.8253,-3.0103,-3.1586,-3.1196,-3.1953,-3.2892,-3.3325,-3.2322,-3.1186,-3.0883,-3.0443,-3.0172,-2.9984,-2.9609,-2.9461,-2.9768,-2.9367,-2.9212,-2.953,-2.9469,-2.9554,-2.9784,-2.9784,-2.9679,-2.9554,-2.9448,-2.9343,-2.9132,-2.9026,-2.8601,-2.7853,-2.753,-2.6772,-2.5679,-2.4812,-2.3697,-2.257,-2.223,-2.1531,-4.4841,-4.3979,-4.3108,-4.2429,-4.1534,-4.061,-3.9651,-3.8898,-3.8116,-3.7223,0.0,0.0,0.0,0.0,0.0,0.0,-3.1514,-3.0596,-2.9884,-2.9204,-2.8851,-2.8802,-2.9391,-3.0313,-3.1693,-3.1788,-3.2225,-3.3118,-3.3081,-3.2787,-3.2149,-3.195,-3.1629,-3.1313,-3.0706,-3.0433,-3.0433,-3.0182,-3.0182,-3.0433,-3.0433,-3.0558,-3.0639,-3.1911,-3.2401,-3.2306,-3.3988,-3.4737,-3.4647,-3.5482,-3.5617,-3.5268,-3.5312,-3.5268,-3.5001,-3.4668,-3.4047,-3.3338,-3.3536,-3.2903,-3.2099,-3.269,-3.2875,-3.2786,-3.2615,-3.2567,-3.2133,-3.01,-2.9157,-2.8564,-2.7949,-2.8188,-2.8965,-3.0181,-3.1815,-3.3077,-3.2889,-3.2901,-3.3027,-3.3048,-3.2342,-3.1626,-3.0977,-3.067,-3.0418,-3.0095,-3.0209,-3.0417,-3.0724,-3.0648,-3.076,-3.1103,-3.0852,-3.079,-3.0895,-3.0663,-3.0308,-3.0078,-2.9869,-2.9659,-2.9448,-2.9343,-2.892,-2.796,-2.753,-2.6881,-2.5679,-2.4812,-2.3921,-2.3135,-2.2456,-2.1531,-4.5354,-4.4378,-4.3371,-4.2334,-4.1406,-4.0481,-3.9694,-3.8939,-3.8218,-3.7647,-3.7579,0.0,0.0,0.0,-3.4557,-3.2771,0.0,-3.0804,-3.0062,-2.9193,-2.836,-2.7716,-2.8633,-3.0075,-3.1926,-3.1418,-3.1324,-3.2202,-3.2472,-3.2274,-3.1338,-3.1595,-3.1387,-3.0831,-3.0579,-3.0516,-3.0558,-3.0636,-3.076,-3.0955,-3.0955,-3.0931,-3.0944,-3.2289,-3.2783,-3.2669,-3.4751,-3.5485,-3.5414,-3.61,-3.6082,-3.5533,-3.5402,-3.5201,-3.4756,-3.4534,-3.3892,-3.3205,-3.3371,-3.2934,-3.22,-3.2255,-3.2555,-3.2819,-3.2991,-3.2711,-3.2044,-2.9667,-2.8801,-2.8325,-2.7349,-2.8307,-2.9728,-3.1225,-3.2778,-3.3974,-3.3974,-3.3501,-3.3027,-3.2913,-3.2457,-3.1896,-3.1479,-3.1191,-3.0897,-3.0449,-3.0892,-3.1375,-3.1579,-3.1776,-3.2102,-3.234,-3.202,-3.1848,-3.172,-3.142,-3.1059,-3.062,-3.0308,-2.9973,-2.9869,-2.9764,-2.9237,-2.8174,-2.7853,-2.7098,-2.5789,-2.5145,-2.4368,-2.3472,-2.257,-2.1531,-4.5276,-4.5287,-4.506,-4.2716,-4.1943,-4.1455,-4.0481,-3.943,-3.8738,-3.8867,-3.8932,-3.8381,-3.6424,-3.6041,-3.528,-3.3078,-3.1705,0.0,0.0,-2.8885,-2.8099,-2.7906,-2.801,-2.8364,-2.9112,-2.9485,-2.9692,-2.992,-3.0583,-3.0616,-2.9437,-2.9526,-2.9394,-2.879,-2.925,-2.9743,-3.0032,-3.0756,-3.1192,-3.1214,-3.1214,-3.1192,-3.1235,-3.2765,-3.3409,-3.3317,-3.542,-3.6195,-3.5991,-3.6487,-3.6346,-3.573,-3.5491,-3.4821,-3.4129,-3.4112,-3.3738,-3.3226,-3.3235,-3.3252,-3.321,-3.2221,-3.2834,-3.3984,-3.3319,-3.267,-3.1584,-2.9861,-2.8444,-2.7504,-2.7486,-2.8426,-2.9728,-3.1053,-3.2457,-3.3636,-3.3636,-3.3161,-3.2913,-3.3501,-3.2592,-3.1903,-3.2227,-3.2207,-3.2014,-3.1464,-3.1692,-3.2058,-3.2295,-3.2231,-3.234,-3.2663,-3.2642,-3.2555,-3.2416,-3.2372,-3.2049,-3.1262,-3.0703,-3.0391,-3.0391,-3.0099,-2.9554,-2.8688,-2.8688,-2.7833,-2.6136,-2.6008,-2.5128,-2.3472,-2.257,-2.1888,-4.6083,-4.4984,-4.3709,-4.3047,-4.214,-4.1199,-4.0395,-3.9667,-3.9043,-3.8762,-3.8549,-3.8089,-3.6882,-3.6363,-3.569,-3.394,-3.2735,-3.1706,0.0,-2.9083,-2.7801,-2.7258,-2.7587,-2.801,-2.8584,-2.888,-2.9128,-2.9307,-2.9709,-2.9833,-2.9535,-2.9495,-2.939,-2.9298,-3.0265,-3.0976,-3.1322,-3.2471,-3.3115,-3.3369,-3.3086,-3.3005,-3.3038,-3.4155,-3.4454,-3.437,-3.5856,-3.641,-3.6309,-3.661,-3.6363,-3.573,-3.5357,-3.4662,-3.4129,-3.4129,-3.3459,-3.252,-3.2072,-3.2064,-3.2347,-3.2845,-3.3309,-3.3735,-3.431,-3.3976,-3.2743,-3.052,-2.9104,-2.8325,-2.7607,-2.8426,-2.9846,-3.1496,-3.2913,-3.3974,-3.3974,-3.3749,-3.3523,-3.3409,-3.3182,-3.2934,-3.2955,-3.3048,-3.2943,-3.2384,-3.2938,-3.345,-3.3523,-3.3612,-3.3922,-3.4164,-3.3748,-3.3463,-3.3426,-3.2471,-3.1701,-3.124,-3.0827,-3.062,-3.0391,-3.0287,-2.9764,-2.8688,-2.8688,-2.7941,-2.6445,-2.6008,-2.536,-2.4381,-2.347,-2.2444,-4.6715,-4.5403,-4.4103,-4.3325,-4.2497,-4.1617,-4.1023,-4.0544,-4.0171,-3.9876,-3.9699,-3.9191,-3.7996,-3.7296,-3.6392,-3.4709,-3.3219,-3.1845,0.0,-2.885,-2.7754,-2.6858,-2.7208,-2.7587,-2.7734,-2.79,-2.8098,-2.8252,-2.869,-2.8967,-2.8765,-2.9044,-2.9066,-2.8779,-3.047,-3.1612,-3.2022,-3.3563,-3.4598,-3.4831,-3.4484,-3.4298,-3.429,-3.5046,-3.5367,-3.5375,-3.6554,-3.6955,-3.6991,-3.6848,-3.6557,-3.595,-3.5357,-3.464,-3.3904,-3.3855,-3.3152,-3.2248,-3.1707,-3.1852,-3.2509,-3.3458,-3.3906,-3.4159,-3.4909,-3.4393,-3.3299,-3.1445,-3.0049,-2.892,-2.8426,-2.9139,-3.0217,-3.1727,-3.3027,-3.3974,-3.4086,-3.4086,-3.3974,-3.3749,-3.3636,-3.3636,-3.3523,-3.3636,-3.3636,-3.3275,-3.3727,-3.4086,-3.4199,-3.4423,-3.4534,-3.4758,-3.4361,-3.3901,-3.367,-3.2559,-3.1723,-3.1343,-3.1137,-3.0827,-3.0495,-3.0495,-3.0036,-2.9246,-2.898,-2.8233,-2.7085,-2.6665,-2.5904,-2.4906,-2.4351,-2.3362]}]]